Private Wetterstation Schwalmtal/Rainrod
Wetterdaten: aktuell Dienstag, 02.06.2020 12:35
Datum Zeit Temp. A. Feuchte A. Regen Wind Richtung Richtung Sonnenschein Zeit Regen ET UV Solar Taupunkt Windchill Windben Empfang
02.06.2020 12:35 25,5 C 35 % 0,0 l/m 3,6 km/h (1 Bft) O 95 1 min 0 min 0,000 mm 5,9 UV-I 875 W/m 8,9 C 25,5 C 11,3 km/h (2 Bft) 100,00 %
02.06.2020 12:34 25,5 C 36 % 0,0 l/m 7,2 km/h (2 Bft) NO 40 1 min 0 min 0,000 mm 5,9 UV-I 875 W/m 9,3 C 25,5 C 11,3 km/h (2 Bft) 100,00 %
02.06.2020 12:33 25,6 C 37 % 0,0 l/m 8,7 km/h (2 Bft) O-NO 61 1 min 0 min 0,000 mm 5,9 UV-I 875 W/m 9,8 C 25,6 C 12,9 km/h (3 Bft) 100,00 %
02.06.2020 12:32 25,6 C 37 % 0,0 l/m 7,0 km/h (2 Bft) O 99 2 min 0 min 0,000 mm 5,9 UV-I 874 W/m 9,8 C 25,5 C 16,1 km/h (3 Bft) 100,00 %
02.06.2020 12:30 25,5 C 35 % 0,0 l/m 2,9 km/h (1 Bft) N 5 1 min 0 min 0,000 mm 5,9 UV-I 872 W/m 8,9 C 25,5 C 4,8 km/h (1 Bft) 100,00 %
02.06.2020 12:29 25,5 C 37 % 0,0 l/m 3,4 km/h (1 Bft) N 5 1 min 0 min 0,000 mm 5,9 UV-I 870 W/m 9,7 C 25,4 C 4,8 km/h (1 Bft) 100,00 %
02.06.2020 12:28 25,4 C 37 % 0,0 l/m 5,7 km/h (2 Bft) NO 40 1 min 0 min 0,000 mm 5,8 UV-I 868 W/m 9,6 C 25,4 C 8,0 km/h (2 Bft) 100,00 %
02.06.2020 12:27 25,4 C 40 % 0,0 l/m 5,5 km/h (2 Bft) N 5 1 min 0 min 0,000 mm 5,8 UV-I 866 W/m 10,8 C 25,3 C 8,0 km/h (2 Bft) 100,00 %
02.06.2020 12:26 25,3 C 38 % 0,0 l/m 5,3 km/h (1 Bft) N-NO 20 1 min 0 min 0,000 mm 5,8 UV-I 864 W/m 9,9 C 25,3 C 9,7 km/h (2 Bft) 100,00 %
02.06.2020 12:25 25,3 C 38 % 0,0 l/m 4,5 km/h (1 Bft) N 5 1 min 0 min 0,000 mm 5,7 UV-I 863 W/m 9,9 C 25,2 C 6,4 km/h (2 Bft) 100,00 %
02.06.2020 12:24 25,2 C 39 % 0,0 l/m 4,7 km/h (1 Bft) NO 37 1 min 0 min 0,000 mm 4,7 UV-I 861 W/m 10,2 C 25,2 C 8,0 km/h (2 Bft) 100,00 %
02.06.2020 12:23 25,2 C 37 % 0,0 l/m 4,2 km/h (1 Bft) O-NO 78 1 min 0 min 0,000 mm 3,2 UV-I 860 W/m 9,5 C 25,2 C 9,7 km/h (2 Bft) 100,00 %
02.06.2020 12:22 25,2 C 37 % 0,0 l/m 6,3 km/h (2 Bft) O-SO 118 2 min 0 min 0,000 mm 2,9 UV-I 857 W/m 9,5 C 25,2 C 12,9 km/h (3 Bft) 100,00 %
02.06.2020 12:20 25,2 C 37 % 0,0 l/m 9,7 km/h (2 Bft) O 90 1 min 0 min 0,000 mm 3,8 UV-I 855 W/m 9,5 C 25,1 C 16,1 km/h (3 Bft) 100,00 %
02.06.2020 12:19 25,1 C 39 % 0,0 l/m 8,1 km/h (2 Bft) O 82 1 min 0 min 0,000 mm 5,3 UV-I 854 W/m 10,2 C 25,1 C 11,3 km/h (2 Bft) 100,00 %
02.06.2020 12:18 25,1 C 37 % 0,0 l/m 8,2 km/h (2 Bft) O-SO 109 1 min 0 min 0,000 mm 5,7 UV-I 857 W/m 9,4 C 25,1 C 16,1 km/h (3 Bft) 100,00 %
02.06.2020 12:17 25,1 C 38 % 0,0 l/m 8,1 km/h (2 Bft) O-SO 114 1 min 0 min 0,000 mm 5,7 UV-I 856 W/m 9,8 C 25,1 C 12,9 km/h (3 Bft) 100,00 %
02.06.2020 12:16 25,1 C 39 % 0,0 l/m 9,8 km/h (2 Bft) O 83 1 min 0 min 0,000 mm 5,7 UV-I 854 W/m 10,2 C 25,1 C 16,1 km/h (3 Bft) 100,00 %
02.06.2020 12:15 25,1 C 38 % 0,0 l/m 10,5 km/h (2 Bft) O 85 1 min 0 min 0,000 mm 5,7 UV-I 851 W/m 9,8 C 25,1 C 17,7 km/h (3 Bft) 96,15 %
02.06.2020 12:14 25,1 C 38 % 0,0 l/m 4,9 km/h (1 Bft) O-SO 103 1 min 0 min 0,000 mm 5,7 UV-I 851 W/m 9,8 C 25,0 C 8,0 km/h (2 Bft) 100,00 %
02.06.2020 12:13 25,0 C 37 % 0,0 l/m 5,7 km/h (2 Bft) S-SO 149 0 min 0 min 0,000 mm 5,7 UV-I 394 W/m 9,3 C 25,0 C 11,3 km/h (2 Bft) 95,12 %
02.06.2020 12:12 25,0 C 38 % 0,0 l/m 7,3 km/h (2 Bft) S-SO 162 0 min 0 min 0,000 mm 5,6 UV-I 90 W/m 9,7 C 24,9 C 11,3 km/h (2 Bft) 97,37 %
02.06.2020 12:10 24,9 C 39 % 0,0 l/m 4,3 km/h (1 Bft) S 171 0 min 0 min 0,000 mm 5,6 UV-I 90 W/m 10,0 C 24,9 C 6,4 km/h (2 Bft) 95,83 %
02.06.2020 12:09 24,9 C 38 % 0,0 l/m 4,7 km/h (1 Bft) S 178 0 min 0 min 0,000 mm 5,6 UV-I 164 W/m 9,6 C 24,9 C 11,3 km/h (2 Bft) 100,00 %
02.06.2020 12:08 24,9 C 38 % 0,0 l/m 8,9 km/h (2 Bft) SO 135 1 min 0 min 0,000 mm 5,6 UV-I 847 W/m 9,6 C 24,9 C 12,9 km/h (3 Bft) 96,30 %
02.06.2020 12:07 24,9 C 39 % 0,0 l/m 8,1 km/h (2 Bft) SO 129 1 min 0 min 0,000 mm 5,6 UV-I 847 W/m 10,0 C 24,8 C 11,3 km/h (2 Bft) 91,30 %
02.06.2020 12:06 24,9 C 37 % 0,0 l/m 5,5 km/h (2 Bft) SO 132 1 min 0 min 0,000 mm 5,6 UV-I 847 W/m 9,2 C 24,8 C 11,3 km/h (2 Bft) 100,00 %
02.06.2020 12:05 24,8 C 37 % 0,0 l/m 1,5 km/h (1 Bft) O-SO 105 1 min 0 min 0,000 mm 5,6 UV-I 846 W/m 9,1 C 24,8 C 3,2 km/h (1 Bft) 95,83 %
02.06.2020 12:04 24,9 C 37 % 0,0 l/m 3,0 km/h (1 Bft) O-SO 107 1 min 0 min 0,000 mm 5,6 UV-I 833 W/m 9,2 C 24,8 C 4,8 km/h (1 Bft) 100,00 %
02.06.2020 12:03 24,9 C 38 % 0,0 l/m 7,1 km/h (2 Bft) O-SO 104 1 min 0 min 0,000 mm 5,5 UV-I 823 W/m 9,6 C 24,8 C 11,3 km/h (2 Bft) 97,06 %
02.06.2020 12:02 24,8 C 37 % 0,0 l/m 2,9 km/h (1 Bft) O-NO 78 2 min 0 min 0,559 mm 5,5 UV-I 825 W/m 9,1 C 24,8 C 4,8 km/h (1 Bft) 96,97 %
02.06.2020 12:00 24,8 C 40 % 0,0 l/m 2,9 km/h (1 Bft) O 80 1 min 0 min 0,000 mm 5,5 UV-I 815 W/m 10,3 C 24,8 C 4,8 km/h (1 Bft) 100,00 %
02.06.2020 11:59 24,8 C 38 % 0,0 l/m 5,0 km/h (1 Bft) O-NO 69 1 min 0 min 0,000 mm 5,4 UV-I 818 W/m 9,5 C 24,8 C 9,7 km/h (2 Bft) 96,15 %
02.06.2020 11:58 24,8 C 38 % 0,0 l/m 8,4 km/h (2 Bft) O 82 1 min 0 min 0,000 mm 5,4 UV-I 817 W/m 9,5 C 24,7 C 12,9 km/h (3 Bft) 96,30 %
02.06.2020 11:57 24,7 C 38 % 0,0 l/m 5,7 km/h (2 Bft) O 90 1 min 0 min 0,000 mm 5,4 UV-I 814 W/m 9,4 C 24,7 C 11,3 km/h (2 Bft) 100,00 %
02.06.2020 11:56 24,7 C 39 % 0,0 l/m 5,7 km/h (2 Bft) O-SO 113 1 min 0 min 0,000 mm 5,4 UV-I 818 W/m 9,8 C 24,6 C 8,0 km/h (2 Bft) 91,67 %
02.06.2020 11:55 24,6 C 40 % 0,0 l/m 7,3 km/h (2 Bft) O 81 1 min 0 min 0,000 mm 5,4 UV-I 823 W/m 10,1 C 24,6 C 14,5 km/h (3 Bft) 100,00 %
02.06.2020 11:54 24,6 C 40 % 0,0 l/m 4,2 km/h (1 Bft) N-NO 27 1 min 0 min 0,000 mm 5,4 UV-I 828 W/m 10,1 C 24,5 C 6,4 km/h (2 Bft) 95,65 %
02.06.2020 11:53 24,5 C 42 % 0,0 l/m 4,0 km/h (1 Bft) N-NO 23 1 min 0 min 0,000 mm 5,4 UV-I 830 W/m 10,7 C 24,4 C 6,4 km/h (2 Bft) 100,00 %
02.06.2020 11:52 24,4 C 39 % 0,0 l/m 1,8 km/h (1 Bft) S-SO 168 2 min 0 min 0,000 mm 5,4 UV-I 828 W/m 9,5 C 24,3 C 6,4 km/h (2 Bft) 96,23 %
02.06.2020 11:50 24,3 C 39 % 0,0 l/m 2,0 km/h (1 Bft) W-SW 243 1 min 0 min 0,000 mm 5,4 UV-I 826 W/m 9,4 C 24,3 C 4,8 km/h (1 Bft) 100,00 %
02.06.2020 11:49 24,3 C 38 % 0,0 l/m 3,2 km/h (1 Bft) SO 127 1 min 0 min 0,000 mm 5,4 UV-I 823 W/m 9,1 C 24,3 C 4,8 km/h (1 Bft) 91,67 %
02.06.2020 11:48 24,3 C 39 % 0,0 l/m 2,7 km/h (1 Bft) O-NO 63 1 min 0 min 0,000 mm 5,4 UV-I 824 W/m 9,4 C 24,3 C 4,8 km/h (1 Bft) 100,00 %
02.06.2020 11:47 24,3 C 39 % 0,0 l/m 4,0 km/h (1 Bft) O-NO 59 1 min 0 min 0,000 mm 5,3 UV-I 821 W/m 9,4 C 24,3 C 6,4 km/h (2 Bft) 100,00 %
02.06.2020 11:46 24,3 C 38 % 0,0 l/m 2,5 km/h (1 Bft) O 94 1 min 0 min 0,000 mm 5,3 UV-I 823 W/m 9,1 C 24,2 C 4,8 km/h (1 Bft) 100,00 %
02.06.2020 11:45 24,2 C 38 % 0,0 l/m 8,0 km/h (2 Bft) O 92 1 min 0 min 0,000 mm 5,3 UV-I 821 W/m 9,0 C 24,2 C 12,9 km/h (3 Bft) 92,31 %
02.06.2020 11:44 24,2 C 41 % 0,0 l/m 8,9 km/h (2 Bft) O 99 1 min 0 min 0,000 mm 5,3 UV-I 819 W/m 10,1 C 24,2 C 17,7 km/h (3 Bft) 100,00 %
02.06.2020 11:43 24,2 C 39 % 0,0 l/m 6,6 km/h (2 Bft) N 349 1 min 0 min 0,000 mm 5,3 UV-I 816 W/m 9,4 C 24,2 C 9,7 km/h (2 Bft) 88,46 %
02.06.2020 11:42 24,2 C 39 % 0,0 l/m 1,8 km/h (1 Bft) N-NO 17 2 min 0 min 0,000 mm 5,3 UV-I 816 W/m 9,4 C 24,1 C 4,8 km/h (1 Bft) 98,00 %
02.06.2020 11:40 24,1 C 42 % 0,0 l/m 5,3 km/h (1 Bft) O 82 1 min 0 min 0,000 mm 5,2 UV-I 811 W/m 10,4 C 24,0 C 9,7 km/h (2 Bft) 100,00 %
02.06.2020 11:39 24,0 C 38 % 0,0 l/m 3,6 km/h (1 Bft) NO 56 1 min 0 min 0,000 mm 5,2 UV-I 809 W/m 8,8 C 24,0 C 4,8 km/h (1 Bft) 94,44 %
02.06.2020 11:38 24,0 C 41 % 0,0 l/m 6,3 km/h (2 Bft) N-NO 27 1 min 0 min 0,000 mm 5,2 UV-I 810 W/m 9,9 C 24,0 C 11,3 km/h (2 Bft) 100,00 %
02.06.2020 11:37 24,0 C 41 % 0,0 l/m 7,6 km/h (2 Bft) NO 54 1 min 0 min 0,000 mm 5,2 UV-I 809 W/m 9,9 C 23,9 C 11,3 km/h (2 Bft) 100,00 %
02.06.2020 11:36 24,0 C 39 % 0,0 l/m 7,6 km/h (2 Bft) NO 37 1 min 0 min 0,000 mm 5,2 UV-I 808 W/m 9,2 C 23,9 C 9,7 km/h (2 Bft) 100,00 %
02.06.2020 11:35 24,0 C 40 % 0,0 l/m 10,1 km/h (2 Bft) O-NO 67 1 min 0 min 0,000 mm 5,2 UV-I 807 W/m 9,6 C 23,9 C 16,1 km/h (3 Bft) 100,00 %
02.06.2020 11:34 24,0 C 40 % 0,0 l/m 8,4 km/h (2 Bft) NO 43 1 min 0 min 0,000 mm 5,2 UV-I 805 W/m 9,6 C 23,9 C 14,5 km/h (3 Bft) 100,00 %
02.06.2020 11:33 23,9 C 40 % 0,0 l/m 8,9 km/h (2 Bft) N 5 1 min 0 min 0,000 mm 5,1 UV-I 805 W/m 9,5 C 23,9 C 16,1 km/h (3 Bft) 100,00 %
02.06.2020 11:32 23,9 C 38 % 0,0 l/m 8,7 km/h (2 Bft) NO 38 2 min 0 min 0,000 mm 5,1 UV-I 802 W/m 8,7 C 23,8 C 14,5 km/h (3 Bft) 97,56 %
02.06.2020 11:30 23,8 C 40 % 0,0 l/m 5,6 km/h (2 Bft) NO 34 1 min 0 min 0,000 mm 5,1 UV-I 802 W/m 9,4 C 23,8 C 9,7 km/h (2 Bft) 100,00 %
02.06.2020 11:29 23,8 C 39 % 0,0 l/m 2,7 km/h (1 Bft) O 101 1 min 0 min 0,000 mm 5,1 UV-I 802 W/m 9,0 C 23,7 C 4,8 km/h (1 Bft) 100,00 %
02.06.2020 11:28 23,7 C 38 % 0,0 l/m 2,5 km/h (1 Bft) O-SO 107 1 min 0 min 0,000 mm 5,1 UV-I 798 W/m 8,5 C 23,7 C 4,8 km/h (1 Bft) 100,00 %
02.06.2020 11:27 23,7 C 38 % 0,0 l/m 3,2 km/h (1 Bft) O-SO 107 1 min 0 min 0,000 mm 5,0 UV-I 796 W/m 8,5 C 23,6 C 4,8 km/h (1 Bft) 100,00 %
02.06.2020 11:26 23,6 C 40 % 0,0 l/m 5,4 km/h (2 Bft) O 92 1 min 0 min 0,000 mm 5,0 UV-I 792 W/m 9,2 C 23,6 C 6,4 km/h (2 Bft) 96,15 %
02.06.2020 11:25 23,6 C 39 % 0,0 l/m 4,6 km/h (1 Bft) O-SO 113 1 min 0 min 0,000 mm 5,0 UV-I 791 W/m 8,8 C 23,5 C 4,8 km/h (1 Bft) 100,00 %
02.06.2020 11:24 23,5 C 42 % 0,0 l/m 7,0 km/h (2 Bft) O-SO 113 1 min 0 min 0,000 mm 5,0 UV-I 791 W/m 9,8 C 23,4 C 11,3 km/h (2 Bft) 96,88 %
02.06.2020 11:23 23,4 C 42 % 0,0 l/m 8,1 km/h (2 Bft) O 98 1 min 0 min 0,000 mm 5,0 UV-I 789 W/m 9,7 C 23,4 C 14,5 km/h (3 Bft) 100,00 %
02.06.2020 11:22 23,4 C 42 % 0,0 l/m 7,7 km/h (2 Bft) O 81 2 min 0 min 0,000 mm 4,9 UV-I 787 W/m 9,7 C 23,4 C 12,9 km/h (3 Bft) 100,00 %
02.06.2020 11:20 23,4 C 41 % 0,0 l/m 7,2 km/h (2 Bft) NO 41 1 min 0 min 0,000 mm 4,9 UV-I 787 W/m 9,4 C 23,4 C 9,7 km/h (2 Bft) 100,00 %
02.06.2020 11:19 23,4 C 41 % 0,0 l/m 7,3 km/h (2 Bft) N-NO 32 1 min 0 min 0,000 mm 4,9 UV-I 783 W/m 9,4 C 23,4 C 14,5 km/h (3 Bft) 100,00 %
02.06.2020 11:18 23,4 C 40 % 0,0 l/m 5,0 km/h (1 Bft) N-NO 25 1 min 0 min 0,000 mm 4,9 UV-I 782 W/m 9,0 C 23,4 C 8,0 km/h (2 Bft) 100,00 %
02.06.2020 11:17 23,4 C 39 % 0,0 l/m 9,0 km/h (2 Bft) N-NO 15 1 min 0 min 0,000 mm 4,9 UV-I 780 W/m 8,6 C 23,4 C 16,1 km/h (3 Bft) 100,00 %
02.06.2020 11:16 23,4 C 40 % 0,0 l/m 10,9 km/h (2 Bft) NO 36 1 min 0 min 0,000 mm 4,9 UV-I 780 W/m 9,0 C 23,4 C 16,1 km/h (3 Bft) 96,15 %
02.06.2020 11:15 23,4 C 40 % 0,0 l/m 5,6 km/h (2 Bft) NO 50 1 min 0 min 0,000 mm 4,8 UV-I 778 W/m 9,0 C 23,4 C 9,7 km/h (2 Bft) 100,00 %
02.06.2020 11:14 23,4 C 42 % 0,0 l/m 6,6 km/h (2 Bft) O-NO 69 1 min 0 min 0,000 mm 4,8 UV-I 775 W/m 9,7 C 23,3 C 11,3 km/h (2 Bft) 96,55 %
02.06.2020 11:13 23,3 C 42 % 0,0 l/m 8,5 km/h (2 Bft) O-NO 65 1 min 0 min 0,000 mm 4,8 UV-I 773 W/m 9,7 C 23,3 C 14,5 km/h (3 Bft) 96,67 %
02.06.2020 11:12 23,3 C 43 % 0,0 l/m 5,1 km/h (1 Bft) NO 47 2 min 0 min 0,000 mm 4,8 UV-I 770 W/m 10,0 C 23,2 C 8,0 km/h (2 Bft) 97,14 %
02.06.2020 11:10 23,2 C 41 % 0,0 l/m 9,8 km/h (2 Bft) N-NO 29 1 min 0 min 0,000 mm 4,7 UV-I 768 W/m 9,2 C 23,2 C 14,5 km/h (3 Bft) 100,00 %
02.06.2020 11:09 23,2 C 41 % 0,0 l/m 10,4 km/h (2 Bft) O-NO 60 1 min 0 min 0,000 mm 4,7 UV-I 765 W/m 9,2 C 23,2 C 17,7 km/h (3 Bft) 100,00 %
02.06.2020 11:08 23,2 C 41 % 0,0 l/m 4,9 km/h (1 Bft) O-NO 59 1 min 0 min 0,000 mm 4,7 UV-I 761 W/m 9,2 C 23,2 C 9,7 km/h (2 Bft) 100,00 %
02.06.2020 11:07 23,2 C 41 % 0,0 l/m 9,6 km/h (2 Bft) O-NO 69 1 min 0 min 0,000 mm 4,7 UV-I 762 W/m 9,2 C 23,2 C 16,1 km/h (3 Bft) 100,00 %
02.06.2020 11:06 23,2 C 41 % 0,0 l/m 6,6 km/h (2 Bft) NO 47 1 min 0 min 0,000 mm 4,6 UV-I 759 W/m 9,2 C 23,2 C 11,3 km/h (2 Bft) 100,00 %
02.06.2020 11:05 23,3 C 40 % 0,0 l/m 10,6 km/h (2 Bft) NO 38 1 min 0 min 0,000 mm 4,6 UV-I 756 W/m 8,9 C 23,3 C 14,5 km/h (3 Bft) 100,00 %
02.06.2020 11:04 23,3 C 40 % 0,0 l/m 6,3 km/h (2 Bft) NO 38 2 min 0 min 0,000 mm 4,6 UV-I 754 W/m 8,9 C 23,3 C 11,3 km/h (2 Bft) 100,00 %
02.06.2020 11:02 23,3 C 42 % 0,0 l/m 7,1 km/h (2 Bft) NO 55 2 min 0 min 0,432 mm 4,6 UV-I 751 W/m 9,7 C 23,3 C 14,5 km/h (3 Bft) 100,00 %
02.06.2020 11:00 23,3 C 40 % 0,0 l/m 10,1 km/h (2 Bft) O-NO 71 1 min 0 min 0,000 mm 4,5 UV-I 748 W/m 8,9 C 23,3 C 16,1 km/h (3 Bft) 100,00 %
02.06.2020 10:59 23,3 C 41 % 0,0 l/m 7,4 km/h (2 Bft) NO 36 1 min 0 min 0,000 mm 4,5 UV-I 745 W/m 9,3 C 23,2 C 12,9 km/h (3 Bft) 98,14 %
02.06.2020 10:58 23,2 C 43 % 0,0 l/m 2,5 km/h (1 Bft) NO 55 1 min 0 min 0,000 mm 4,5 UV-I 744 W/m 9,9 C 23,2 C 4,8 km/h (1 Bft) 100,00 %
02.06.2020 10:57 23,2 C 42 % 0,0 l/m 7,2 km/h (2 Bft) NO 42 1 min 0 min 0,000 mm 4,4 UV-I 743 W/m 9,6 C 23,2 C 11,3 km/h (2 Bft) 100,00 %
02.06.2020 10:56 23,2 C 42 % 0,0 l/m 5,4 km/h (2 Bft) N-NO 31 1 min 0 min 0,000 mm 4,4 UV-I 741 W/m 9,6 C 23,2 C 8,0 km/h (2 Bft) 100,00 %
02.06.2020 10:55 23,2 C 41 % 0,0 l/m 6,9 km/h (2 Bft) NO 38 1 min 0 min 0,000 mm 4,4 UV-I 738 W/m 9,2 C 23,2 C 14,5 km/h (3 Bft) 95,83 %
02.06.2020 10:54 23,2 C 41 % 0,0 l/m 10,5 km/h (2 Bft) O-NO 68 1 min 0 min 0,000 mm 4,4 UV-I 731 W/m 9,2 C 23,2 C 19,3 km/h (3 Bft) 100,00 %
02.06.2020 10:53 23,2 C 41 % 0,0 l/m 4,6 km/h (1 Bft) N-NO 22 1 min 0 min 0,000 mm 4,4 UV-I 726 W/m 9,2 C 23,2 C 8,0 km/h (2 Bft) 96,15 %
02.06.2020 10:52 23,2 C 41 % 0,0 l/m 7,5 km/h (2 Bft) NO 39 2 min 0 min 0,000 mm 4,3 UV-I 721 W/m 9,2 C 23,2 C 17,7 km/h (3 Bft) 96,43 %
02.06.2020 10:50 23,2 C 40 % 0,0 l/m 8,0 km/h (2 Bft) N-NO 22 1 min 0 min 0,000 mm 4,3 UV-I 706 W/m 8,8 C 23,2 C 11,3 km/h (2 Bft) 93,33 %
02.06.2020 10:49 23,2 C 42 % 0,0 l/m 9,6 km/h (2 Bft) NO 35 1 min 0 min 0,000 mm 4,3 UV-I 701 W/m 9,6 C 23,2 C 14,5 km/h (3 Bft) 96,88 %
02.06.2020 10:48 23,2 C 43 % 0,0 l/m 5,4 km/h (2 Bft) NO 49 1 min 0 min 0,000 mm 4,3 UV-I 698 W/m 9,9 C 23,1 C 11,3 km/h (2 Bft) 85,71 %
02.06.2020 10:47 23,1 C 42 % 0,0 l/m 10,5 km/h (2 Bft) O-NO 72 1 min 0 min 0,000 mm 4,2 UV-I 697 W/m 9,5 C 23,1 C 17,7 km/h (3 Bft) 100,00 %
02.06.2020 10:46 23,1 C 43 % 0,0 l/m 11,6 km/h (2 Bft) N-NO 27 1 min 0 min 0,000 mm 3,8 UV-I 687 W/m 9,8 C 23,1 C 17,7 km/h (3 Bft) 91,30 %
02.06.2020 10:45 23,1 C 43 % 0,0 l/m 6,4 km/h (2 Bft) N-NO 17 1 min 0 min 0,000 mm 3,9 UV-I 680 W/m 9,8 C 23,1 C 12,9 km/h (3 Bft) 100,00 %
02.06.2020 10:44 23,1 C 42 % 0,0 l/m 2,9 km/h (1 Bft) O-NO 67 1 min 0 min 0,000 mm 4,2 UV-I 676 W/m 9,5 C 23,1 C 8,0 km/h (2 Bft) 96,15 %
02.06.2020 10:43 23,1 C 42 % 0,0 l/m 6,6 km/h (2 Bft) O 83 1 min 0 min 0,000 mm 4,2 UV-I 671 W/m 9,5 C 23,1 C 11,3 km/h (2 Bft) 100,00 %
02.06.2020 10:42 23,1 C 41 % 0,0 l/m 9,4 km/h (2 Bft) O-NO 64 2 min 0 min 0,000 mm 4,2 UV-I 659 W/m 9,1 C 23,0 C 16,1 km/h (3 Bft) 95,65 %
02.06.2020 10:40 23,0 C 42 % 0,0 l/m 6,9 km/h (2 Bft) N-NO 33 1 min 0 min 0,000 mm 4,1 UV-I 645 W/m 9,4 C 22,9 C 16,1 km/h (3 Bft) 95,83 %
02.06.2020 10:39 22,9 C 43 % 0,0 l/m 7,8 km/h (2 Bft) O-NO 73 1 min 0 min 0,000 mm 4,1 UV-I 634 W/m 9,6 C 22,9 C 14,5 km/h (3 Bft) 92,31 %
02.06.2020 10:38 22,9 C 42 % 0,0 l/m 7,6 km/h (2 Bft) O 85 1 min 0 min 0,000 mm 4,1 UV-I 628 W/m 9,3 C 22,9 C 14,5 km/h (3 Bft) 100,00 %
02.06.2020 10:37 22,9 C 42 % 0,0 l/m 10,7 km/h (2 Bft) O-NO 69 1 min 0 min 0,000 mm 4,1 UV-I 625 W/m 9,3 C 22,9 C 14,5 km/h (3 Bft) 92,86 %
02.06.2020 10:36 22,9 C 41 % 0,0 l/m 9,0 km/h (2 Bft) N-NO 30 1 min 0 min 0,000 mm 4,1 UV-I 614 W/m 8,9 C 22,8 C 14,5 km/h (3 Bft) 100,00 %
02.06.2020 10:35 22,8 C 42 % 0,0 l/m 6,4 km/h (2 Bft) N-NO 24 1 min 0 min 0,000 mm 4,0 UV-I 604 W/m 9,2 C 22,8 C 14,5 km/h (3 Bft) 100,00 %
02.06.2020 10:34 22,8 C 43 % 0,0 l/m 3,7 km/h (1 Bft) O 90 1 min 0 min 0,000 mm 4,0 UV-I 554 W/m 9,6 C 22,7 C 9,7 km/h (2 Bft) 100,00 %
02.06.2020 10:33 22,7 C 42 % 0,0 l/m 2,6 km/h (1 Bft) O-SO 123 1 min 0 min 0,000 mm 4,0 UV-I 508 W/m 9,1 C 22,7 C 4,8 km/h (1 Bft) 100,00 %
02.06.2020 10:32 22,7 C 45 % 0,0 l/m 8,5 km/h (2 Bft) SO 131 2 min 0 min 0,000 mm 4,0 UV-I 572 W/m 10,1 C 22,6 C 16,1 km/h (3 Bft) 97,56 %
02.06.2020 10:30 22,6 C 45 % 0,0 l/m 5,3 km/h (1 Bft) O 94 1 min 0 min 0,000 mm 3,9 UV-I 576 W/m 10,1 C 22,5 C 8,0 km/h (2 Bft) 95,65 %
02.06.2020 10:29 22,5 C 44 % 0,0 l/m 7,3 km/h (2 Bft) O-SO 117 1 min 0 min 0,000 mm 3,9 UV-I 571 W/m 9,6 C 22,4 C 14,5 km/h (3 Bft) 100,00 %
02.06.2020 10:28 22,4 C 44 % 0,0 l/m 8,8 km/h (2 Bft) O 89 1 min 0 min 0,000 mm 3,9 UV-I 567 W/m 9,5 C 22,4 C 12,9 km/h (3 Bft) 100,00 %
02.06.2020 10:27 22,4 C 45 % 0,0 l/m 9,4 km/h (2 Bft) SO 124 1 min 0 min 0,000 mm 3,9 UV-I 564 W/m 9,9 C 22,3 C 16,1 km/h (3 Bft) 100,00 %
02.06.2020 10:26 22,3 C 46 % 0,0 l/m 6,2 km/h (2 Bft) O-SO 103 1 min 0 min 0,000 mm 3,8 UV-I 560 W/m 10,1 C 22,3 C 14,5 km/h (3 Bft) 100,00 %
02.06.2020 10:25 22,3 C 46 % 0,0 l/m 7,9 km/h (2 Bft) O-SO 103 1 min 0 min 0,000 mm 3,8 UV-I 556 W/m 10,1 C 22,2 C 11,3 km/h (2 Bft) 95,65 %
02.06.2020 10:24 22,2 C 47 % 0,0 l/m 5,5 km/h (2 Bft) O-SO 113 1 min 0 min 0,000 mm 3,8 UV-I 552 W/m 10,3 C 22,1 C 9,7 km/h (2 Bft) 96,55 %
02.06.2020 10:23 22,1 C 45 % 0,0 l/m 8,3 km/h (2 Bft) O-SO 123 1 min 0 min 0,000 mm 3,8 UV-I 549 W/m 9,6 C 22,1 C 12,9 km/h (3 Bft) 100,00 %
02.06.2020 10:22 22,1 C 46 % 0,0 l/m 6,8 km/h (2 Bft) SO 132 2 min 0 min 0,000 mm 3,8 UV-I 541 W/m 9,9 C 21,9 C 12,9 km/h (3 Bft) 100,00 %
02.06.2020 10:20 21,9 C 48 % 0,0 l/m 7,4 km/h (2 Bft) SO 142 1 min 0 min 0,000 mm 3,7 UV-I 540 W/m 10,4 C 21,9 C 12,9 km/h (3 Bft) 98,08 %
02.06.2020 10:19 21,9 C 49 % 0,0 l/m 6,6 km/h (2 Bft) SO 146 1 min 0 min 0,000 mm 3,7 UV-I 541 W/m 10,7 C 21,8 C 9,7 km/h (2 Bft) 98,20 %
02.06.2020 10:18 21,8 C 49 % 0,0 l/m 4,3 km/h (1 Bft) O-SO 118 1 min 0 min 0,000 mm 3,7 UV-I 540 W/m 10,6 C 21,8 C 4,8 km/h (1 Bft) 91,67 %
02.06.2020 10:17 21,8 C 48 % 0,0 l/m 3,5 km/h (1 Bft) O 88 1 min 0 min 0,000 mm 3,7 UV-I 538 W/m 10,3 C 21,7 C 6,4 km/h (2 Bft) 100,00 %
02.06.2020 10:16 21,7 C 47 % 0,0 l/m 2,5 km/h (1 Bft) O 85 1 min 0 min 0,000 mm 3,6 UV-I 538 W/m 9,9 C 21,7 C 4,8 km/h (1 Bft) 95,65 %
02.06.2020 10:15 21,7 C 47 % 0,0 l/m 4,8 km/h (1 Bft) O 96 1 min 0 min 0,000 mm 3,6 UV-I 537 W/m 9,9 C 21,6 C 6,4 km/h (2 Bft) 100,00 %
02.06.2020 10:14 21,6 C 47 % 0,0 l/m 4,0 km/h (1 Bft) O-SO 123 1 min 0 min 0,000 mm 3,6 UV-I 536 W/m 9,8 C 21,6 C 9,7 km/h (2 Bft) 95,83 %
02.06.2020 10:13 21,6 C 46 % 0,0 l/m 2,1 km/h (1 Bft) SO 140 1 min 0 min 0,000 mm 3,6 UV-I 536 W/m 9,5 C 21,6 C 4,8 km/h (1 Bft) 100,00 %
02.06.2020 10:12 21,6 C 46 % 0,0 l/m 6,0 km/h (2 Bft) O 98 2 min 0 min 0,000 mm 3,6 UV-I 537 W/m 9,5 C 21,4 C 11,3 km/h (2 Bft) 98,00 %
02.06.2020 10:10 21,4 C 46 % 0,0 l/m 10,5 km/h (2 Bft) O 95 1 min 0 min 0,000 mm 3,5 UV-I 539 W/m 9,3 C 21,4 C 12,9 km/h (3 Bft) 100,00 %
02.06.2020 10:09 21,4 C 47 % 0,0 l/m 9,4 km/h (2 Bft) O 90 1 min 0 min 0,000 mm 3,5 UV-I 539 W/m 9,6 C 21,4 C 16,1 km/h (3 Bft) 100,00 %
02.06.2020 10:08 21,4 C 46 % 0,0 l/m 9,5 km/h (2 Bft) NO 55 1 min 0 min 0,000 mm 3,4 UV-I 499 W/m 9,3 C 21,3 C 12,9 km/h (3 Bft) 100,00 %
02.06.2020 10:07 21,4 C 46 % 0,0 l/m 9,2 km/h (2 Bft) O-NO 78 1 min 0 min 0,000 mm 3,4 UV-I 512 W/m 9,3 C 21,3 C 14,5 km/h (3 Bft) 100,00 %
02.06.2020 10:06 21,3 C 45 % 0,0 l/m 9,1 km/h (2 Bft) SO 140 1 min 0 min 0,000 mm 3,4 UV-I 521 W/m 8,9 C 21,3 C 14,5 km/h (3 Bft) 100,00 %
02.06.2020 10:05 21,3 C 48 % 0,0 l/m 7,8 km/h (2 Bft) O 89 1 min 0 min 0,000 mm 3,3 UV-I 522 W/m 9,8 C 21,2 C 11,3 km/h (2 Bft) 100,00 %
02.06.2020 10:04 21,2 C 48 % 0,0 l/m 3,8 km/h (1 Bft) O 97 1 min 0 min 0,000 mm 3,4 UV-I 539 W/m 9,7 C 21,2 C 6,4 km/h (2 Bft) 100,00 %
02.06.2020 10:03 21,2 C 48 % 0,0 l/m 5,8 km/h (2 Bft) O 83 1 min 0 min 0,000 mm 3,3 UV-I 551 W/m 9,7 C 21,1 C 8,0 km/h (2 Bft) 100,00 %
02.06.2020 10:02 21,1 C 47 % 0,0 l/m 5,0 km/h (1 Bft) O 88 2 min 0 min 0,330 mm 3,3 UV-I 552 W/m 9,3 C 21,0 C 11,3 km/h (2 Bft) 100,00 %
02.06.2020 10:00 21,0 C 48 % 0,0 l/m 8,3 km/h (2 Bft) O 96 1 min 0 min 0,000 mm 3,3 UV-I 554 W/m 9,6 C 20,9 C 12,9 km/h (3 Bft) 100,00 %
02.06.2020 09:59 20,9 C 49 % 0,0 l/m 4,0 km/h (1 Bft) O-SO 113 1 min 0 min 0,000 mm 3,3 UV-I 556 W/m 9,8 C 20,9 C 6,4 km/h (2 Bft) 100,00 %
02.06.2020 09:58 20,9 C 49 % 0,0 l/m 5,6 km/h (2 Bft) O-SO 105 1 min 0 min 0,000 mm 3,2 UV-I 558 W/m 9,8 C 20,8 C 9,7 km/h (2 Bft) 100,00 %
02.06.2020 09:57 20,8 C 49 % 0,0 l/m 7,2 km/h (2 Bft) O 98 1 min 0 min 0,000 mm 3,2 UV-I 559 W/m 9,7 C 20,8 C 11,3 km/h (2 Bft) 100,00 %
02.06.2020 09:56 20,8 C 49 % 0,0 l/m 7,0 km/h (2 Bft) O 101 1 min 0 min 0,000 mm 3,2 UV-I 561 W/m 9,7 C 20,8 C 12,9 km/h (3 Bft) 95,65 %
02.06.2020 09:55 20,8 C 49 % 0,0 l/m 7,8 km/h (2 Bft) O-SO 105 1 min 0 min 0,000 mm 3,2 UV-I 564 W/m 9,7 C 20,7 C 14,5 km/h (3 Bft) 100,00 %
02.06.2020 09:54 20,7 C 49 % 0,0 l/m 7,3 km/h (2 Bft) O-SO 107 1 min 0 min 0,000 mm 3,1 UV-I 565 W/m 9,6 C 20,7 C 11,3 km/h (2 Bft) 100,00 %
02.06.2020 09:53 20,7 C 50 % 0,0 l/m 5,4 km/h (2 Bft) O-SO 115 1 min 0 min 0,000 mm 3,1 UV-I 567 W/m 9,9 C 20,6 C 6,4 km/h (2 Bft) 100,00 %
02.06.2020 09:52 20,6 C 48 % 0,0 l/m 7,3 km/h (2 Bft) O 86 2 min 0 min 0,000 mm 3,1 UV-I 570 W/m 9,2 C 20,5 C 11,3 km/h (2 Bft) 97,96 %
02.06.2020 09:50 20,5 C 50 % 0,0 l/m 7,0 km/h (2 Bft) O 92 1 min 0 min 0,000 mm 3,1 UV-I 573 W/m 9,7 C 20,4 C 11,3 km/h (2 Bft) 100,00 %
02.06.2020 09:49 20,4 C 51 % 0,0 l/m 7,0 km/h (2 Bft) O 98 1 min 0 min 0,000 mm 3,1 UV-I 573 W/m 9,9 C 20,3 C 14,5 km/h (3 Bft) 95,65 %
02.06.2020 09:48 20,3 C 51 % 0,0 l/m 8,2 km/h (2 Bft) SO 132 1 min 0 min 0,000 mm 3,0 UV-I 574 W/m 9,8 C 20,2 C 12,9 km/h (3 Bft) 100,00 %
02.06.2020 09:47 20,2 C 51 % 0,0 l/m 7,8 km/h (2 Bft) O 92 1 min 0 min 0,000 mm 3,0 UV-I 576 W/m 9,7 C 20,2 C 12,9 km/h (3 Bft) 92,86 %
02.06.2020 09:46 20,2 C 51 % 0,0 l/m 6,4 km/h (2 Bft) SO 125 1 min 0 min 0,000 mm 3,0 UV-I 577 W/m 9,7 C 20,1 C 9,7 km/h (2 Bft) 100,00 %
02.06.2020 09:45 20,1 C 52 % 0,0 l/m 7,9 km/h (2 Bft) O-SO 109 1 min 0 min 0,000 mm 3,0 UV-I 578 W/m 9,9 C 20,1 C 14,5 km/h (3 Bft) 95,65 %
02.06.2020 09:44 20,1 C 52 % 0,0 l/m 7,6 km/h (2 Bft) O 98 1 min 0 min 0,000 mm 2,9 UV-I 578 W/m 9,9 C 20,0 C 11,3 km/h (2 Bft) 100,00 %
02.06.2020 09:43 20,0 C 52 % 0,0 l/m 7,4 km/h (2 Bft) O 99 1 min 0 min 0,000 mm 2,9 UV-I 578 W/m 9,8 C 19,9 C 11,3 km/h (2 Bft) 100,00 %
02.06.2020 09:42 19,9 C 53 % 0,0 l/m 5,4 km/h (2 Bft) O-NO 69 2 min 0 min 0,000 mm 2,9 UV-I 578 W/m 10,0 C 19,8 C 12,9 km/h (3 Bft) 98,00 %
02.06.2020 09:40 19,8 C 52 % 0,0 l/m 8,0 km/h (2 Bft) O 91 1 min 0 min 0,000 mm 2,9 UV-I 578 W/m 9,7 C 19,7 C 16,1 km/h (3 Bft) 96,55 %
02.06.2020 09:39 19,7 C 53 % 0,0 l/m 7,6 km/h (2 Bft) O-NO 62 1 min 0 min 0,000 mm 2,8 UV-I 577 W/m 9,8 C 19,7 C 11,3 km/h (2 Bft) 100,00 %
02.06.2020 09:38 19,7 C 52 % 0,0 l/m 4,7 km/h (1 Bft) O-NO 73 1 min 0 min 0,000 mm 2,8 UV-I 577 W/m 9,6 C 19,6 C 11,3 km/h (2 Bft) 91,67 %
02.06.2020 09:37 19,6 C 53 % 0,0 l/m 4,3 km/h (1 Bft) O 94 1 min 0 min 0,000 mm 2,8 UV-I 575 W/m 9,8 C 19,5 C 9,7 km/h (2 Bft) 100,00 %
02.06.2020 09:36 19,5 C 52 % 0,0 l/m 7,8 km/h (2 Bft) NO 43 1 min 0 min 0,000 mm 2,8 UV-I 574 W/m 9,4 C 19,4 C 12,9 km/h (3 Bft) 95,65 %
02.06.2020 09:35 19,4 C 53 % 0,0 l/m 5,9 km/h (2 Bft) O 88 1 min 0 min 0,000 mm 2,7 UV-I 571 W/m 9,6 C 19,4 C 14,5 km/h (3 Bft) 100,00 %
02.06.2020 09:34 19,4 C 53 % 0,0 l/m 4,6 km/h (1 Bft) O-SO 107 1 min 0 min 0,000 mm 2,7 UV-I 570 W/m 9,6 C 19,3 C 8,0 km/h (2 Bft) 97,56 %
02.06.2020 09:33 19,3 C 53 % 0,0 l/m 6,4 km/h (2 Bft) O 94 1 min 0 min 0,000 mm 2,7 UV-I 568 W/m 9,5 C 19,2 C 9,7 km/h (2 Bft) 93,33 %
02.06.2020 09:32 19,2 C 53 % 0,0 l/m 8,5 km/h (2 Bft) O 91 2 min 0 min 0,000 mm 2,7 UV-I 565 W/m 9,4 C 19,1 C 16,1 km/h (3 Bft) 97,87 %
02.06.2020 09:30 19,1 C 54 % 0,0 l/m 8,4 km/h (2 Bft) O 84 1 min 0 min 0,000 mm 2,7 UV-I 560 W/m 9,6 C 19,0 C 12,9 km/h (3 Bft) 100,00 %
02.06.2020 09:29 19,0 C 55 % 0,0 l/m 3,1 km/h (1 Bft) O-NO 73 1 min 0 min 0,000 mm 2,6 UV-I 556 W/m 9,8 C 18,9 C 6,4 km/h (2 Bft) 95,83 %
02.06.2020 09:28 18,9 C 55 % 0,0 l/m 4,6 km/h (1 Bft) O-NO 72 1 min 0 min 0,000 mm 2,6 UV-I 554 W/m 9,7 C 18,9 C 6,4 km/h (2 Bft) 100,00 %
02.06.2020 09:27 18,9 C 55 % 0,0 l/m 0,7 km/h (0 Bft) O-SO 102 1 min 0 min 0,000 mm 2,6 UV-I 551 W/m 9,7 C 18,8 C 3,2 km/h (1 Bft) 96,30 %
02.06.2020 09:26 18,8 C 56 % 0,0 l/m 3,7 km/h (1 Bft) O 101 1 min 0 min 0,000 mm 2,6 UV-I 550 W/m 9,8 C 18,8 C 4,8 km/h (1 Bft) 100,00 %
02.06.2020 09:25 18,8 C 55 % 0,0 l/m 3,7 km/h (1 Bft) O 86 1 min 0 min 0,000 mm 2,5 UV-I 546 W/m 9,6 C 18,7 C 8,0 km/h (2 Bft) 95,65 %
02.06.2020 09:24 18,7 C 56 % 0,0 l/m 3,6 km/h (1 Bft) O-SO 110 1 min 0 min 0,000 mm 2,5 UV-I 544 W/m 9,7 C 18,6 C 4,8 km/h (1 Bft) 93,33 %
02.06.2020 09:23 18,6 C 54 % 0,0 l/m 1,1 km/h (1 Bft) O-SO 107 1 min 0 min 0,000 mm 2,5 UV-I 531 W/m 9,1 C 18,6 C 1,6 km/h (1 Bft) 96,15 %
02.06.2020 09:22 18,6 C 54 % 0,0 l/m 4,3 km/h (1 Bft) O-SO 104 2 min 0 min 0,000 mm 2,4 UV-I 519 W/m 9,1 C 18,4 C 9,7 km/h (2 Bft) 94,34 %
02.06.2020 09:20 18,4 C 54 % 0,0 l/m 5,1 km/h (1 Bft) SO 132 1 min 0 min 0,000 mm 2,4 UV-I 504 W/m 8,9 C 18,3 C 6,4 km/h (2 Bft) 95,83 %
02.06.2020 09:19 18,3 C 54 % 0,0 l/m 3,8 km/h (1 Bft) SO 132 1 min 0 min 0,000 mm 2,4 UV-I 498 W/m 8,8 C 18,3 C 6,4 km/h (2 Bft) 95,65 %
02.06.2020 09:18 18,3 C 56 % 0,0 l/m 6,9 km/h (2 Bft) O-NO 65 1 min 0 min 0,000 mm 2,4 UV-I 490 W/m 9,4 C 18,2 C 8,0 km/h (2 Bft) 100,00 %
02.06.2020 09:17 18,2 C 56 % 0,0 l/m 4,0 km/h (1 Bft) O 99 1 min 0 min 0,000 mm 2,4 UV-I 489 W/m 9,3 C 18,1 C 11,3 km/h (2 Bft) 100,00 %
02.06.2020 09:16 18,1 C 56 % 0,0 l/m 1,5 km/h (1 Bft) SO 142 1 min 0 min 0,000 mm 2,3 UV-I 478 W/m 9,2 C 18,1 C 3,2 km/h (1 Bft) 100,00 %
02.06.2020 09:15 18,1 C 55 % 0,0 l/m 2,9 km/h (1 Bft) SO 142 1 min 0 min 0,000 mm 2,3 UV-I 460 W/m 8,9 C 18,0 C 4,8 km/h (1 Bft) 100,00 %
02.06.2020 09:14 18,0 C 55 % 0,0 l/m 4,7 km/h (1 Bft) NO 44 1 min 0 min 0,000 mm 2,3 UV-I 453 W/m 8,8 C 17,9 C 9,7 km/h (2 Bft) 100,00 %
02.06.2020 09:13 17,9 C 56 % 0,0 l/m 4,2 km/h (1 Bft) O-SO 114 1 min 0 min 0,000 mm 2,2 UV-I 437 W/m 9,0 C 17,8 C 6,4 km/h (2 Bft) 97,56 %
02.06.2020 09:12 17,8 C 56 % 0,0 l/m 5,4 km/h (2 Bft) O-SO 103 2 min 0 min 0,000 mm 2,2 UV-I 427 W/m 8,9 C 17,7 C 9,7 km/h (2 Bft) 100,00 %
02.06.2020 09:10 17,7 C 57 % 0,0 l/m 7,0 km/h (2 Bft) SO 134 1 min 0 min 0,000 mm 2,2 UV-I 426 W/m 9,1 C 17,6 C 11,3 km/h (2 Bft) 100,00 %
02.06.2020 09:09 17,6 C 58 % 0,0 l/m 2,3 km/h (1 Bft) O 94 1 min 0 min 0,000 mm 2,2 UV-I 423 W/m 9,2 C 17,5 C 3,2 km/h (1 Bft) 100,00 %
02.06.2020 09:08 17,5 C 58 % 0,0 l/m 4,0 km/h (1 Bft) O 94 1 min 0 min 0,000 mm 2,2 UV-I 418 W/m 9,1 C 17,4 C 6,4 km/h (2 Bft) 100,00 %
02.06.2020 09:07 17,4 C 57 % 0,0 l/m 4,4 km/h (1 Bft) O 85 1 min 0 min 0,000 mm 2,2 UV-I 411 W/m 8,8 C 17,3 C 8,0 km/h (2 Bft) 100,00 %
02.06.2020 09:06 17,3 C 57 % 0,0 l/m 1,7 km/h (1 Bft) O 82 1 min 0 min 0,000 mm 2,2 UV-I 413 W/m 8,7 C 17,3 C 8,0 km/h (2 Bft) 100,00 %
02.06.2020 09:05 17,3 C 57 % 0,0 l/m 0,6 km/h (0 Bft) SO 143 1 min 0 min 0,000 mm 2,2 UV-I 412 W/m 8,7 C 17,2 C 1,6 km/h (1 Bft) 100,00 %
02.06.2020 09:04 17,2 C 57 % 0,0 l/m 4,4 km/h (1 Bft) SO 143 2 min 0 min 0,000 mm 2,1 UV-I 406 W/m 8,6 C 17,1 C 11,3 km/h (2 Bft) 100,00 %
02.06.2020 09:02 17,1 C 59 % 0,0 l/m 3,7 km/h (1 Bft) O-SO 120 2 min 0 min 0,178 mm 2,1 UV-I 397 W/m 9,0 C 16,9 C 9,7 km/h (2 Bft) 100,00 %
02.06.2020 09:00 16,9 C 58 % 0,0 l/m 2,0 km/h (1 Bft) SO 130 1 min 0 min 0,000 mm 2,0 UV-I 390 W/m 8,6 C 16,9 C 3,2 km/h (1 Bft) 100,00 %
02.06.2020 08:59 16,9 C 59 % 0,0 l/m 2,3 km/h (1 Bft) SO 130 1 min 0 min 0,000 mm 1,8 UV-I 387 W/m 8,8 C 16,8 C 3,2 km/h (1 Bft) 100,00 %
02.06.2020 08:58 16,8 C 58 % 0,0 l/m 2,2 km/h (1 Bft) O 93 1 min 0 min 0,000 mm 1,9 UV-I 385 W/m 8,5 C 16,8 C 3,2 km/h (1 Bft) 100,00 %
02.06.2020 08:57 16,8 C 58 % 0,0 l/m 2,5 km/h (1 Bft) O-NO 70 1 min 0 min 0,000 mm 2,0 UV-I 385 W/m 8,5 C 16,7 C 6,4 km/h (2 Bft) 100,00 %
02.06.2020 08:56 16,7 C 59 % 0,0 l/m 5,4 km/h (2 Bft) O 81 1 min 0 min 0,000 mm 2,0 UV-I 383 W/m 8,6 C 16,6 C 8,0 km/h (2 Bft) 100,00 %
02.06.2020 08:55 16,6 C 60 % 0,0 l/m 5,2 km/h (1 Bft) O-SO 109 1 min 0 min 0,000 mm 2,0 UV-I 383 W/m 8,8 C 16,6 C 11,3 km/h (2 Bft) 100,00 %
02.06.2020 08:54 16,6 C 59 % 0,0 l/m 5,9 km/h (2 Bft) O-SO 123 1 min 0 min 0,000 mm 1,9 UV-I 384 W/m 8,6 C 16,5 C 11,3 km/h (2 Bft) 96,30 %
02.06.2020 08:53 16,5 C 59 % 0,0 l/m 3,0 km/h (1 Bft) O-SO 122 1 min 0 min 0,000 mm 1,9 UV-I 385 W/m 8,5 C 16,4 C 6,4 km/h (2 Bft) 100,00 %
02.06.2020 08:52 16,4 C 58 % 0,0 l/m 2,5 km/h (1 Bft) SO 126 2 min 0 min 0,000 mm 1,9 UV-I 385 W/m 8,1 C 16,2 C 4,8 km/h (1 Bft) 97,56 %
02.06.2020 08:50 16,2 C 61 % 0,0 l/m 2,2 km/h (1 Bft) SO 128 1 min 0 min 0,000 mm 1,8 UV-I 335 W/m 8,7 C 16,2 C 4,8 km/h (1 Bft) 96,55 %
02.06.2020 08:49 16,2 C 60 % 0,0 l/m 3,0 km/h (1 Bft) SO 132 1 min 0 min 0,000 mm 1,8 UV-I 315 W/m 8,4 C 16,1 C 3,2 km/h (1 Bft) 96,30 %
02.06.2020 08:48 16,1 C 61 % 0,0 l/m 3,0 km/h (1 Bft) SO 130 1 min 0 min 0,000 mm 1,8 UV-I 363 W/m 8,6 C 16,1 C 4,8 km/h (1 Bft) 100,00 %
02.06.2020 08:47 16,1 C 62 % 0,0 l/m 2,8 km/h (1 Bft) SO 130 1 min 0 min 0,000 mm 1,8 UV-I 394 W/m 8,8 C 16,0 C 4,8 km/h (1 Bft) 100,00 %
02.06.2020 08:46 16,0 C 62 % 0,0 l/m 2,1 km/h (1 Bft) SO 130 1 min 0 min 0,000 mm 1,8 UV-I 397 W/m 8,7 C 15,9 C 3,2 km/h (1 Bft) 100,00 %
02.06.2020 08:45 15,9 C 62 % 0,0 l/m 4,3 km/h (1 Bft) SO 130 1 min 0 min 0,000 mm 1,7 UV-I 399 W/m 8,6 C 15,8 C 4,8 km/h (1 Bft) 100,00 %
02.06.2020 08:44 15,8 C 61 % 0,0 l/m 0,6 km/h (0 Bft) O 94 1 min 0 min 0,000 mm 1,7 UV-I 401 W/m 8,3 C 15,8 C 4,8 km/h (1 Bft) 100,00 %
02.06.2020 08:43 15,8 C 61 % 0,0 l/m 1,2 km/h (1 Bft) O 95 1 min 0 min 0,000 mm 1,7 UV-I 403 W/m 8,3 C 15,7 C 1,6 km/h (1 Bft) 100,00 %
02.06.2020 08:42 15,7 C 62 % 0,0 l/m 2,6 km/h (1 Bft) O 96 2 min 0 min 0,000 mm 1,7 UV-I 406 W/m 8,4 C 15,6 C 4,8 km/h (1 Bft) 100,00 %
02.06.2020 08:40 15,6 C 63 % 0,0 l/m 0,8 km/h (0 Bft) O-NO 78 1 min 0 min 0,000 mm 1,6 UV-I 408 W/m 8,6 C 15,6 C 3,2 km/h (1 Bft) 100,00 %
02.06.2020 08:39 15,6 C 62 % 0,0 l/m 3,6 km/h (1 Bft) O-NO 78 1 min 0 min 0,000 mm 1,6 UV-I 410 W/m 8,3 C 15,5 C 6,4 km/h (2 Bft) 100,00 %
02.06.2020 08:38 15,5 C 62 % 0,0 l/m 3,8 km/h (1 Bft) O-NO 63 1 min 0 min 0,000 mm 1,6 UV-I 410 W/m 8,3 C 15,4 C 6,4 km/h (2 Bft) 100,00 %
02.06.2020 08:37 15,4 C 63 % 0,0 l/m 3,6 km/h (1 Bft) O-SO 103 1 min 0 min 0,000 mm 1,6 UV-I 410 W/m 8,4 C 15,3 C 4,8 km/h (1 Bft) 100,00 %
02.06.2020 08:36 15,3 C 63 % 0,0 l/m 2,1 km/h (1 Bft) O-NO 70 1 min 0 min 0,000 mm 1,6 UV-I 410 W/m 8,3 C 15,3 C 4,8 km/h (1 Bft) 96,55 %
02.06.2020 08:35 15,3 C 63 % 0,0 l/m 3,9 km/h (1 Bft) NO 36 1 min 0 min 0,000 mm 1,5 UV-I 408 W/m 8,3 C 15,2 C 6,4 km/h (2 Bft) 100,00 %
02.06.2020 08:34 15,2 C 63 % 0,0 l/m 6,7 km/h (2 Bft) NO 50 1 min 0 min 0,000 mm 1,5 UV-I 406 W/m 8,2 C 15,2 C 11,3 km/h (2 Bft) 100,00 %
02.06.2020 08:33 15,2 C 63 % 0,0 l/m 1,3 km/h (1 Bft) O-SO 123 1 min 0 min 0,000 mm 1,5 UV-I 403 W/m 8,2 C 15,1 C 1,6 km/h (1 Bft) 100,00 %
02.06.2020 08:32 15,1 C 63 % 0,0 l/m 2,7 km/h (1 Bft) O-SO 123 2 min 0 min 0,000 mm 1,5 UV-I 395 W/m 8,1 C 15,1 C 4,8 km/h (1 Bft) 100,00 %
02.06.2020 08:30 15,1 C 64 % 0,0 l/m 0,7 km/h (0 Bft) SO 128 1 min 0 min 0,000 mm 1,4 UV-I 387 W/m 8,3 C 15,0 C 1,6 km/h (1 Bft) 100,00 %
02.06.2020 08:29 15,0 C 63 % 0,0 l/m 2,2 km/h (1 Bft) SO 128 1 min 0 min 0,000 mm 1,4 UV-I 387 W/m 8,0 C 14,9 C 3,2 km/h (1 Bft) 100,00 %
02.06.2020 08:28 14,9 C 63 % 0,0 l/m 0,9 km/h (0 Bft) O-SO 117 1 min 0 min 0,000 mm 1,4 UV-I 387 W/m 7,9 C 14,9 C 1,6 km/h (1 Bft) 100,00 %
02.06.2020 08:27 14,9 C 64 % 0,0 l/m 1,7 km/h (1 Bft) O-SO 116 1 min 0 min 0,000 mm 1,4 UV-I 387 W/m 8,2 C 14,8 C 3,2 km/h (1 Bft) 91,30 %
02.06.2020 08:26 14,8 C 63 % 0,0 l/m 0,8 km/h (0 Bft) O-SO 116 1 min 0 min 0,000 mm 1,4 UV-I 384 W/m 7,8 C 14,8 C 1,6 km/h (1 Bft) 96,15 %
02.06.2020 08:25 14,8 C 63 % 0,0 l/m 1,3 km/h (1 Bft) O-SO 116 1 min 0 min 0,000 mm 1,3 UV-I 356 W/m 7,8 C 14,7 C 3,2 km/h (1 Bft) 100,00 %
02.06.2020 08:24 14,7 C 64 % 0,0 l/m 3,6 km/h (1 Bft) O-SO 116 0 min 0 min 0,000 mm 1,1 UV-I 183 W/m 8,0 C 14,7 C 4,8 km/h (1 Bft) 91,30 %
02.06.2020 08:23 14,7 C 64 % 0,0 l/m 5,2 km/h (1 Bft) S-SO 147 0 min 0 min 0,000 mm 1,2 UV-I 76 W/m 8,0 C 14,7 C 6,4 km/h (2 Bft) 100,00 %
02.06.2020 08:22 14,7 C 65 % 0,0 l/m 2,9 km/h (1 Bft) O 84 0 min 0 min 0,000 mm 1,0 UV-I 61 W/m 8,2 C 14,5 C 4,8 km/h (1 Bft) 95,08 %
02.06.2020 08:20 14,5 C 64 % 0,0 l/m 4,9 km/h (1 Bft) SO 142 0 min 0 min 0,000 mm 1,0 UV-I 61 W/m 7,8 C 14,4 C 6,4 km/h (2 Bft) 91,67 %
02.06.2020 08:19 14,4 C 65 % 0,0 l/m 1,6 km/h (1 Bft) W-NW 299 0 min 0 min 0,000 mm 1,0 UV-I 144 W/m 7,9 C 14,4 C 3,2 km/h (1 Bft) 95,65 %
02.06.2020 08:18 14,4 C 65 % 0,0 l/m 2,3 km/h (1 Bft) W-NW 300 1 min 0 min 0,000 mm 1,0 UV-I 241 W/m 7,9 C 14,3 C 4,8 km/h (1 Bft) 91,67 %
02.06.2020 08:17 14,3 C 66 % 0,0 l/m 3,0 km/h (1 Bft) N-NO 17 1 min 0 min 0,000 mm 1,0 UV-I 255 W/m 8,0 C 14,3 C 3,2 km/h (1 Bft) 95,65 %
02.06.2020 08:16 14,3 C 66 % 0,0 l/m 3,8 km/h (1 Bft) N-NO 12 0 min 0 min 0,000 mm 1,0 UV-I 118 W/m 8,0 C 14,2 C 4,8 km/h (1 Bft) 100,00 %
02.06.2020 08:15 14,2 C 66 % 0,0 l/m 1,6 km/h (1 Bft) N 5 0 min 0 min 0,000 mm 1,0 UV-I 91 W/m 7,9 C 14,2 C 3,2 km/h (1 Bft) 95,65 %
02.06.2020 08:14 14,2 C 66 % 0,0 l/m 4,8 km/h (1 Bft) N 5 0 min 0 min 0,000 mm 1,1 UV-I 104 W/m 7,9 C 14,1 C 8,0 km/h (2 Bft) 100,00 %
02.06.2020 08:13 14,1 C 67 % 0,0 l/m 2,0 km/h (1 Bft) O 88 0 min 0 min 0,000 mm 1,1 UV-I 172 W/m 8,1 C 14,1 C 3,2 km/h (1 Bft) 92,31 %
02.06.2020 08:12 14,1 C 67 % 0,0 l/m 1,9 km/h (1 Bft) O 86 2 min 0 min 0,000 mm 1,1 UV-I 314 W/m 8,1 C 13,9 C 4,8 km/h (1 Bft) 95,74 %
02.06.2020 08:10 13,9 C 68 % 0,0 l/m 1,7 km/h (1 Bft) O 85 1 min 0 min 0,000 mm 1,1 UV-I 338 W/m 8,1 C 13,9 C 3,2 km/h (1 Bft) 93,75 %
02.06.2020 08:09 13,9 C 68 % 0,0 l/m 4,0 km/h (1 Bft) O 84 1 min 0 min 0,000 mm 1,1 UV-I 338 W/m 8,1 C 13,9 C 6,4 km/h (2 Bft) 100,00 %
02.06.2020 08:08 13,9 C 68 % 0,0 l/m 5,4 km/h (2 Bft) O 101 1 min 0 min 0,000 mm 1,1 UV-I 335 W/m 8,1 C 13,8 C 8,0 km/h (2 Bft) 91,30 %
02.06.2020 08:07 13,8 C 68 % 0,0 l/m 4,1 km/h (1 Bft) O 95 1 min 0 min 0,000 mm 1,1 UV-I 333 W/m 8,0 C 13,7 C 6,4 km/h (2 Bft) 100,00 %
02.06.2020 08:06 13,7 C 68 % 0,0 l/m 4,4 km/h (1 Bft) NO 46 1 min 0 min 0,000 mm 1,0 UV-I 331 W/m 7,9 C 13,7 C 6,4 km/h (2 Bft) 95,83 %
02.06.2020 08:05 13,7 C 68 % 0,0 l/m 3,4 km/h (1 Bft) NO 54 1 min 0 min 0,000 mm 1,0 UV-I 328 W/m 7,9 C 13,6 C 6,4 km/h (2 Bft) 91,30 %
02.06.2020 08:04 13,6 C 69 % 0,0 l/m 6,6 km/h (2 Bft) NO 55 2 min 0 min 0,000 mm 0,8 UV-I 324 W/m 8,0 C 13,6 C 14,5 km/h (3 Bft) 97,87 %
02.06.2020 08:02 13,6 C 68 % 0,0 l/m 6,0 km/h (2 Bft) O-SO 117 2 min 0 min 0,000 mm 0,8 UV-I 270 W/m 7,8 C 13,4 C 11,3 km/h (2 Bft) 97,56 %
02.06.2020 08:00 13,4 C 69 % 0,0 l/m 2,4 km/h (1 Bft) O-NO 67 0 min 0 min 0,051 mm 0,8 UV-I 151 W/m 7,8 C 13,3 C 4,8 km/h (1 Bft) 100,00 %
02.06.2020 07:59 13,3 C 69 % 0,0 l/m 5,6 km/h (2 Bft) O-NO 76 0 min 0 min 0,000 mm 0,8 UV-I 103 W/m 7,7 C 13,3 C 12,9 km/h (3 Bft) 96,55 %
02.06.2020 07:58 13,3 C 69 % 0,0 l/m 5,9 km/h (2 Bft) O 90 0 min 0 min 0,000 mm 0,8 UV-I 75 W/m 7,7 C 13,2 C 11,3 km/h (2 Bft) 100,00 %
02.06.2020 07:57 13,2 C 69 % 0,0 l/m 9,4 km/h (2 Bft) O-NO 67 0 min 0 min 0,000 mm 0,5 UV-I 56 W/m 7,6 C 13,1 C 14,5 km/h (3 Bft) 100,00 %
02.06.2020 07:56 13,1 C 69 % 0,0 l/m 6,4 km/h (2 Bft) S-SO 150 0 min 0 min 0,000 mm 0,0 UV-I 52 W/m 7,5 C 13,1 C 11,3 km/h (2 Bft) 100,00 %
02.06.2020 07:55 13,1 C 70 % 0,0 l/m 2,0 km/h (1 Bft) O-SO 117 0 min 0 min 0,000 mm 0,0 UV-I 51 W/m 7,8 C 13,0 C 4,8 km/h (1 Bft) 100,00 %
02.06.2020 07:54 13,0 C 70 % 0,0 l/m 3,1 km/h (1 Bft) O-SO 108 0 min 0 min 0,000 mm 0,0 UV-I 51 W/m 7,7 C 12,9 C 4,8 km/h (1 Bft) 100,00 %
02.06.2020 07:53 12,9 C 70 % 0,0 l/m 3,0 km/h (1 Bft) O-SO 110 0 min 0 min 0,000 mm 0,0 UV-I 51 W/m 7,6 C 12,9 C 4,8 km/h (1 Bft) 100,00 %
02.06.2020 07:52 12,9 C 70 % 0,0 l/m 1,9 km/h (1 Bft) O-SO 114 0 min 0 min 0,000 mm 0,0 UV-I 49 W/m 7,6 C 12,8 C 4,8 km/h (1 Bft) 97,37 %
02.06.2020 07:50 12,8 C 70 % 0,0 l/m 1,2 km/h (1 Bft) O-SO 106 0 min 0 min 0,000 mm 0,0 UV-I 49 W/m 7,5 C 12,7 C 1,6 km/h (1 Bft) 95,83 %
02.06.2020 07:49 12,7 C 70 % 0,0 l/m 4,9 km/h (1 Bft) O-SO 105 0 min 0 min 0,000 mm 0,0 UV-I 49 W/m 7,4 C 12,7 C 11,3 km/h (2 Bft) 100,00 %
02.06.2020 07:48 12,7 C 71 % 0,0 l/m 7,3 km/h (2 Bft) O 101 0 min 0 min 0,000 mm 0,0 UV-I 49 W/m 7,6 C 12,6 C 12,9 km/h (3 Bft) 94,74 %
02.06.2020 07:46 12,6 C 71 % 0,0 l/m 6,1 km/h (2 Bft) O 80 0 min 0 min 0,000 mm 0,0 UV-I 49 W/m 7,5 C 12,5 C 12,9 km/h (3 Bft) 95,52 %
02.06.2020 07:45 12,5 C 71 % 0,0 l/m 3,2 km/h (1 Bft) O 82 0 min 0 min 0,000 mm 0,0 UV-I 47 W/m 7,4 C 12,4 C 6,4 km/h (2 Bft) 98,27 %
02.06.2020 07:44 12,4 C 72 % 0,0 l/m 5,6 km/h (2 Bft) O-SO 103 0 min 0 min 0,000 mm 0,4 UV-I 92 W/m 7,5 C 12,4 C 8,0 km/h (2 Bft) 100,00 %
02.06.2020 07:43 12,4 C 73 % 0,0 l/m 4,5 km/h (1 Bft) O 82 0 min 0 min 0,000 mm 0,7 UV-I 168 W/m 7,7 C 12,3 C 11,3 km/h (2 Bft) 100,00 %
02.06.2020 07:42 12,3 C 73 % 0,0 l/m 1,3 km/h (1 Bft) O-SO 118 0 min 0 min 0,000 mm 0,7 UV-I 124 W/m 7,6 C 12,2 C 3,2 km/h (1 Bft) 100,00 %
02.06.2020 07:40 12,2 C 73 % 0,0 l/m 3,1 km/h (1 Bft) O-SO 118 0 min 0 min 0,000 mm 0,0 UV-I 47 W/m 7,5 C 12,1 C 4,8 km/h (1 Bft) 100,00 %
02.06.2020 07:39 12,1 C 73 % 0,0 l/m 3,2 km/h (1 Bft) O-NO 65 0 min 0 min 0,000 mm 0,0 UV-I 47 W/m 7,4 C 12,1 C 6,4 km/h (2 Bft) 100,00 %
02.06.2020 07:38 12,1 C 74 % 0,0 l/m 8,6 km/h (2 Bft) O-NO 57 0 min 0 min 0,000 mm 0,0 UV-I 47 W/m 7,6 C 12,0 C 12,9 km/h (3 Bft) 100,00 %
02.06.2020 07:37 12,0 C 73 % 0,0 l/m 5,8 km/h (2 Bft) O-SO 106 0 min 0 min 0,000 mm 0,0 UV-I 46 W/m 7,3 C 11,9 C 9,7 km/h (2 Bft) 100,00 %
02.06.2020 07:36 11,9 C 74 % 0,0 l/m 7,4 km/h (2 Bft) O 101 0 min 0 min 0,000 mm 0,0 UV-I 46 W/m 7,4 C 11,9 C 11,3 km/h (2 Bft) 100,00 %
02.06.2020 07:35 11,9 C 75 % 0,0 l/m 6,0 km/h (2 Bft) NO 40 0 min 0 min 0,000 mm 0,0 UV-I 46 W/m 7,6 C 11,8 C 9,7 km/h (2 Bft) 100,00 %
02.06.2020 07:34 11,8 C 76 % 0,0 l/m 1,8 km/h (1 Bft) O 82 0 min 0 min 0,000 mm 0,0 UV-I 49 W/m 7,7 C 11,8 C 4,8 km/h (1 Bft) 100,00 %
02.06.2020 07:33 11,8 C 76 % 0,0 l/m 0,0 km/h (0 Bft) SW 215 0 min 0 min 0,000 mm 0,0 UV-I 50 W/m 7,7 C 11,8 C 0,0 km/h (0 Bft) 100,00 %
02.06.2020 07:32 11,8 C 76 % 0,0 l/m 0,0 km/h (0 Bft) SW 215 0 min 0 min 0,000 mm 0,5 UV-I 61 W/m 7,7 C 11,7 C 0,0 km/h (0 Bft) 100,00 %
02.06.2020 07:30 11,7 C 76 % 0,0 l/m 0,0 km/h (0 Bft) SW 215 0 min 0 min 0,000 mm 0,6 UV-I 62 W/m 7,6 C 11,7 C 0,0 km/h (0 Bft) 100,00 %
02.06.2020 07:29 11,7 C 76 % 0,0 l/m 0,0 km/h (0 Bft) SW 215 0 min 0 min 0,000 mm 0,0 UV-I 47 W/m 7,6 C 11,6 C 0,0 km/h (0 Bft) 100,00 %
02.06.2020 07:28 11,6 C 76 % 0,0 l/m 0,0 km/h (0 Bft) SW 215 0 min 0 min 0,000 mm 0,0 UV-I 46 W/m 7,5 C 11,6 C 0,0 km/h (0 Bft) 100,00 %
02.06.2020 07:27 11,6 C 76 % 0,0 l/m 0,0 km/h (0 Bft) SW 215 0 min 0 min 0,000 mm 0,0 UV-I 48 W/m 7,5 C 11,6 C 0,0 km/h (0 Bft) 100,00 %
02.06.2020 07:26 11,6 C 76 % 0,0 l/m 0,0 km/h (0 Bft) S 186 0 min 0 min 0,000 mm 0,4 UV-I 82 W/m 7,5 C 11,5 C 0,0 km/h (0 Bft) 95,65 %
02.06.2020 07:25 11,6 C 76 % 0,0 l/m 0,0 km/h (0 Bft) S 186 0 min 0 min 0,000 mm 0,5 UV-I 145 W/m 7,5 C 11,5 C 0,0 km/h (0 Bft) 100,00 %
02.06.2020 07:24 11,5 C 76 % 0,0 l/m 0,0 km/h (0 Bft) S 186 1 min 0 min 0,000 mm 0,5 UV-I 185 W/m 7,4 C 11,4 C 0,0 km/h (0 Bft) 100,00 %
02.06.2020 07:23 11,4 C 76 % 0,0 l/m 0,1 km/h (0 Bft) S 186 0 min 0 min 0,000 mm 0,5 UV-I 147 W/m 7,3 C 11,4 C 1,6 km/h (1 Bft) 100,00 %
02.06.2020 07:22 11,4 C 77 % 0,0 l/m 2,2 km/h (1 Bft) S 186 0 min 0 min 0,000 mm 0,2 UV-I 59 W/m 7,5 C 11,3 C 3,2 km/h (1 Bft) 100,00 %
02.06.2020 07:20 11,3 C 77 % 0,0 l/m 0,6 km/h (0 Bft) S-SW 201 0 min 0 min 0,000 mm 0,0 UV-I 42 W/m 7,4 C 11,3 C 1,6 km/h (1 Bft) 95,83 %
02.06.2020 07:19 11,3 C 77 % 0,0 l/m 1,8 km/h (1 Bft) S-SW 201 0 min 0 min 0,000 mm 0,0 UV-I 41 W/m 7,4 C 11,3 C 3,2 km/h (1 Bft) 100,00 %
02.06.2020 07:18 11,3 C 77 % 0,0 l/m 0,9 km/h (0 Bft) O-SO 123 0 min 0 min 0,000 mm 0,0 UV-I 40 W/m 7,4 C 11,3 C 1,6 km/h (1 Bft) 95,65 %
02.06.2020 07:17 11,3 C 78 % 0,0 l/m 1,2 km/h (1 Bft) O-SO 123 0 min 0 min 0,000 mm 0,0 UV-I 40 W/m 7,6 C 11,2 C 3,2 km/h (1 Bft) 100,00 %
02.06.2020 07:16 11,2 C 77 % 0,0 l/m 0,0 km/h (0 Bft) W 271 0 min 0 min 0,000 mm 0,0 UV-I 42 W/m 7,3 C 11,2 C 0,0 km/h (0 Bft) 96,15 %
02.06.2020 07:15 11,2 C 77 % 0,0 l/m 0,0 km/h (0 Bft) W 271 0 min 0 min 0,000 mm 0,0 UV-I 42 W/m 7,3 C 11,2 C 0,0 km/h (0 Bft) 100,00 %
02.06.2020 07:14 11,2 C 77 % 0,0 l/m 0,0 km/h (0 Bft) W 271 0 min 0 min 0,000 mm 0,0 UV-I 41 W/m 7,3 C 11,1 C 0,0 km/h (0 Bft) 96,15 %
02.06.2020 07:13 11,1 C 78 % 0,0 l/m 1,0 km/h (0 Bft) W 271 0 min 0 min 0,000 mm 0,0 UV-I 39 W/m 7,4 C 11,1 C 1,6 km/h (1 Bft) 100,00 %
02.06.2020 07:12 11,1 C 78 % 0,0 l/m 3,5 km/h (1 Bft) W 271 0 min 0 min 0,000 mm 0,0 UV-I 39 W/m 7,4 C 11,0 C 6,4 km/h (2 Bft) 95,12 %
02.06.2020 07:10 11,0 C 78 % 0,0 l/m 1,9 km/h (1 Bft) W-SW 254 0 min 0 min 0,000 mm 0,0 UV-I 39 W/m 7,3 C 11,0 C 3,2 km/h (1 Bft) 91,67 %
02.06.2020 07:09 11,0 C 78 % 0,0 l/m 1,9 km/h (1 Bft) W-SW 254 0 min 0 min 0,000 mm 0,0 UV-I 38 W/m 7,3 C 11,0 C 3,2 km/h (1 Bft) 100,00 %
02.06.2020 07:08 11,0 C 78 % 0,0 l/m 1,7 km/h (1 Bft) W-SW 254 0 min 0 min 0,000 mm 0,0 UV-I 37 W/m 7,3 C 10,9 C 3,2 km/h (1 Bft) 100,00 %
02.06.2020 07:07 10,9 C 78 % 0,0 l/m 3,5 km/h (1 Bft) W-SW 254 0 min 0 min 0,000 mm 0,0 UV-I 37 W/m 7,2 C 10,9 C 4,8 km/h (1 Bft) 93,33 %
02.06.2020 07:06 10,9 C 78 % 0,0 l/m 2,0 km/h (1 Bft) W-SW 254 0 min 0 min 0,000 mm 0,0 UV-I 37 W/m 7,2 C 10,8 C 3,2 km/h (1 Bft) 97,14 %
02.06.2020 07:05 10,8 C 78 % 0,0 l/m 2,5 km/h (1 Bft) W-SW 254 0 min 0 min 0,000 mm 0,0 UV-I 37 W/m 7,1 C 10,8 C 3,2 km/h (1 Bft) 100,00 %
02.06.2020 07:04 10,8 C 78 % 0,0 l/m 4,4 km/h (1 Bft) W-SW 254 0 min 0 min 0,000 mm 0,0 UV-I 35 W/m 7,1 C 10,8 C 4,8 km/h (1 Bft) 100,00 %
02.06.2020 07:03 10,8 C 78 % 0,0 l/m 3,0 km/h (1 Bft) W-SW 254 0 min 0 min 0,000 mm 0,0 UV-I 35 W/m 7,1 C 10,7 C 4,8 km/h (1 Bft) 95,83 %
02.06.2020 07:02 10,7 C 79 % 0,0 l/m 3,3 km/h (1 Bft) W-SW 255 0 min 0 min 0,001 mm 0,0 UV-I 35 W/m 7,2 C 10,7 C 4,8 km/h (1 Bft) 93,48 %
02.06.2020 07:00 10,7 C 78 % 0,0 l/m 2,9 km/h (1 Bft) W-SW 255 0 min 0 min 0,000 mm 0,0 UV-I 35 W/m 7,0 C 10,6 C 4,8 km/h (1 Bft) 95,83 %
02.06.2020 06:59 10,6 C 78 % 0,0 l/m 3,1 km/h (1 Bft) W-SW 255 0 min 0 min 0,000 mm 0,0 UV-I 35 W/m 6,9 C 10,6 C 4,8 km/h (1 Bft) 100,00 %
02.06.2020 06:58 10,6 C 78 % 0,0 l/m 3,0 km/h (1 Bft) W-SW 255 0 min 0 min 0,000 mm 0,0 UV-I 33 W/m 6,9 C 10,6 C 4,8 km/h (1 Bft) 95,83 %
02.06.2020 06:57 10,6 C 78 % 0,0 l/m 2,7 km/h (1 Bft) W-SW 255 0 min 0 min 0,000 mm 0,0 UV-I 33 W/m 6,9 C 10,5 C 3,2 km/h (1 Bft) 100,00 %
02.06.2020 06:56 10,5 C 78 % 0,0 l/m 4,5 km/h (1 Bft) W-SW 255 0 min 0 min 0,000 mm 0,0 UV-I 33 W/m 6,8 C 10,5 C 6,4 km/h (2 Bft) 95,65 %
02.06.2020 06:55 10,5 C 78 % 0,0 l/m 3,7 km/h (1 Bft) W 260 0 min 0 min 0,000 mm 0,0 UV-I 33 W/m 6,8 C 10,5 C 4,8 km/h (1 Bft) 100,00 %
02.06.2020 06:54 10,5 C 78 % 0,0 l/m 3,6 km/h (1 Bft) W 260 0 min 0 min 0,000 mm 0,0 UV-I 33 W/m 6,8 C 10,4 C 4,8 km/h (1 Bft) 96,88 %
02.06.2020 06:53 10,4 C 78 % 0,0 l/m 3,6 km/h (1 Bft) W 261 0 min 0 min 0,000 mm 0,0 UV-I 33 W/m 6,7 C 10,4 C 4,8 km/h (1 Bft) 100,00 %
02.06.2020 06:52 10,4 C 78 % 0,0 l/m 2,6 km/h (1 Bft) W 261 0 min 0 min 0,000 mm 0,0 UV-I 32 W/m 6,7 C 10,4 C 3,2 km/h (1 Bft) 92,00 %
02.06.2020 06:50 10,4 C 78 % 0,0 l/m 2,8 km/h (1 Bft) W 261 0 min 0 min 0,000 mm 0,0 UV-I 32 W/m 6,7 C 10,4 C 3,2 km/h (1 Bft) 100,00 %
02.06.2020 06:49 10,4 C 78 % 0,0 l/m 2,0 km/h (1 Bft) W 261 0 min 0 min 0,000 mm 0,0 UV-I 32 W/m 6,7 C 10,4 C 3,2 km/h (1 Bft) 95,83 %
02.06.2020 06:48 10,4 C 79 % 0,0 l/m 3,2 km/h (1 Bft) W 261 0 min 0 min 0,000 mm 0,0 UV-I 32 W/m 6,9 C 10,3 C 4,8 km/h (1 Bft) 100,00 %
02.06.2020 06:47 10,3 C 79 % 0,0 l/m 3,0 km/h (1 Bft) W 260 0 min 0 min 0,000 mm 0,0 UV-I 32 W/m 6,8 C 10,3 C 4,8 km/h (1 Bft) 95,65 %
02.06.2020 06:46 10,3 C 79 % 0,0 l/m 2,1 km/h (1 Bft) W 260 0 min 0 min 0,000 mm 0,0 UV-I 31 W/m 6,8 C 10,3 C 3,2 km/h (1 Bft) 100,00 %
02.06.2020 06:45 10,3 C 78 % 0,0 l/m 3,2 km/h (1 Bft) W 260 0 min 0 min 0,000 mm 0,0 UV-I 30 W/m 6,6 C 10,3 C 4,8 km/h (1 Bft) 100,00 %
02.06.2020 06:44 10,3 C 78 % 0,0 l/m 1,2 km/h (1 Bft) W 260 0 min 0 min 0,000 mm 0,0 UV-I 30 W/m 6,6 C 10,3 C 3,2 km/h (1 Bft) 100,00 %
02.06.2020 06:43 10,3 C 78 % 0,0 l/m 0,7 km/h (0 Bft) W 260 0 min 0 min 0,000 mm 0,0 UV-I 30 W/m 6,6 C 10,3 C 1,6 km/h (1 Bft) 100,00 %
02.06.2020 06:42 10,3 C 77 % 0,0 l/m 1,6 km/h (1 Bft) W 260 0 min 0 min 0,000 mm 0,0 UV-I 30 W/m 6,4 C 10,3 C 3,2 km/h (1 Bft) 100,00 %
02.06.2020 06:40 10,3 C 77 % 0,0 l/m 2,6 km/h (1 Bft) W 262 0 min 0 min 0,000 mm 0,0 UV-I 30 W/m 6,4 C 10,3 C 3,2 km/h (1 Bft) 96,15 %
02.06.2020 06:39 10,3 C 77 % 0,0 l/m 2,1 km/h (1 Bft) W 262 0 min 0 min 0,000 mm 0,0 UV-I 28 W/m 6,4 C 10,3 C 3,2 km/h (1 Bft) 100,00 %
02.06.2020 06:38 10,3 C 77 % 0,0 l/m 3,3 km/h (1 Bft) W 262 0 min 0 min 0,000 mm 0,0 UV-I 28 W/m 6,4 C 10,3 C 4,8 km/h (1 Bft) 95,65 %
02.06.2020 06:37 10,3 C 77 % 0,0 l/m 3,6 km/h (1 Bft) W-NW 290 0 min 0 min 0,000 mm 0,0 UV-I 28 W/m 6,4 C 10,3 C 4,8 km/h (1 Bft) 95,65 %
02.06.2020 06:36 10,3 C 77 % 0,0 l/m 1,0 km/h (0 Bft) W-NW 292 0 min 0 min 0,000 mm 0,0 UV-I 28 W/m 6,4 C 10,3 C 3,2 km/h (1 Bft) 100,00 %
02.06.2020 06:35 10,3 C 77 % 0,0 l/m 0,0 km/h (0 Bft) W-NW 292 0 min 0 min 0,000 mm 0,0 UV-I 28 W/m 6,4 C 10,3 C 0,0 km/h (0 Bft) 95,65 %
02.06.2020 06:34 10,3 C 77 % 0,0 l/m 0,0 km/h (0 Bft) W-NW 292 0 min 0 min 0,000 mm 0,0 UV-I 27 W/m 6,4 C 10,3 C 0,0 km/h (0 Bft) 100,00 %
02.06.2020 06:33 10,3 C 76 % 0,0 l/m 0,0 km/h (0 Bft) W-NW 292 0 min 0 min 0,000 mm 0,0 UV-I 26 W/m 6,3 C 10,3 C 0,0 km/h (0 Bft) 95,65 %
02.06.2020 06:32 10,4 C 76 % 0,0 l/m 0,3 km/h (0 Bft) W-NW 292 0 min 0 min 0,000 mm 0,0 UV-I 26 W/m 6,4 C 10,4 C 1,6 km/h (1 Bft) 94,74 %
02.06.2020 06:30 10,4 C 76 % 0,0 l/m 1,2 km/h (1 Bft) W-NW 292 0 min 0 min 0,000 mm 0,0 UV-I 26 W/m 6,4 C 10,4 C 1,6 km/h (1 Bft) 100,00 %
02.06.2020 06:29 10,4 C 76 % 0,0 l/m 2,0 km/h (1 Bft) W-NW 292 0 min 0 min 0,000 mm 0,0 UV-I 26 W/m 6,4 C 10,4 C 3,2 km/h (1 Bft) 100,00 %
02.06.2020 06:28 10,4 C 76 % 0,0 l/m 3,0 km/h (1 Bft) W-NW 292 0 min 0 min 0,000 mm 0,0 UV-I 26 W/m 6,4 C 10,4 C 4,8 km/h (1 Bft) 100,00 %
02.06.2020 06:27 10,4 C 75 % 0,0 l/m 2,8 km/h (1 Bft) W-NW 298 0 min 0 min 0,000 mm 0,0 UV-I 25 W/m 6,2 C 10,4 C 4,8 km/h (1 Bft) 100,00 %
02.06.2020 06:26 10,4 C 75 % 0,0 l/m 2,4 km/h (1 Bft) W-NW 298 0 min 0 min 0,000 mm 0,0 UV-I 25 W/m 6,2 C 10,4 C 3,2 km/h (1 Bft) 100,00 %
02.06.2020 06:25 10,4 C 75 % 0,0 l/m 1,8 km/h (1 Bft) W-NW 299 0 min 0 min 0,000 mm 0,0 UV-I 25 W/m 6,2 C 10,4 C 3,2 km/h (1 Bft) 100,00 %
02.06.2020 06:24 10,5 C 75 % 0,0 l/m 2,6 km/h (1 Bft) W-NW 299 0 min 0 min 0,000 mm 0,0 UV-I 25 W/m 6,3 C 10,5 C 3,2 km/h (1 Bft) 100,00 %
02.06.2020 06:23 10,5 C 75 % 0,0 l/m 1,1 km/h (1 Bft) W-NW 299 0 min 0 min 0,000 mm 0,0 UV-I 25 W/m 6,3 C 10,5 C 1,6 km/h (1 Bft) 100,00 %
02.06.2020 06:22 10,5 C 75 % 0,0 l/m 1,8 km/h (1 Bft) W-NW 299 0 min 0 min 0,000 mm 0,0 UV-I 24 W/m 6,3 C 10,5 C 4,8 km/h (1 Bft) 100,00 %
02.06.2020 06:20 10,6 C 75 % 0,0 l/m 3,0 km/h (1 Bft) W-NW 299 0 min 0 min 0,000 mm 0,0 UV-I 23 W/m 6,4 C 10,6 C 4,8 km/h (1 Bft) 100,00 %
02.06.2020 06:19 10,6 C 74 % 0,0 l/m 3,2 km/h (1 Bft) W-NW 299 0 min 0 min 0,000 mm 0,0 UV-I 23 W/m 6,2 C 10,6 C 4,8 km/h (1 Bft) 100,00 %
02.06.2020 06:18 10,6 C 74 % 0,0 l/m 3,3 km/h (1 Bft) NW 318 0 min 0 min 0,000 mm 0,0 UV-I 23 W/m 6,2 C 10,6 C 4,8 km/h (1 Bft) 100,00 %
02.06.2020 06:17 10,6 C 74 % 0,0 l/m 1,5 km/h (1 Bft) N-NO 22 0 min 0 min 0,000 mm 0,0 UV-I 23 W/m 6,2 C 10,6 C 3,2 km/h (1 Bft) 100,00 %
02.06.2020 06:16 10,7 C 74 % 0,0 l/m 0,0 km/h (0 Bft) N-NO 28 0 min 0 min 0,000 mm 0,0 UV-I 22 W/m 6,3 C 10,7 C 0,0 km/h (0 Bft) 100,00 %
02.06.2020 06:15 10,7 C 74 % 0,0 l/m 0,0 km/h (0 Bft) N-NO 28 0 min 0 min 0,000 mm 0,0 UV-I 21 W/m 6,3 C 10,7 C 0,0 km/h (0 Bft) 100,00 %
02.06.2020 06:14 10,7 C 73 % 0,0 l/m 0,0 km/h (0 Bft) N-NO 28 0 min 0 min 0,000 mm 0,0 UV-I 21 W/m 6,1 C 10,7 C 0,0 km/h (0 Bft) 100,00 %
02.06.2020 06:13 10,8 C 73 % 0,0 l/m 0,0 km/h (0 Bft) N-NO 28 0 min 0 min 0,000 mm 0,0 UV-I 21 W/m 6,2 C 10,8 C 0,0 km/h (0 Bft) 100,00 %
02.06.2020 06:12 10,8 C 73 % 0,0 l/m 0,0 km/h (0 Bft) N-NO 28 0 min 0 min 0,000 mm 0,0 UV-I 21 W/m 6,2 C 10,8 C 0,0 km/h (0 Bft) 100,00 %
02.06.2020 06:11 10,8 C 73 % 0,0 l/m 0,0 km/h (0 Bft) N-NO 27 0 min 0 min 0,000 mm 0,0 UV-I 21 W/m 6,2 C 10,8 C 1,6 km/h (1 Bft) 98,31 %
02.06.2020 06:09 10,9 C 73 % 0,0 l/m 1,5 km/h (1 Bft) N-NO 27 0 min 0 min 0,000 mm 0,0 UV-I 20 W/m 6,3 C 10,9 C 3,2 km/h (1 Bft) 100,00 %
02.06.2020 06:08 10,9 C 73 % 0,0 l/m 1,7 km/h (1 Bft) N-NO 27 0 min 0 min 0,000 mm 0,0 UV-I 19 W/m 6,3 C 10,9 C 3,2 km/h (1 Bft) 100,00 %
02.06.2020 06:07 10,9 C 72 % 0,0 l/m 2,5 km/h (1 Bft) N-NO 23 0 min 0 min 0,000 mm 0,0 UV-I 19 W/m 6,1 C 10,9 C 6,4 km/h (2 Bft) 95,65 %
02.06.2020 06:06 11,0 C 72 % 0,0 l/m 1,3 km/h (1 Bft) S-SW 195 0 min 0 min 0,000 mm 0,0 UV-I 19 W/m 6,2 C 11,0 C 3,2 km/h (1 Bft) 100,00 %
02.06.2020 06:05 11,0 C 72 % 0,0 l/m 0,4 km/h (0 Bft) S-SW 195 0 min 0 min 0,000 mm 0,0 UV-I 19 W/m 6,2 C 11,0 C 1,6 km/h (1 Bft) 100,00 %
02.06.2020 06:04 11,1 C 72 % 0,0 l/m 0,6 km/h (0 Bft) S-SW 195 0 min 0 min 0,000 mm 0,0 UV-I 19 W/m 6,2 C 11,1 C 1,6 km/h (1 Bft) 100,00 %
02.06.2020 06:02 11,2 C 72 % 0,0 l/m 1,5 km/h (1 Bft) S-SW 195 0 min 0 min 0,000 mm 0,0 UV-I 18 W/m 6,3 C 11,1 C 3,2 km/h (1 Bft) 96,23 %
02.06.2020 06:00 11,2 C 71 % 0,0 l/m 0,8 km/h (0 Bft) S-SW 195 0 min 0 min 0,000 mm 0,0 UV-I 18 W/m 6,1 C 11,2 C 1,6 km/h (1 Bft) 100,00 %
02.06.2020 05:59 11,2 C 71 % 0,0 l/m 1,5 km/h (1 Bft) S-SW 195 0 min 0 min 0,000 mm 0,0 UV-I 18 W/m 6,1 C 11,2 C 3,2 km/h (1 Bft) 96,55 %
02.06.2020 05:58 11,3 C 71 % 0,0 l/m 1,0 km/h (0 Bft) S-SW 195 0 min 0 min 0,000 mm 0,0 UV-I 18 W/m 6,2 C 11,3 C 1,6 km/h (1 Bft) 100,00 %
02.06.2020 05:57 11,3 C 71 % 0,0 l/m 1,4 km/h (1 Bft) S-SW 195 0 min 0 min 0,000 mm 0,0 UV-I 18 W/m 6,2 C 11,3 C 1,6 km/h (1 Bft) 96,15 %
02.06.2020 05:56 11,4 C 71 % 0,0 l/m 2,4 km/h (1 Bft) S-SW 195 0 min 0 min 0,000 mm 0,0 UV-I 16 W/m 6,3 C 11,4 C 3,2 km/h (1 Bft) 100,00 %
02.06.2020 05:55 11,4 C 71 % 0,0 l/m 1,1 km/h (1 Bft) S-SW 195 0 min 0 min 0,000 mm 0,0 UV-I 16 W/m 6,3 C 11,4 C 3,2 km/h (1 Bft) 95,83 %
02.06.2020 05:54 11,4 C 71 % 0,0 l/m 3,8 km/h (1 Bft) S-SW 195 0 min 0 min 0,000 mm 0,0 UV-I 16 W/m 6,3 C 11,4 C 4,8 km/h (1 Bft) 95,65 %
02.06.2020 05:53 11,5 C 70 % 0,0 l/m 0,1 km/h (0 Bft) SO 134 0 min 0 min 0,000 mm 0,0 UV-I 16 W/m 6,2 C 11,5 C 1,6 km/h (1 Bft) 95,83 %
02.06.2020 05:52 11,6 C 70 % 0,0 l/m 0,5 km/h (0 Bft) S-SW 199 0 min 0 min 0,000 mm 0,0 UV-I 16 W/m 6,3 C 11,6 C 1,6 km/h (1 Bft) 94,74 %
02.06.2020 05:50 11,6 C 70 % 0,0 l/m 1,3 km/h (1 Bft) S-SW 200 0 min 0 min 0,000 mm 0,0 UV-I 14 W/m 6,3 C 11,6 C 3,2 km/h (1 Bft) 95,65 %
02.06.2020 05:49 11,6 C 70 % 0,0 l/m 0,9 km/h (0 Bft) S-SW 200 0 min 0 min 0,000 mm 0,0 UV-I 14 W/m 6,3 C 11,6 C 1,6 km/h (1 Bft) 100,00 %
02.06.2020 05:48 11,7 C 70 % 0,0 l/m 0,9 km/h (0 Bft) S-SW 200 0 min 0 min 0,000 mm 0,0 UV-I 14 W/m 6,4 C 11,7 C 1,6 km/h (1 Bft) 95,65 %
02.06.2020 05:47 11,7 C 70 % 0,0 l/m 1,9 km/h (1 Bft) S-SW 200 0 min 0 min 0,000 mm 0,0 UV-I 14 W/m 6,4 C 11,7 C 3,2 km/h (1 Bft) 96,30 %
02.06.2020 05:46 11,7 C 70 % 0,0 l/m 1,7 km/h (1 Bft) S-SW 200 0 min 0 min 0,000 mm 0,0 UV-I 14 W/m 6,4 C 11,7 C 3,2 km/h (1 Bft) 95,65 %
02.06.2020 05:45 11,8 C 70 % 0,0 l/m 1,2 km/h (1 Bft) S-SW 200 0 min 0 min 0,000 mm 0,0 UV-I 14 W/m 6,5 C 11,7 C 1,6 km/h (1 Bft) 100,00 %
02.06.2020 05:44 11,8 C 70 % 0,0 l/m 1,8 km/h (1 Bft) S-SW 200 0 min 0 min 0,000 mm 0,0 UV-I 12 W/m 6,5 C 11,8 C 3,2 km/h (1 Bft) 96,15 %
02.06.2020 05:43 11,8 C 70 % 0,0 l/m 2,8 km/h (1 Bft) S-SW 200 0 min 0 min 0,000 mm 0,0 UV-I 12 W/m 6,5 C 11,8 C 4,8 km/h (1 Bft) 96,30 %
02.06.2020 05:42 11,8 C 70 % 0,0 l/m 2,2 km/h (1 Bft) O-NO 78 0 min 0 min 0,000 mm 0,0 UV-I 12 W/m 6,5 C 11,8 C 3,2 km/h (1 Bft) 97,37 %
02.06.2020 05:40 11,8 C 70 % 0,0 l/m 1,7 km/h (1 Bft) O-NO 77 0 min 0 min 0,000 mm 0,0 UV-I 12 W/m 6,5 C 11,8 C 3,2 km/h (1 Bft) 98,39 %
02.06.2020 05:37 11,8 C 70 % 0,0 l/m 1,6 km/h (1 Bft) O-SO 112 0 min 0 min 0,000 mm 0,0 UV-I 11 W/m 6,5 C 11,8 C 1,6 km/h (1 Bft) 91,30 %
02.06.2020 05:36 11,9 C 70 % 0,0 l/m 3,2 km/h (1 Bft) O-SO 112 0 min 0 min 0,000 mm 0,0 UV-I 11 W/m 6,6 C 11,9 C 4,8 km/h (1 Bft) 100,00 %
02.06.2020 05:35 11,9 C 69 % 0,0 l/m 1,6 km/h (1 Bft) SO 135 0 min 0 min 0,000 mm 0,0 UV-I 11 W/m 6,4 C 11,9 C 3,2 km/h (1 Bft) 95,65 %
02.06.2020 05:34 11,9 C 69 % 0,0 l/m 1,6 km/h (1 Bft) SO 135 0 min 0 min 0,000 mm 0,0 UV-I 11 W/m 6,4 C 11,9 C 3,2 km/h (1 Bft) 100,00 %
02.06.2020 05:33 11,9 C 69 % 0,0 l/m 1,6 km/h (1 Bft) SO 135 0 min 0 min 0,000 mm 0,0 UV-I 9 W/m 6,4 C 11,9 C 3,2 km/h (1 Bft) 100,00 %
02.06.2020 05:32 11,9 C 69 % 0,0 l/m 3,2 km/h (1 Bft) O-NO 67 0 min 0 min 0,000 mm 0,0 UV-I 9 W/m 6,4 C 11,9 C 3,2 km/h (1 Bft) 95,65 %
02.06.2020 05:31 11,9 C 69 % 0,0 l/m 4,8 km/h (1 Bft) O-NO 67 0 min 0 min 0,000 mm 0,0 UV-I 9 W/m 6,4 C 11,9 C 6,4 km/h (2 Bft) 95,65 %
02.06.2020 05:30 11,9 C 69 % 0,0 l/m 4,8 km/h (1 Bft) O 90 0 min 0 min 0,000 mm 0,0 UV-I 9 W/m 6,4 C 11,9 C 9,7 km/h (2 Bft) 91,30 %
02.06.2020 05:29 11,9 C 69 % 0,0 l/m 4,8 km/h (1 Bft) O 90 0 min 0 min 0,000 mm 0,0 UV-I 9 W/m 6,4 C 11,9 C 9,7 km/h (2 Bft) 100,00 %
02.06.2020 05:28 11,9 C 69 % 0,0 l/m 6,4 km/h (2 Bft) O 90 0 min 0 min 0,000 mm 0,0 UV-I 7 W/m 6,4 C 11,9 C 11,3 km/h (2 Bft) 95,65 %
02.06.2020 05:27 11,9 C 69 % 0,0 l/m 3,2 km/h (1 Bft) O 90 0 min 0 min 0,000 mm 0,0 UV-I 7 W/m 6,4 C 11,9 C 8,0 km/h (2 Bft) 100,00 %
02.06.2020 05:26 11,9 C 69 % 0,0 l/m 9,7 km/h (2 Bft) O 90 0 min 0 min 0,000 mm 0,0 UV-I 7 W/m 6,4 C 11,9 C 12,9 km/h (3 Bft) 95,65 %
02.06.2020 05:25 11,9 C 70 % 0,0 l/m 8,0 km/h (2 Bft) O-NO 67 0 min 0 min 0,000 mm 0,0 UV-I 7 W/m 6,6 C 11,9 C 14,5 km/h (3 Bft) 91,30 %
02.06.2020 05:24 11,9 C 70 % 0,0 l/m 6,4 km/h (2 Bft) O-NO 67 0 min 0 min 0,000 mm 0,0 UV-I 7 W/m 6,6 C 11,9 C 12,9 km/h (3 Bft) 95,65 %
02.06.2020 05:23 11,9 C 69 % 0,0 l/m 6,4 km/h (2 Bft) NO 45 0 min 0 min 0,000 mm 0,0 UV-I 7 W/m 6,4 C 11,9 C 11,3 km/h (2 Bft) 95,65 %
02.06.2020 05:22 11,9 C 69 % 0,0 l/m 4,8 km/h (1 Bft) O 90 0 min 0 min 0,000 mm 0,0 UV-I 5 W/m 6,4 C 11,9 C 9,7 km/h (2 Bft) 91,30 %
02.06.2020 05:21 11,9 C 70 % 0,0 l/m 8,0 km/h (2 Bft) N-NO 22 0 min 0 min 0,000 mm 0,0 UV-I 5 W/m 6,6 C 11,9 C 14,5 km/h (3 Bft) 95,65 %
02.06.2020 05:20 11,9 C 70 % 0,0 l/m 4,8 km/h (1 Bft) O-NO 67 0 min 0 min 0,000 mm 0,0 UV-I 5 W/m 6,6 C 11,9 C 11,3 km/h (2 Bft) 95,65 %
02.06.2020 05:19 11,9 C 69 % 0,0 l/m 8,0 km/h (2 Bft) O-NO 67 0 min 0 min 0,000 mm 0,0 UV-I 5 W/m 6,4 C 11,9 C 14,5 km/h (3 Bft) 95,65 %
02.06.2020 05:18 11,9 C 69 % 0,0 l/m 6,4 km/h (2 Bft) O-NO 67 0 min 0 min 0,000 mm 0,0 UV-I 5 W/m 6,4 C 11,9 C 12,9 km/h (3 Bft) 95,65 %
02.06.2020 05:17 11,9 C 70 % 0,0 l/m 9,7 km/h (2 Bft) O-NO 67 0 min 0 min 0,000 mm 0,0 UV-I 5 W/m 6,6 C 11,9 C 14,5 km/h (3 Bft) 95,65 %
02.06.2020 05:16 11,9 C 70 % 0,0 l/m 4,8 km/h (1 Bft) O 90 0 min 0 min 0,000 mm 0,0 UV-I 5 W/m 6,6 C 11,9 C 11,3 km/h (2 Bft) 95,65 %
02.06.2020 05:15 11,9 C 70 % 0,0 l/m 9,7 km/h (2 Bft) O 90 0 min 0 min 0,000 mm 0,0 UV-I 0 W/m 6,6 C 11,9 C 19,3 km/h (3 Bft) 95,65 %
02.06.2020 05:14 11,9 C 70 % 0,0 l/m 4,8 km/h (1 Bft) O 90 0 min 0 min 0,000 mm 0,0 UV-I 0 W/m 6,6 C 11,9 C 9,7 km/h (2 Bft) 95,65 %
02.06.2020 05:13 11,9 C 70 % 0,0 l/m 6,4 km/h (2 Bft) O 90 0 min 0 min 0,000 mm 0,0 UV-I 0 W/m 6,6 C 11,9 C 12,9 km/h (3 Bft) 100,00 %
02.06.2020 05:12 11,9 C 70 % 0,0 l/m 6,4 km/h (2 Bft) O-NO 67 0 min 0 min 0,000 mm 0,0 UV-I 0 W/m 6,6 C 11,9 C 12,9 km/h (3 Bft) 95,65 %
02.06.2020 05:11 11,9 C 70 % 0,0 l/m 6,4 km/h (2 Bft) O 90 0 min 0 min 0,000 mm 0,0 UV-I 0 W/m 6,6 C 11,9 C 14,5 km/h (3 Bft) 100,00 %
02.06.2020 05:10 11,9 C 70 % 0,0 l/m 8,0 km/h (2 Bft) NO 45 0 min 0 min 0,000 mm 0,0 UV-I 0 W/m 6,6 C 11,9 C 17,7 km/h (3 Bft) 100,00 %
02.06.2020 05:09 11,9 C 70 % 0,0 l/m 8,0 km/h (2 Bft) O-NO 67 0 min 0 min 0,000 mm 0,0 UV-I 0 W/m 6,6 C 11,9 C 14,5 km/h (3 Bft) 100,00 %
02.06.2020 05:08 11,9 C 70 % 0,0 l/m 11,3 km/h (2 Bft) O 90 0 min 0 min 0,000 mm 0,0 UV-I 0 W/m 6,6 C 11,9 C 17,7 km/h (3 Bft) 91,30 %
02.06.2020 05:07 11,9 C 70 % 0,0 l/m 9,7 km/h (2 Bft) O-NO 67 0 min 0 min 0,000 mm 0,0 UV-I 0 W/m 6,6 C 11,9 C 19,3 km/h (3 Bft) 100,00 %
02.06.2020 05:06 11,9 C 70 % 0,0 l/m 8,0 km/h (2 Bft) O-NO 67 0 min 0 min 0,000 mm 0,0 UV-I 0 W/m 6,6 C 11,9 C 14,5 km/h (3 Bft) 100,00 %
02.06.2020 05:05 11,9 C 70 % 0,0 l/m 6,4 km/h (2 Bft) O-NO 67 0 min 0 min 0,000 mm 0,0 UV-I 0 W/m 6,6 C 11,9 C 16,1 km/h (3 Bft) 100,00 %
02.06.2020 05:04 11,9 C 70 % 0,0 l/m 11,3 km/h (2 Bft) O-NO 67 0 min 0 min 0,000 mm 0,0 UV-I 0 W/m 6,6 C 11,9 C 17,7 km/h (3 Bft) 100,00 %
02.06.2020 05:03 11,9 C 70 % 0,0 l/m 11,3 km/h (2 Bft) O-NO 67 0 min 0 min 0,000 mm 0,0 UV-I 0 W/m 6,6 C 11,9 C 20,9 km/h (4 Bft) 100,00 %
02.06.2020 05:02 11,9 C 70 % 0,0 l/m 11,3 km/h (2 Bft) O-NO 67 0 min 0 min 0,000 mm 0,0 UV-I 0 W/m 6,6 C 11,9 C 17,7 km/h (3 Bft) 100,00 %
02.06.2020 05:01 11,9 C 70 % 0,0 l/m 8,0 km/h (2 Bft) O-NO 67 0 min 0 min 0,000 mm 0,0 UV-I 0 W/m 6,6 C 11,9 C 16,1 km/h (3 Bft) 91,30 %
02.06.2020 05:00 11,9 C 70 % 0,0 l/m 8,0 km/h (2 Bft) O-NO 67 0 min 0 min 0,025 mm 0,0 UV-I 0 W/m 6,6 C 11,9 C 14,5 km/h (3 Bft) 100,00 %
02.06.2020 04:59 11,9 C 70 % 0,0 l/m 8,0 km/h (2 Bft) O-NO 67 0 min 0 min 0,000 mm 0,0 UV-I 0 W/m 6,6 C 11,9 C 19,3 km/h (3 Bft) 95,65 %
02.06.2020 04:58 11,9 C 70 % 0,0 l/m 9,7 km/h (2 Bft) O-NO 67 0 min 0 min 0,000 mm 0,0 UV-I 0 W/m 6,6 C 11,9 C 22,5 km/h (4 Bft) 100,00 %
02.06.2020 04:57 11,9 C 70 % 0,0 l/m 6,4 km/h (2 Bft) O-NO 67 0 min 0 min 0,000 mm 0,0 UV-I 0 W/m 6,6 C 11,9 C 11,3 km/h (2 Bft) 95,65 %
02.06.2020 04:56 11,9 C 70 % 0,0 l/m 6,4 km/h (2 Bft) NO 45 0 min 0 min 0,000 mm 0,0 UV-I 0 W/m 6,6 C 11,9 C 12,9 km/h (3 Bft) 100,00 %
02.06.2020 04:55 11,9 C 70 % 0,0 l/m 9,7 km/h (2 Bft) O 90 0 min 0 min 0,000 mm 0,0 UV-I 0 W/m 6,6 C 11,9 C 17,7 km/h (3 Bft) 95,65 %
02.06.2020 04:54 11,9 C 70 % 0,0 l/m 9,7 km/h (2 Bft) O-NO 67 0 min 0 min 0,000 mm 0,0 UV-I 0 W/m 6,6 C 11,9 C 14,5 km/h (3 Bft) 95,65 %
02.06.2020 04:53 11,9 C 70 % 0,0 l/m 9,7 km/h (2 Bft) O-NO 67 0 min 0 min 0,000 mm 0,0 UV-I 0 W/m 6,6 C 11,9 C 16,1 km/h (3 Bft) 100,00 %
02.06.2020 04:52 11,9 C 70 % 0,0 l/m 9,7 km/h (2 Bft) O-NO 67 0 min 0 min 0,000 mm 0,0 UV-I 0 W/m 6,6 C 11,9 C 16,1 km/h (3 Bft) 100,00 %
02.06.2020 04:51 12,0 C 70 % 0,0 l/m 9,7 km/h (2 Bft) O-NO 67 0 min 0 min 0,000 mm 0,0 UV-I 0 W/m 6,7 C 11,9 C 17,7 km/h (3 Bft) 100,00 %
02.06.2020 04:50 12,0 C 70 % 0,0 l/m 11,3 km/h (2 Bft) O-NO 67 0 min 0 min 0,000 mm 0,0 UV-I 0 W/m 6,7 C 12,0 C 19,3 km/h (3 Bft) 100,00 %
02.06.2020 04:49 12,0 C 70 % 0,0 l/m 8,0 km/h (2 Bft) O-NO 67 0 min 0 min 0,000 mm 0,0 UV-I 0 W/m 6,7 C 12,0 C 14,5 km/h (3 Bft) 100,00 %
02.06.2020 04:48 12,0 C 70 % 0,0 l/m 8,0 km/h (2 Bft) O-NO 67 0 min 0 min 0,000 mm 0,0 UV-I 0 W/m 6,7 C 12,0 C 16,1 km/h (3 Bft) 100,00 %
02.06.2020 04:47 12,0 C 70 % 0,0 l/m 9,7 km/h (2 Bft) O-NO 67 0 min 0 min 0,000 mm 0,0 UV-I 0 W/m 6,7 C 12,0 C 17,7 km/h (3 Bft) 95,65 %
02.06.2020 04:46 12,0 C 70 % 0,0 l/m 9,7 km/h (2 Bft) O 90 0 min 0 min 0,000 mm 0,0 UV-I 0 W/m 6,7 C 12,0 C 16,1 km/h (3 Bft) 100,00 %
02.06.2020 04:45 12,0 C 70 % 0,0 l/m 8,0 km/h (2 Bft) O-NO 67 0 min 0 min 0,000 mm 0,0 UV-I 0 W/m 6,7 C 12,0 C 12,9 km/h (3 Bft) 100,00 %
02.06.2020 04:44 12,0 C 70 % 0,0 l/m 9,7 km/h (2 Bft) NO 45 0 min 0 min 0,000 mm 0,0 UV-I 0 W/m 6,7 C 12,0 C 20,9 km/h (4 Bft) 100,00 %
02.06.2020 04:43 12,0 C 70 % 0,0 l/m 9,7 km/h (2 Bft) O-NO 67 0 min 0 min 0,000 mm 0,0 UV-I 0 W/m 6,7 C 12,0 C 14,5 km/h (3 Bft) 100,00 %
02.06.2020 04:42 12,1 C 70 % 0,0 l/m 9,7 km/h (2 Bft) NO 45 0 min 0 min 0,000 mm 0,0 UV-I 0 W/m 6,8 C 12,0 C 14,5 km/h (3 Bft) 100,00 %
02.06.2020 04:41 12,1 C 70 % 0,0 l/m 9,7 km/h (2 Bft) O-NO 67 0 min 0 min 0,000 mm 0,0 UV-I 0 W/m 6,8 C 12,0 C 16,1 km/h (3 Bft) 100,00 %
02.06.2020 04:40 12,1 C 70 % 0,0 l/m 8,0 km/h (2 Bft) O-NO 67 0 min 0 min 0,000 mm 0,0 UV-I 0 W/m 6,8 C 12,1 C 14,5 km/h (3 Bft) 95,65 %
02.06.2020 04:39 12,1 C 70 % 0,0 l/m 6,4 km/h (2 Bft) O-NO 67 0 min 0 min 0,000 mm 0,0 UV-I 0 W/m 6,8 C 12,1 C 8,0 km/h (2 Bft) 100,00 %
02.06.2020 04:38 12,1 C 70 % 0,0 l/m 9,7 km/h (2 Bft) O 90 0 min 0 min 0,000 mm 0,0 UV-I 0 W/m 6,8 C 12,1 C 16,1 km/h (3 Bft) 100,00 %
02.06.2020 04:37 12,1 C 70 % 0,0 l/m 8,0 km/h (2 Bft) O-NO 67 0 min 0 min 0,000 mm 0,0 UV-I 0 W/m 6,8 C 12,1 C 17,7 km/h (3 Bft) 95,65 %
02.06.2020 04:36 12,1 C 70 % 0,0 l/m 4,8 km/h (1 Bft) O-NO 67 0 min 0 min 0,000 mm 0,0 UV-I 0 W/m 6,8 C 12,1 C 8,0 km/h (2 Bft) 100,00 %
02.06.2020 04:35 12,1 C 70 % 0,0 l/m 6,4 km/h (2 Bft) O-NO 67 0 min 0 min 0,000 mm 0,0 UV-I 0 W/m 6,8 C 12,1 C 11,3 km/h (2 Bft) 95,65 %
02.06.2020 04:34 12,1 C 70 % 0,0 l/m 6,4 km/h (2 Bft) O-NO 67 0 min 0 min 0,000 mm 0,0 UV-I 0 W/m 6,8 C 12,1 C 11,3 km/h (2 Bft) 100,00 %
02.06.2020 04:33 12,1 C 70 % 0,0 l/m 6,4 km/h (2 Bft) NO 45 0 min 0 min 0,000 mm 0,0 UV-I 0 W/m 6,8 C 12,1 C 14,5 km/h (3 Bft) 91,30 %
02.06.2020 04:32 12,1 C 70 % 0,0 l/m 6,4 km/h (2 Bft) NO 45 0 min 0 min 0,000 mm 0,0 UV-I 0 W/m 6,8 C 12,1 C 11,3 km/h (2 Bft) 100,00 %
02.06.2020 04:31 12,1 C 70 % 0,0 l/m 4,8 km/h (1 Bft) O-NO 67 0 min 0 min 0,000 mm 0,0 UV-I 0 W/m 6,8 C 12,1 C 8,0 km/h (2 Bft) 100,00 %
02.06.2020 04:30 12,1 C 70 % 0,0 l/m 9,7 km/h (2 Bft) O-NO 67 0 min 0 min 0,000 mm 0,0 UV-I 0 W/m 6,8 C 12,1 C 16,1 km/h (3 Bft) 100,00 %
02.06.2020 04:29 12,1 C 70 % 0,0 l/m 6,4 km/h (2 Bft) O-NO 67 0 min 0 min 0,000 mm 0,0 UV-I 0 W/m 6,8 C 12,1 C 14,5 km/h (3 Bft) 100,00 %
02.06.2020 04:28 12,1 C 70 % 0,0 l/m 6,4 km/h (2 Bft) O-NO 67 0 min 0 min 0,000 mm 0,0 UV-I 0 W/m 6,8 C 12,1 C 9,7 km/h (2 Bft) 100,00 %
02.06.2020 04:27 12,1 C 70 % 0,0 l/m 8,0 km/h (2 Bft) NO 45 0 min 0 min 0,000 mm 0,0 UV-I 0 W/m 6,8 C 12,1 C 12,9 km/h (3 Bft) 95,65 %
02.06.2020 04:26 12,1 C 70 % 0,0 l/m 6,4 km/h (2 Bft) O-NO 67 0 min 0 min 0,000 mm 0,0 UV-I 0 W/m 6,8 C 12,1 C 9,7 km/h (2 Bft) 95,65 %
02.06.2020 04:25 12,1 C 70 % 0,0 l/m 6,4 km/h (2 Bft) O-NO 67 0 min 0 min 0,000 mm 0,0 UV-I 0 W/m 6,8 C 12,1 C 9,7 km/h (2 Bft) 100,00 %
02.06.2020 04:24 12,1 C 70 % 0,0 l/m 8,0 km/h (2 Bft) O-NO 67 0 min 0 min 0,000 mm 0,0 UV-I 0 W/m 6,8 C 12,1 C 14,5 km/h (3 Bft) 100,00 %
02.06.2020 04:23 12,1 C 70 % 0,0 l/m 8,0 km/h (2 Bft) O 90 0 min 0 min 0,000 mm 0,0 UV-I 0 W/m 6,8 C 12,1 C 14,5 km/h (3 Bft) 95,65 %
02.06.2020 04:22 12,1 C 70 % 0,0 l/m 9,7 km/h (2 Bft) O-NO 67 0 min 0 min 0,000 mm 0,0 UV-I 0 W/m 6,8 C 12,1 C 16,1 km/h (3 Bft) 100,00 %
02.06.2020 04:21 12,1 C 70 % 0,0 l/m 11,3 km/h (2 Bft) O-NO 67 0 min 0 min 0,000 mm 0,0 UV-I 0 W/m 6,8 C 12,1 C 17,7 km/h (3 Bft) 100,00 %
02.06.2020 04:20 12,1 C 70 % 0,0 l/m 8,0 km/h (2 Bft) O-NO 67 0 min 0 min 0,000 mm 0,0 UV-I 0 W/m 6,8 C 12,1 C 12,9 km/h (3 Bft) 95,65 %
02.06.2020 04:19 12,1 C 70 % 0,0 l/m 11,3 km/h (2 Bft) O-NO 67 0 min 0 min 0,000 mm 0,0 UV-I 0 W/m 6,8 C 12,1 C 19,3 km/h (3 Bft) 95,65 %
02.06.2020 04:18 12,2 C 70 % 0,0 l/m 9,7 km/h (2 Bft) O-NO 67 0 min 0 min 0,000 mm 0,0 UV-I 0 W/m 6,9 C 12,2 C 16,1 km/h (3 Bft) 95,65 %
02.06.2020 04:17 12,2 C 70 % 0,0 l/m 11,3 km/h (2 Bft) O-NO 67 0 min 0 min 0,000 mm 0,0 UV-I 0 W/m 6,9 C 12,2 C 17,7 km/h (3 Bft) 100,00 %
02.06.2020 04:16 12,2 C 70 % 0,0 l/m 8,0 km/h (2 Bft) O-NO 67 0 min 0 min 0,000 mm 0,0 UV-I 0 W/m 6,9 C 12,2 C 14,5 km/h (3 Bft) 95,65 %
02.06.2020 04:15 12,2 C 70 % 0,0 l/m 8,0 km/h (2 Bft) O-NO 67 0 min 0 min 0,000 mm 0,0 UV-I 0 W/m 6,9 C 12,2 C 14,5 km/h (3 Bft) 95,65 %
02.06.2020 04:14 12,2 C 69 % 0,0 l/m 4,8 km/h (1 Bft) O-NO 67 0 min 0 min 0,000 mm 0,0 UV-I 0 W/m 6,7 C 12,2 C 11,3 km/h (2 Bft) 100,00 %
02.06.2020 04:13 12,3 C 69 % 0,0 l/m 8,0 km/h (2 Bft) O-NO 67 0 min 0 min 0,000 mm 0,0 UV-I 0 W/m 6,8 C 12,2 C 22,5 km/h (4 Bft) 95,65 %
02.06.2020 04:12 12,3 C 69 % 0,0 l/m 11,3 km/h (2 Bft) O-NO 67 0 min 0 min 0,000 mm 0,0 UV-I 0 W/m 6,8 C 12,3 C 22,5 km/h (4 Bft) 91,30 %
02.06.2020 04:11 12,3 C 69 % 0,0 l/m 6,4 km/h (2 Bft) O-NO 67 0 min 0 min 0,000 mm 0,0 UV-I 0 W/m 6,8 C 12,3 C 11,3 km/h (2 Bft) 95,65 %
02.06.2020 04:10 12,3 C 69 % 0,0 l/m 6,4 km/h (2 Bft) NO 45 0 min 0 min 0,000 mm 0,0 UV-I 0 W/m 6,8 C 12,3 C 12,9 km/h (3 Bft) 95,65 %
02.06.2020 04:09 12,4 C 69 % 0,0 l/m 8,0 km/h (2 Bft) NO 45 0 min 0 min 0,000 mm 0,0 UV-I 0 W/m 6,9 C 12,4 C 16,1 km/h (3 Bft) 95,65 %
02.06.2020 04:08 12,5 C 69 % 0,0 l/m 9,7 km/h (2 Bft) O-NO 67 0 min 0 min 0,000 mm 0,0 UV-I 0 W/m 7,0 C 12,4 C 17,7 km/h (3 Bft) 95,65 %
02.06.2020 04:07 12,6 C 68 % 0,0 l/m 4,8 km/h (1 Bft) NO 45 0 min 0 min 0,000 mm 0,0 UV-I 0 W/m 6,9 C 12,5 C 8,0 km/h (2 Bft) 91,30 %
02.06.2020 04:06 12,6 C 68 % 0,0 l/m 4,8 km/h (1 Bft) O-NO 67 0 min 0 min 0,000 mm 0,0 UV-I 0 W/m 6,9 C 12,6 C 9,7 km/h (2 Bft) 95,65 %
02.06.2020 04:05 12,6 C 68 % 0,0 l/m 6,4 km/h (2 Bft) NO 45 0 min 0 min 0,000 mm 0,0 UV-I 0 W/m 6,9 C 12,6 C 14,5 km/h (3 Bft) 95,65 %
02.06.2020 04:04 12,7 C 68 % 0,0 l/m 4,8 km/h (1 Bft) NO 45 0 min 0 min 0,000 mm 0,0 UV-I 0 W/m 6,9 C 12,7 C 9,7 km/h (2 Bft) 95,65 %
02.06.2020 04:03 12,7 C 68 % 0,0 l/m 3,2 km/h (1 Bft) NO 45 0 min 0 min 0,000 mm 0,0 UV-I 0 W/m 6,9 C 12,7 C 6,4 km/h (2 Bft) 100,00 %
02.06.2020 04:02 12,8 C 67 % 0,0 l/m 1,6 km/h (1 Bft) O-NO 67 0 min 0 min 0,000 mm 0,0 UV-I 0 W/m 6,8 C 12,8 C 4,8 km/h (1 Bft) 95,65 %
02.06.2020 04:01 12,9 C 67 % 0,0 l/m 0,0 km/h (0 Bft) O-NO 67 0 min 0 min 0,000 mm 0,0 UV-I 0 W/m 6,9 C 12,8 C 1,6 km/h (1 Bft) 100,00 %
02.06.2020 04:00 12,9 C 67 % 0,0 l/m 3,2 km/h (1 Bft) O-NO 67 0 min 0 min 0,051 mm 0,0 UV-I 0 W/m 6,9 C 12,9 C 4,8 km/h (1 Bft) 95,65 %
02.06.2020 03:59 12,9 C 67 % 0,0 l/m 4,8 km/h (1 Bft) O-NO 67 0 min 0 min 0,000 mm 0,0 UV-I 0 W/m 6,9 C 12,9 C 11,3 km/h (2 Bft) 100,00 %
02.06.2020 03:58 13,0 C 67 % 0,0 l/m 1,6 km/h (1 Bft) NO 45 0 min 0 min 0,000 mm 0,0 UV-I 0 W/m 7,0 C 13,0 C 4,8 km/h (1 Bft) 95,65 %
02.06.2020 03:57 13,0 C 67 % 0,0 l/m 0,0 km/h (0 Bft) O 90 0 min 0 min 0,000 mm 0,0 UV-I 0 W/m 7,0 C 13,0 C 3,2 km/h (1 Bft) 100,00 %
02.06.2020 03:56 13,1 C 67 % 0,0 l/m 0,0 km/h (0 Bft) O 90 0 min 0 min 0,000 mm 0,0 UV-I 0 W/m 7,1 C 13,0 C 1,6 km/h (1 Bft) 100,00 %
02.06.2020 03:55 13,1 C 67 % 0,0 l/m 1,6 km/h (1 Bft) O 90 0 min 0 min 0,000 mm 0,0 UV-I 0 W/m 7,1 C 13,1 C 4,8 km/h (1 Bft) 100,00 %
02.06.2020 03:54 13,1 C 67 % 0,0 l/m 3,2 km/h (1 Bft) O 90 0 min 0 min 0,000 mm 0,0 UV-I 0 W/m 7,1 C 13,1 C 4,8 km/h (1 Bft) 100,00 %
02.06.2020 03:53 13,1 C 67 % 0,0 l/m 1,6 km/h (1 Bft) NO 45 0 min 0 min 0,000 mm 0,0 UV-I 0 W/m 7,1 C 13,1 C 3,2 km/h (1 Bft) 100,00 %
02.06.2020 03:52 13,1 C 67 % 0,0 l/m 3,2 km/h (1 Bft) NO 45 0 min 0 min 0,000 mm 0,0 UV-I 0 W/m 7,1 C 13,1 C 4,8 km/h (1 Bft) 100,00 %
02.06.2020 03:51 13,1 C 67 % 0,0 l/m 1,6 km/h (1 Bft) O 90 0 min 0 min 0,000 mm 0,0 UV-I 0 W/m 7,1 C 13,1 C 4,8 km/h (1 Bft) 95,65 %
02.06.2020 03:50 13,1 C 67 % 0,0 l/m 3,2 km/h (1 Bft) O 90 0 min 0 min 0,000 mm 0,0 UV-I 0 W/m 7,1 C 13,1 C 6,4 km/h (2 Bft) 100,00 %
02.06.2020 03:49 13,1 C 67 % 0,0 l/m 3,2 km/h (1 Bft) NO 45 0 min 0 min 0,000 mm 0,0 UV-I 0 W/m 7,1 C 13,1 C 4,8 km/h (1 Bft) 100,00 %
02.06.2020 03:48 13,1 C 67 % 0,0 l/m 3,2 km/h (1 Bft) NO 45 0 min 0 min 0,000 mm 0,0 UV-I 0 W/m 7,1 C 13,1 C 4,8 km/h (1 Bft) 95,65 %
02.06.2020 03:47 13,1 C 67 % 0,0 l/m 8,0 km/h (2 Bft) NO 45 0 min 0 min 0,000 mm 0,0 UV-I 0 W/m 7,1 C 13,1 C 11,3 km/h (2 Bft) 100,00 %
02.06.2020 03:46 13,1 C 67 % 0,0 l/m 4,8 km/h (1 Bft) NO 45 0 min 0 min 0,000 mm 0,0 UV-I 0 W/m 7,1 C 13,1 C 6,4 km/h (2 Bft) 95,65 %
02.06.2020 03:45 13,1 C 67 % 0,0 l/m 6,4 km/h (2 Bft) O-NO 67 0 min 0 min 0,000 mm 0,0 UV-I 0 W/m 7,1 C 13,1 C 12,9 km/h (3 Bft) 100,00 %
02.06.2020 03:44 13,1 C 67 % 0,0 l/m 4,8 km/h (1 Bft) O 90 0 min 0 min 0,000 mm 0,0 UV-I 0 W/m 7,1 C 13,1 C 8,0 km/h (2 Bft) 91,30 %
02.06.2020 03:43 13,1 C 67 % 0,0 l/m 3,2 km/h (1 Bft) O-NO 67 0 min 0 min 0,000 mm 0,0 UV-I 0 W/m 7,1 C 13,1 C 6,4 km/h (2 Bft) 100,00 %
02.06.2020 03:42 13,1 C 67 % 0,0 l/m 9,7 km/h (2 Bft) O-NO 67 0 min 0 min 0,000 mm 0,0 UV-I 0 W/m 7,1 C 13,1 C 14,5 km/h (3 Bft) 95,65 %
02.06.2020 03:41 13,1 C 67 % 0,0 l/m 8,0 km/h (2 Bft) O-NO 67 0 min 0 min 0,000 mm 0,0 UV-I 0 W/m 7,1 C 13,1 C 11,3 km/h (2 Bft) 95,65 %
02.06.2020 03:40 13,1 C 67 % 0,0 l/m 6,4 km/h (2 Bft) O 90 0 min 0 min 0,000 mm 0,0 UV-I 0 W/m 7,1 C 13,1 C 11,3 km/h (2 Bft) 100,00 %
02.06.2020 03:39 13,1 C 67 % 0,0 l/m 6,4 km/h (2 Bft) O 90 0 min 0 min 0,000 mm 0,0 UV-I 0 W/m 7,1 C 13,1 C 16,1 km/h (3 Bft) 100,00 %
02.06.2020 03:38 13,1 C 67 % 0,0 l/m 6,4 km/h (2 Bft) O 90 0 min 0 min 0,000 mm 0,0 UV-I 0 W/m 7,1 C 13,1 C 14,5 km/h (3 Bft) 100,00 %
02.06.2020 03:37 13,2 C 67 % 0,0 l/m 4,8 km/h (1 Bft) O 90 0 min 0 min 0,000 mm 0,0 UV-I 0 W/m 7,2 C 13,1 C 11,3 km/h (2 Bft) 95,65 %
02.06.2020 03:36 13,2 C 67 % 0,0 l/m 8,0 km/h (2 Bft) O 90 0 min 0 min 0,000 mm 0,0 UV-I 0 W/m 7,2 C 13,2 C 16,1 km/h (3 Bft) 100,00 %
02.06.2020 03:35 13,2 C 67 % 0,0 l/m 6,4 km/h (2 Bft) O 90 0 min 0 min 0,000 mm 0,0 UV-I 0 W/m 7,2 C 13,2 C 11,3 km/h (2 Bft) 100,00 %
02.06.2020 03:34 13,2 C 67 % 0,0 l/m 6,4 km/h (2 Bft) O-NO 67 0 min 0 min 0,000 mm 0,0 UV-I 0 W/m 7,2 C 13,2 C 12,9 km/h (3 Bft) 100,00 %
02.06.2020 03:33 13,2 C 67 % 0,0 l/m 4,8 km/h (1 Bft) O-NO 67 0 min 0 min 0,000 mm 0,0 UV-I 0 W/m 7,2 C 13,2 C 8,0 km/h (2 Bft) 100,00 %
02.06.2020 03:32 13,2 C 67 % 0,0 l/m 6,4 km/h (2 Bft) O-NO 67 0 min 0 min 0,000 mm 0,0 UV-I 0 W/m 7,2 C 13,1 C 12,9 km/h (3 Bft) 100,00 %
02.06.2020 03:31 13,2 C 67 % 0,0 l/m 4,8 km/h (1 Bft) O-NO 67 0 min 0 min 0,000 mm 0,0 UV-I 0 W/m 7,2 C 13,2 C 8,0 km/h (2 Bft) 100,00 %
02.06.2020 03:30 13,2 C 67 % 0,0 l/m 6,4 km/h (2 Bft) O-NO 67 0 min 0 min 0,000 mm 0,0 UV-I 0 W/m 7,2 C 13,1 C 11,3 km/h (2 Bft) 95,65 %
02.06.2020 03:29 13,2 C 67 % 0,0 l/m 4,8 km/h (1 Bft) NO 45 0 min 0 min 0,000 mm 0,0 UV-I 0 W/m 7,2 C 13,1 C 8,0 km/h (2 Bft) 100,00 %
02.06.2020 03:28 13,2 C 68 % 0,0 l/m 4,8 km/h (1 Bft) O 90 0 min 0 min 0,000 mm 0,0 UV-I 0 W/m 7,4 C 13,1 C 9,7 km/h (2 Bft) 100,00 %
02.06.2020 03:27 13,1 C 68 % 0,0 l/m 4,8 km/h (1 Bft) O 90 0 min 0 min 0,000 mm 0,0 UV-I 0 W/m 7,3 C 13,1 C 11,3 km/h (2 Bft) 100,00 %
02.06.2020 03:26 13,1 C 68 % 0,0 l/m 4,8 km/h (1 Bft) O 90 0 min 0 min 0,000 mm 0,0 UV-I 0 W/m 7,3 C 13,1 C 8,0 km/h (2 Bft) 100,00 %
02.06.2020 03:25 13,1 C 68 % 0,0 l/m 9,7 km/h (2 Bft) O-NO 67 0 min 0 min 0,000 mm 0,0 UV-I 0 W/m 7,3 C 13,1 C 16,1 km/h (3 Bft) 100,00 %
02.06.2020 03:24 13,1 C 68 % 0,0 l/m 8,0 km/h (2 Bft) O-NO 67 0 min 0 min 0,000 mm 0,0 UV-I 0 W/m 7,3 C 13,1 C 12,9 km/h (3 Bft) 100,00 %
02.06.2020 03:23 13,1 C 68 % 0,0 l/m 6,4 km/h (2 Bft) O-NO 67 0 min 0 min 0,000 mm 0,0 UV-I 0 W/m 7,3 C 13,1 C 14,5 km/h (3 Bft) 91,30 %
02.06.2020 03:22 13,1 C 68 % 0,0 l/m 9,7 km/h (2 Bft) O 90 0 min 0 min 0,000 mm 0,0 UV-I 0 W/m 7,3 C 13,1 C 17,7 km/h (3 Bft) 95,65 %
02.06.2020 03:21 13,1 C 68 % 0,0 l/m 6,4 km/h (2 Bft) O 90 0 min 0 min 0,000 mm 0,0 UV-I 0 W/m 7,3 C 13,1 C 8,0 km/h (2 Bft) 100,00 %
02.06.2020 03:20 13,1 C 68 % 0,0 l/m 8,0 km/h (2 Bft) NO 45 0 min 0 min 0,000 mm 0,0 UV-I 0 W/m 7,3 C 13,1 C 14,5 km/h (3 Bft) 95,65 %
02.06.2020 03:19 13,1 C 68 % 0,0 l/m 9,7 km/h (2 Bft) O 90 0 min 0 min 0,000 mm 0,0 UV-I 0 W/m 7,3 C 13,1 C 14,5 km/h (3 Bft) 100,00 %
02.06.2020 03:18 13,1 C 68 % 0,0 l/m 4,8 km/h (1 Bft) O 90 0 min 0 min 0,000 mm 0,0 UV-I 0 W/m 7,3 C 13,1 C 6,4 km/h (2 Bft) 100,00 %
02.06.2020 03:17 13,1 C 68 % 0,0 l/m 4,8 km/h (1 Bft) O 90 0 min 0 min 0,000 mm 0,0 UV-I 0 W/m 7,3 C 13,1 C 8,0 km/h (2 Bft) 100,00 %
02.06.2020 03:16 13,1 C 68 % 0,0 l/m 11,3 km/h (2 Bft) O 90 0 min 0 min 0,000 mm 0,0 UV-I 0 W/m 7,3 C 13,1 C 16,1 km/h (3 Bft) 95,65 %
02.06.2020 03:15 13,1 C 68 % 0,0 l/m 6,4 km/h (2 Bft) O-NO 67 0 min 0 min 0,000 mm 0,0 UV-I 0 W/m 7,3 C 13,1 C 12,9 km/h (3 Bft) 100,00 %
02.06.2020 03:14 13,1 C 68 % 0,0 l/m 4,8 km/h (1 Bft) O 90 0 min 0 min 0,000 mm 0,0 UV-I 0 W/m 7,3 C 13,1 C 9,7 km/h (2 Bft) 100,00 %
02.06.2020 03:13 13,1 C 68 % 0,0 l/m 6,4 km/h (2 Bft) O 90 0 min 0 min 0,000 mm 0,0 UV-I 0 W/m 7,3 C 13,0 C 12,9 km/h (3 Bft) 95,65 %
02.06.2020 03:12 13,0 C 68 % 0,0 l/m 8,0 km/h (2 Bft) O 90 0 min 0 min 0,000 mm 0,0 UV-I 0 W/m 7,2 C 13,0 C 12,9 km/h (3 Bft) 95,65 %
02.06.2020 03:11 13,0 C 68 % 0,0 l/m 4,8 km/h (1 Bft) O 90 0 min 0 min 0,000 mm 0,0 UV-I 0 W/m 7,2 C 13,0 C 9,7 km/h (2 Bft) 100,00 %
02.06.2020 03:10 13,0 C 68 % 0,0 l/m 8,0 km/h (2 Bft) O 90 0 min 0 min 0,000 mm 0,0 UV-I 0 W/m 7,2 C 13,0 C 11,3 km/h (2 Bft) 100,00 %
02.06.2020 03:09 13,0 C 68 % 0,0 l/m 4,8 km/h (1 Bft) O-NO 67 0 min 0 min 0,000 mm 0,0 UV-I 0 W/m 7,2 C 13,0 C 11,3 km/h (2 Bft) 95,65 %
02.06.2020 03:08 12,9 C 69 % 0,0 l/m 6,4 km/h (2 Bft) O-NO 67 0 min 0 min 0,000 mm 0,0 UV-I 0 W/m 7,4 C 12,9 C 8,0 km/h (2 Bft) 95,65 %
02.06.2020 03:07 12,9 C 69 % 0,0 l/m 8,0 km/h (2 Bft) O 90 0 min 0 min 0,000 mm 0,0 UV-I 0 W/m 7,4 C 12,9 C 14,5 km/h (3 Bft) 100,00 %
02.06.2020 03:06 12,9 C 69 % 0,0 l/m 6,4 km/h (2 Bft) O-SO 112 0 min 0 min 0,000 mm 0,0 UV-I 0 W/m 7,4 C 12,9 C 12,9 km/h (3 Bft) 95,65 %
02.06.2020 03:05 12,9 C 69 % 0,0 l/m 6,4 km/h (2 Bft) O-NO 67 0 min 0 min 0,000 mm 0,0 UV-I 0 W/m 7,4 C 12,9 C 12,9 km/h (3 Bft) 95,65 %
02.06.2020 03:04 12,9 C 69 % 0,0 l/m 8,0 km/h (2 Bft) O 90 0 min 0 min 0,000 mm 0,0 UV-I 0 W/m 7,4 C 12,9 C 12,9 km/h (3 Bft) 100,00 %
02.06.2020 03:03 12,8 C 69 % 0,0 l/m 9,7 km/h (2 Bft) O 90 0 min 0 min 0,000 mm 0,0 UV-I 0 W/m 7,3 C 12,8 C 17,7 km/h (3 Bft) 95,65 %
02.06.2020 03:02 12,8 C 69 % 0,0 l/m 8,0 km/h (2 Bft) O 90 0 min 0 min 0,000 mm 0,0 UV-I 0 W/m 7,3 C 12,8 C 11,3 km/h (2 Bft) 100,00 %
02.06.2020 03:01 12,8 C 69 % 0,0 l/m 8,0 km/h (2 Bft) O-NO 67 0 min 0 min 0,000 mm 0,0 UV-I 0 W/m 7,3 C 12,8 C 14,5 km/h (3 Bft) 86,96 %
02.06.2020 03:00 12,8 C 69 % 0,0 l/m 6,4 km/h (2 Bft) O-NO 67 0 min 0 min 0,025 mm 0,0 UV-I 0 W/m 7,3 C 12,8 C 14,5 km/h (3 Bft) 100,00 %
02.06.2020 02:59 12,7 C 69 % 0,0 l/m 4,8 km/h (1 Bft) O 90 0 min 0 min 0,000 mm 0,0 UV-I 0 W/m 7,2 C 12,7 C 8,0 km/h (2 Bft) 91,30 %
02.06.2020 02:58 12,7 C 70 % 0,0 l/m 8,0 km/h (2 Bft) O 90 0 min 0 min 0,000 mm 0,0 UV-I 0 W/m 7,4 C 12,7 C 11,3 km/h (2 Bft) 100,00 %
02.06.2020 02:57 12,7 C 69 % 0,0 l/m 6,4 km/h (2 Bft) O 90 0 min 0 min 0,000 mm 0,0 UV-I 0 W/m 7,2 C 12,7 C 11,3 km/h (2 Bft) 91,30 %
02.06.2020 02:56 12,7 C 70 % 0,0 l/m 8,0 km/h (2 Bft) O 90 0 min 0 min 0,000 mm 0,0 UV-I 0 W/m 7,4 C 12,7 C 14,5 km/h (3 Bft) 95,65 %
02.06.2020 02:55 12,7 C 70 % 0,0 l/m 6,4 km/h (2 Bft) O 90 0 min 0 min 0,000 mm 0,0 UV-I 0 W/m 7,4 C 12,7 C 9,7 km/h (2 Bft) 95,65 %
02.06.2020 02:54 12,6 C 70 % 0,0 l/m 6,4 km/h (2 Bft) O-NO 67 0 min 0 min 0,000 mm 0,0 UV-I 0 W/m 7,3 C 12,6 C 17,7 km/h (3 Bft) 91,30 %
02.06.2020 02:53 12,6 C 70 % 0,0 l/m 9,7 km/h (2 Bft) O 90 0 min 0 min 0,000 mm 0,0 UV-I 0 W/m 7,3 C 12,6 C 17,7 km/h (3 Bft) 100,00 %
02.06.2020 02:52 12,6 C 70 % 0,0 l/m 6,4 km/h (2 Bft) O 90 0 min 0 min 0,000 mm 0,0 UV-I 0 W/m 7,3 C 12,6 C 12,9 km/h (3 Bft) 91,30 %
02.06.2020 02:51 12,6 C 71 % 0,0 l/m 8,0 km/h (2 Bft) O-NO 67 0 min 0 min 0,000 mm 0,0 UV-I 0 W/m 7,5 C 12,5 C 16,1 km/h (3 Bft) 100,00 %
02.06.2020 02:50 12,5 C 71 % 0,0 l/m 8,0 km/h (2 Bft) O 90 0 min 0 min 0,000 mm 0,0 UV-I 0 W/m 7,4 C 12,4 C 12,9 km/h (3 Bft) 95,65 %
02.06.2020 02:49 12,4 C 71 % 0,0 l/m 9,7 km/h (2 Bft) O 90 0 min 0 min 0,000 mm 0,0 UV-I 0 W/m 7,3 C 12,4 C 16,1 km/h (3 Bft) 100,00 %
02.06.2020 02:48 12,4 C 71 % 0,0 l/m 8,0 km/h (2 Bft) O 90 0 min 0 min 0,000 mm 0,0 UV-I 0 W/m 7,3 C 12,4 C 14,5 km/h (3 Bft) 95,65 %
02.06.2020 02:47 12,4 C 71 % 0,0 l/m 6,4 km/h (2 Bft) O 90 0 min 0 min 0,000 mm 0,0 UV-I 0 W/m 7,3 C 12,3 C 12,9 km/h (3 Bft) 95,65 %
02.06.2020 02:46 12,3 C 71 % 0,0 l/m 4,8 km/h (1 Bft) O 90 0 min 0 min 0,000 mm 0,0 UV-I 0 W/m 7,2 C 12,3 C 6,4 km/h (2 Bft) 100,00 %
02.06.2020 02:45 12,3 C 71 % 0,0 l/m 6,4 km/h (2 Bft) O 90 0 min 0 min 0,000 mm 0,0 UV-I 0 W/m 7,2 C 12,3 C 12,9 km/h (3 Bft) 100,00 %
02.06.2020 02:44 12,3 C 72 % 0,0 l/m 3,2 km/h (1 Bft) O 90 0 min 0 min 0,000 mm 0,0 UV-I 0 W/m 7,4 C 12,3 C 6,4 km/h (2 Bft) 100,00 %
02.06.2020 02:43 12,2 C 72 % 0,0 l/m 6,4 km/h (2 Bft) O 90 0 min 0 min 0,000 mm 0,0 UV-I 0 W/m 7,3 C 12,2 C 12,9 km/h (3 Bft) 100,00 %
02.06.2020 02:42 12,2 C 72 % 0,0 l/m 8,0 km/h (2 Bft) O 90 0 min 0 min 0,000 mm 0,0 UV-I 0 W/m 7,3 C 12,2 C 16,1 km/h (3 Bft) 100,00 %
02.06.2020 02:41 12,2 C 72 % 0,0 l/m 8,0 km/h (2 Bft) O 90 0 min 0 min 0,000 mm 0,0 UV-I 0 W/m 7,3 C 12,2 C 14,5 km/h (3 Bft) 100,00 %
02.06.2020 02:40 12,1 C 72 % 0,0 l/m 8,0 km/h (2 Bft) O-NO 67 0 min 0 min 0,000 mm 0,0 UV-I 0 W/m 7,2 C 12,1 C 12,9 km/h (3 Bft) 95,65 %
02.06.2020 02:39 12,1 C 73 % 0,0 l/m 6,4 km/h (2 Bft) O-NO 67 0 min 0 min 0,000 mm 0,0 UV-I 0 W/m 7,4 C 12,1 C 12,9 km/h (3 Bft) 100,00 %
02.06.2020 02:38 12,1 C 73 % 0,0 l/m 8,0 km/h (2 Bft) O-NO 67 0 min 0 min 0,000 mm 0,0 UV-I 0 W/m 7,4 C 12,1 C 12,9 km/h (3 Bft) 100,00 %
02.06.2020 02:37 12,0 C 73 % 0,0 l/m 4,8 km/h (1 Bft) O 90 0 min 0 min 0,000 mm 0,0 UV-I 0 W/m 7,3 C 12,0 C 9,7 km/h (2 Bft) 100,00 %
02.06.2020 02:36 12,0 C 73 % 0,0 l/m 4,8 km/h (1 Bft) O 90 0 min 0 min 0,000 mm 0,0 UV-I 0 W/m 7,3 C 11,9 C 9,7 km/h (2 Bft) 95,65 %
02.06.2020 02:35 11,9 C 73 % 0,0 l/m 6,4 km/h (2 Bft) O-NO 67 0 min 0 min 0,000 mm 0,0 UV-I 0 W/m 7,2 C 11,9 C 11,3 km/h (2 Bft) 91,30 %
02.06.2020 02:34 11,9 C 73 % 0,0 l/m 4,8 km/h (1 Bft) O 90 0 min 0 min 0,000 mm 0,0 UV-I 0 W/m 7,2 C 11,9 C 16,1 km/h (3 Bft) 100,00 %
02.06.2020 02:33 11,9 C 73 % 0,0 l/m 8,0 km/h (2 Bft) O 90 0 min 0 min 0,000 mm 0,0 UV-I 0 W/m 7,2 C 11,9 C 14,5 km/h (3 Bft) 91,30 %
02.06.2020 02:32 11,8 C 73 % 0,0 l/m 6,4 km/h (2 Bft) O 90 0 min 0 min 0,000 mm 0,0 UV-I 0 W/m 7,1 C 11,8 C 9,7 km/h (2 Bft) 100,00 %
02.06.2020 02:31 11,8 C 73 % 0,0 l/m 4,8 km/h (1 Bft) O 90 0 min 0 min 0,000 mm 0,0 UV-I 0 W/m 7,1 C 11,8 C 12,9 km/h (3 Bft) 95,65 %
02.06.2020 02:30 11,8 C 73 % 0,0 l/m 4,8 km/h (1 Bft) O-NO 67 0 min 0 min 0,000 mm 0,0 UV-I 0 W/m 7,1 C 11,8 C 8,0 km/h (2 Bft) 100,00 %
02.06.2020 02:29 11,8 C 73 % 0,0 l/m 6,4 km/h (2 Bft) O-NO 67 0 min 0 min 0,000 mm 0,0 UV-I 0 W/m 7,1 C 11,8 C 11,3 km/h (2 Bft) 100,00 %
02.06.2020 02:28 11,8 C 73 % 0,0 l/m 6,4 km/h (2 Bft) O 90 0 min 0 min 0,000 mm 0,0 UV-I 0 W/m 7,1 C 11,8 C 12,9 km/h (3 Bft) 100,00 %
02.06.2020 02:27 11,8 C 74 % 0,0 l/m 4,8 km/h (1 Bft) O-NO 67 0 min 0 min 0,000 mm 0,0 UV-I 0 W/m 7,3 C 11,7 C 9,7 km/h (2 Bft) 100,00 %
02.06.2020 02:26 11,7 C 74 % 0,0 l/m 3,2 km/h (1 Bft) NO 45 0 min 0 min 0,000 mm 0,0 UV-I 0 W/m 7,2 C 11,7 C 6,4 km/h (2 Bft) 95,65 %
02.06.2020 02:25 11,7 C 74 % 0,0 l/m 4,8 km/h (1 Bft) O-NO 67 0 min 0 min 0,000 mm 0,0 UV-I 0 W/m 7,2 C 11,7 C 8,0 km/h (2 Bft) 100,00 %
02.06.2020 02:24 11,7 C 74 % 0,0 l/m 4,8 km/h (1 Bft) O 90 0 min 0 min 0,000 mm 0,0 UV-I 0 W/m 7,2 C 11,7 C 9,7 km/h (2 Bft) 100,00 %
02.06.2020 02:23 11,7 C 74 % 0,0 l/m 3,2 km/h (1 Bft) NO 45 0 min 0 min 0,000 mm 0,0 UV-I 0 W/m 7,2 C 11,7 C 6,4 km/h (2 Bft) 100,00 %
02.06.2020 02:22 11,7 C 74 % 0,0 l/m 4,8 km/h (1 Bft) O 90 0 min 0 min 0,000 mm 0,0 UV-I 0 W/m 7,2 C 11,7 C 8,0 km/h (2 Bft) 100,00 %
02.06.2020 02:21 11,7 C 74 % 0,0 l/m 6,4 km/h (2 Bft) O-NO 67 0 min 0 min 0,000 mm 0,0 UV-I 0 W/m 7,2 C 11,7 C 9,7 km/h (2 Bft) 100,00 %
02.06.2020 02:20 11,7 C 74 % 0,0 l/m 4,8 km/h (1 Bft) O-NO 67 0 min 0 min 0,000 mm 0,0 UV-I 0 W/m 7,2 C 11,7 C 8,0 km/h (2 Bft) 100,00 %
02.06.2020 02:19 11,7 C 74 % 0,0 l/m 4,8 km/h (1 Bft) O-NO 67 0 min 0 min 0,000 mm 0,0 UV-I 0 W/m 7,2 C 11,6 C 8,0 km/h (2 Bft) 95,65 %
02.06.2020 02:18 11,7 C 74 % 0,0 l/m 3,2 km/h (1 Bft) O 90 0 min 0 min 0,000 mm 0,0 UV-I 0 W/m 7,2 C 11,7 C 6,4 km/h (2 Bft) 100,00 %
02.06.2020 02:17 11,6 C 74 % 0,0 l/m 4,8 km/h (1 Bft) O 90 0 min 0 min 0,000 mm 0,0 UV-I 0 W/m 7,1 C 11,6 C 6,4 km/h (2 Bft) 100,00 %
02.06.2020 02:16 11,6 C 74 % 0,0 l/m 4,8 km/h (1 Bft) O 90 0 min 0 min 0,000 mm 0,0 UV-I 0 W/m 7,1 C 11,6 C 8,0 km/h (2 Bft) 100,00 %
02.06.2020 02:15 11,6 C 74 % 0,0 l/m 4,8 km/h (1 Bft) O-SO 112 0 min 0 min 0,000 mm 0,0 UV-I 0 W/m 7,1 C 11,6 C 11,3 km/h (2 Bft) 100,00 %
02.06.2020 02:14 11,6 C 74 % 0,0 l/m 4,8 km/h (1 Bft) O 90 0 min 0 min 0,000 mm 0,0 UV-I 0 W/m 7,1 C 11,6 C 11,3 km/h (2 Bft) 100,00 %
02.06.2020 02:13 11,6 C 74 % 0,0 l/m 4,8 km/h (1 Bft) NO 45 0 min 0 min 0,000 mm 0,0 UV-I 0 W/m 7,1 C 11,6 C 6,4 km/h (2 Bft) 100,00 %
02.06.2020 02:12 11,6 C 74 % 0,0 l/m 4,8 km/h (1 Bft) O 90 0 min 0 min 0,000 mm 0,0 UV-I 0 W/m 7,1 C 11,6 C 6,4 km/h (2 Bft) 91,30 %
02.06.2020 02:11 11,7 C 74 % 0,0 l/m 4,8 km/h (1 Bft) O 90 0 min 0 min 0,000 mm 0,0 UV-I 0 W/m 7,2 C 11,7 C 8,0 km/h (2 Bft) 100,00 %
02.06.2020 02:10 11,7 C 74 % 0,0 l/m 4,8 km/h (1 Bft) O 90 0 min 0 min 0,000 mm 0,0 UV-I 0 W/m 7,2 C 11,7 C 9,7 km/h (2 Bft) 95,65 %
02.06.2020 02:09 11,7 C 74 % 0,0 l/m 4,8 km/h (1 Bft) O 90 0 min 0 min 0,000 mm 0,0 UV-I 0 W/m 7,2 C 11,7 C 9,7 km/h (2 Bft) 100,00 %
02.06.2020 02:08 11,7 C 73 % 0,0 l/m 4,8 km/h (1 Bft) O-NO 67 0 min 0 min 0,000 mm 0,0 UV-I 0 W/m 7,0 C 11,7 C 6,4 km/h (2 Bft) 95,65 %
02.06.2020 02:07 11,7 C 73 % 0,0 l/m 4,8 km/h (1 Bft) O 90 0 min 0 min 0,000 mm 0,0 UV-I 0 W/m 7,0 C 11,7 C 8,0 km/h (2 Bft) 100,00 %
02.06.2020 02:06 11,7 C 73 % 0,0 l/m 4,8 km/h (1 Bft) O 90 0 min 0 min 0,000 mm 0,0 UV-I 0 W/m 7,0 C 11,7 C 8,0 km/h (2 Bft) 91,30 %
02.06.2020 02:05 11,7 C 72 % 0,0 l/m 4,8 km/h (1 Bft) O 90 0 min 0 min 0,000 mm 0,0 UV-I 0 W/m 6,8 C 11,7 C 9,7 km/h (2 Bft) 95,65 %
02.06.2020 02:04 11,7 C 72 % 0,0 l/m 4,8 km/h (1 Bft) O 90 0 min 0 min 0,000 mm 0,0 UV-I 0 W/m 6,8 C 11,7 C 9,7 km/h (2 Bft) 100,00 %
02.06.2020 02:03 11,8 C 72 % 0,0 l/m 6,4 km/h (2 Bft) O-NO 67 0 min 0 min 0,000 mm 0,0 UV-I 0 W/m 6,9 C 11,8 C 9,7 km/h (2 Bft) 100,00 %
02.06.2020 02:02 11,8 C 72 % 0,0 l/m 4,8 km/h (1 Bft) O 90 0 min 0 min 0,000 mm 0,0 UV-I 0 W/m 6,9 C 11,8 C 9,7 km/h (2 Bft) 100,00 %
02.06.2020 02:01 11,8 C 71 % 0,0 l/m 3,2 km/h (1 Bft) O-NO 67 0 min 0 min 0,000 mm 0,0 UV-I 0 W/m 6,7 C 11,8 C 8,0 km/h (2 Bft) 100,00 %
02.06.2020 02:00 11,8 C 72 % 0,0 l/m 3,2 km/h (1 Bft) O-NO 67 0 min 0 min 0,025 mm 0,0 UV-I 0 W/m 6,9 C 11,8 C 9,7 km/h (2 Bft) 95,65 %
02.06.2020 01:59 11,8 C 72 % 0,0 l/m 4,8 km/h (1 Bft) O-NO 67 0 min 0 min 0,000 mm 0,0 UV-I 0 W/m 6,9 C 11,8 C 6,4 km/h (2 Bft) 100,00 %
02.06.2020 01:58 11,9 C 72 % 0,0 l/m 3,2 km/h (1 Bft) O 90 0 min 0 min 0,000 mm 0,0 UV-I 0 W/m 7,0 C 11,9 C 4,8 km/h (1 Bft) 95,65 %
02.06.2020 01:57 11,9 C 71 % 0,0 l/m 3,2 km/h (1 Bft) O-NO 67 0 min 0 min 0,000 mm 0,0 UV-I 0 W/m 6,8 C 11,9 C 4,8 km/h (1 Bft) 100,00 %
02.06.2020 01:56 12,0 C 71 % 0,0 l/m 3,2 km/h (1 Bft) O 90 0 min 0 min 0,000 mm 0,0 UV-I 0 W/m 6,9 C 12,0 C 4,8 km/h (1 Bft) 100,00 %
02.06.2020 01:55 12,1 C 71 % 0,0 l/m 3,2 km/h (1 Bft) O-NO 67 0 min 0 min 0,000 mm 0,0 UV-I 0 W/m 7,0 C 12,0 C 4,8 km/h (1 Bft) 95,65 %
02.06.2020 01:54 12,1 C 71 % 0,0 l/m 3,2 km/h (1 Bft) O-NO 67 0 min 0 min 0,000 mm 0,0 UV-I 0 W/m 7,0 C 12,1 C 4,8 km/h (1 Bft) 100,00 %
02.06.2020 01:53 12,1 C 71 % 0,0 l/m 3,2 km/h (1 Bft) O-NO 67 0 min 0 min 0,000 mm 0,0 UV-I 0 W/m 7,0 C 12,1 C 4,8 km/h (1 Bft) 95,65 %
02.06.2020 01:52 12,2 C 70 % 0,0 l/m 3,2 km/h (1 Bft) O-NO 67 0 min 0 min 0,000 mm 0,0 UV-I 0 W/m 6,9 C 12,2 C 3,2 km/h (1 Bft) 100,00 %
02.06.2020 01:51 12,2 C 70 % 0,0 l/m 3,2 km/h (1 Bft) O-NO 67 0 min 0 min 0,000 mm 0,0 UV-I 0 W/m 6,9 C 12,2 C 3,2 km/h (1 Bft) 91,30 %
02.06.2020 01:50 12,3 C 70 % 0,0 l/m 1,6 km/h (1 Bft) O-NO 67 0 min 0 min 0,000 mm 0,0 UV-I 0 W/m 7,0 C 12,2 C 4,8 km/h (1 Bft) 100,00 %
02.06.2020 01:49 12,3 C 70 % 0,0 l/m 1,6 km/h (1 Bft) O-NO 67 0 min 0 min 0,000 mm 0,0 UV-I 0 W/m 7,0 C 12,3 C 3,2 km/h (1 Bft) 95,65 %
02.06.2020 01:48 12,3 C 70 % 0,0 l/m 3,2 km/h (1 Bft) O-NO 67 0 min 0 min 0,000 mm 0,0 UV-I 0 W/m 7,0 C 12,3 C 3,2 km/h (1 Bft) 100,00 %
02.06.2020 01:47 12,3 C 70 % 0,0 l/m 1,6 km/h (1 Bft) O-NO 67 0 min 0 min 0,000 mm 0,0 UV-I 0 W/m 7,0 C 12,3 C 4,8 km/h (1 Bft) 95,65 %
02.06.2020 01:46 12,4 C 70 % 0,0 l/m 0,0 km/h (0 Bft) O-NO 67 0 min 0 min 0,000 mm 0,0 UV-I 0 W/m 7,1 C 12,4 C 1,6 km/h (1 Bft) 91,30 %
02.06.2020 01:45 12,4 C 69 % 0,0 l/m 1,6 km/h (1 Bft) O-NO 67 0 min 0 min 0,000 mm 0,0 UV-I 0 W/m 6,9 C 12,4 C 1,6 km/h (1 Bft) 100,00 %
02.06.2020 01:44 12,4 C 69 % 0,0 l/m 1,6 km/h (1 Bft) O-NO 67 0 min 0 min 0,000 mm 0,0 UV-I 0 W/m 6,9 C 12,4 C 3,2 km/h (1 Bft) 86,96 %
02.06.2020 01:43 12,4 C 70 % 0,0 l/m 3,2 km/h (1 Bft) O-NO 67 0 min 0 min 0,000 mm 0,0 UV-I 0 W/m 7,1 C 12,4 C 3,2 km/h (1 Bft) 100,00 %
02.06.2020 01:42 12,5 C 70 % 0,0 l/m 1,6 km/h (1 Bft) O-NO 67 0 min 0 min 0,000 mm 0,0 UV-I 0 W/m 7,2 C 12,4 C 3,2 km/h (1 Bft) 91,30 %
02.06.2020 01:41 12,5 C 69 % 0,0 l/m 1,6 km/h (1 Bft) O-NO 67 0 min 0 min 0,000 mm 0,0 UV-I 0 W/m 7,0 C 12,5 C 3,2 km/h (1 Bft) 100,00 %
02.06.2020 01:40 12,5 C 69 % 0,0 l/m 1,6 km/h (1 Bft) O-NO 67 0 min 0 min 0,000 mm 0,0 UV-I 0 W/m 7,0 C 12,5 C 3,2 km/h (1 Bft) 95,65 %
02.06.2020 01:39 12,6 C 69 % 0,0 l/m 1,6 km/h (1 Bft) O-NO 67 0 min 0 min 0,000 mm 0,0 UV-I 0 W/m 7,1 C 12,5 C 1,6 km/h (1 Bft) 100,00 %
02.06.2020 01:38 12,6 C 69 % 0,0 l/m 1,6 km/h (1 Bft) O-NO 67 0 min 0 min 0,000 mm 0,0 UV-I 0 W/m 7,1 C 12,6 C 3,2 km/h (1 Bft) 95,65 %
02.06.2020 01:37 12,6 C 69 % 0,0 l/m 1,6 km/h (1 Bft) O-NO 67 0 min 0 min 0,000 mm 0,0 UV-I 0 W/m 7,1 C 12,6 C 3,2 km/h (1 Bft) 91,30 %
02.06.2020 01:36 12,6 C 69 % 0,0 l/m 1,6 km/h (1 Bft) O-NO 67 0 min 0 min 0,000 mm 0,0 UV-I 0 W/m 7,1 C 12,6 C 3,2 km/h (1 Bft) 100,00 %
02.06.2020 01:35 12,6 C 69 % 0,0 l/m 1,6 km/h (1 Bft) O-NO 67 0 min 0 min 0,000 mm 0,0 UV-I 0 W/m 7,1 C 12,6 C 3,2 km/h (1 Bft) 95,65 %
02.06.2020 01:34 12,6 C 69 % 0,0 l/m 1,6 km/h (1 Bft) O-NO 67 0 min 0 min 0,000 mm 0,0 UV-I 0 W/m 7,1 C 12,6 C 1,6 km/h (1 Bft) 100,00 %
02.06.2020 01:33 12,6 C 69 % 0,0 l/m 1,6 km/h (1 Bft) O-NO 67 0 min 0 min 0,000 mm 0,0 UV-I 0 W/m 7,1 C 12,6 C 3,2 km/h (1 Bft) 100,00 %
02.06.2020 01:32 12,6 C 69 % 0,0 l/m 1,6 km/h (1 Bft) O-NO 67 0 min 0 min 0,000 mm 0,0 UV-I 0 W/m 7,1 C 12,6 C 3,2 km/h (1 Bft) 100,00 %
02.06.2020 01:31 12,6 C 69 % 0,0 l/m 1,6 km/h (1 Bft) O-NO 67 0 min 0 min 0,000 mm 0,0 UV-I 0 W/m 7,1 C 12,6 C 3,2 km/h (1 Bft) 100,00 %
02.06.2020 01:30 12,7 C 69 % 0,0 l/m 3,2 km/h (1 Bft) O 90 0 min 0 min 0,000 mm 0,0 UV-I 0 W/m 7,2 C 12,7 C 4,8 km/h (1 Bft) 95,65 %
02.06.2020 01:29 12,7 C 69 % 0,0 l/m 3,2 km/h (1 Bft) O-NO 67 0 min 0 min 0,000 mm 0,0 UV-I 0 W/m 7,2 C 12,7 C 4,8 km/h (1 Bft) 100,00 %
02.06.2020 01:28 12,7 C 69 % 0,0 l/m 3,2 km/h (1 Bft) O-NO 67 0 min 0 min 0,000 mm 0,0 UV-I 0 W/m 7,2 C 12,7 C 4,8 km/h (1 Bft) 100,00 %
02.06.2020 01:27 12,7 C 69 % 0,0 l/m 1,6 km/h (1 Bft) O-NO 67 0 min 0 min 0,000 mm 0,0 UV-I 0 W/m 7,2 C 12,7 C 3,2 km/h (1 Bft) 100,00 %
02.06.2020 01:26 12,7 C 69 % 0,0 l/m 3,2 km/h (1 Bft) O 90 0 min 0 min 0,000 mm 0,0 UV-I 0 W/m 7,2 C 12,7 C 6,4 km/h (2 Bft) 100,00 %
02.06.2020 01:25 12,7 C 69 % 0,0 l/m 1,6 km/h (1 Bft) O-NO 67 0 min 0 min 0,000 mm 0,0 UV-I 0 W/m 7,2 C 12,7 C 3,2 km/h (1 Bft) 100,00 %
02.06.2020 01:24 12,7 C 69 % 0,0 l/m 1,6 km/h (1 Bft) O-NO 67 0 min 0 min 0,000 mm 0,0 UV-I 0 W/m 7,2 C 12,7 C 3,2 km/h (1 Bft) 100,00 %
02.06.2020 01:23 12,8 C 69 % 0,0 l/m 4,8 km/h (1 Bft) O-NO 67 0 min 0 min 0,000 mm 0,0 UV-I 0 W/m 7,3 C 12,7 C 6,4 km/h (2 Bft) 91,30 %
02.06.2020 01:22 12,8 C 69 % 0,0 l/m 3,2 km/h (1 Bft) O-NO 67 0 min 0 min 0,000 mm 0,0 UV-I 0 W/m 7,3 C 12,8 C 4,8 km/h (1 Bft) 100,00 %
02.06.2020 01:21 12,8 C 69 % 0,0 l/m 3,2 km/h (1 Bft) O-NO 67 0 min 0 min 0,000 mm 0,0 UV-I 0 W/m 7,3 C 12,8 C 4,8 km/h (1 Bft) 95,65 %
02.06.2020 01:20 12,8 C 69 % 0,0 l/m 3,2 km/h (1 Bft) O-NO 67 0 min 0 min 0,000 mm 0,0 UV-I 0 W/m 7,3 C 12,8 C 8,0 km/h (2 Bft) 100,00 %
02.06.2020 01:19 12,8 C 69 % 0,0 l/m 4,8 km/h (1 Bft) O-NO 67 0 min 0 min 0,000 mm 0,0 UV-I 0 W/m 7,3 C 12,8 C 8,0 km/h (2 Bft) 95,65 %
02.06.2020 01:18 12,8 C 69 % 0,0 l/m 3,2 km/h (1 Bft) NO 45 0 min 0 min 0,000 mm 0,0 UV-I 0 W/m 7,3 C 12,8 C 6,4 km/h (2 Bft) 95,65 %
02.06.2020 01:17 12,9 C 68 % 0,0 l/m 3,2 km/h (1 Bft) O-NO 67 0 min 0 min 0,000 mm 0,0 UV-I 0 W/m 7,1 C 12,8 C 4,8 km/h (1 Bft) 100,00 %
02.06.2020 01:16 12,9 C 68 % 0,0 l/m 3,2 km/h (1 Bft) O-NO 67 0 min 0 min 0,000 mm 0,0 UV-I 0 W/m 7,1 C 12,9 C 3,2 km/h (1 Bft) 95,65 %
02.06.2020 01:15 12,9 C 68 % 0,0 l/m 3,2 km/h (1 Bft) O-NO 67 0 min 0 min 0,000 mm 0,0 UV-I 0 W/m 7,1 C 12,9 C 4,8 km/h (1 Bft) 100,00 %
02.06.2020 01:14 12,9 C 68 % 0,0 l/m 3,2 km/h (1 Bft) O-NO 67 0 min 0 min 0,000 mm 0,0 UV-I 0 W/m 7,1 C 12,9 C 3,2 km/h (1 Bft) 100,00 %
02.06.2020 01:13 12,9 C 68 % 0,0 l/m 3,2 km/h (1 Bft) NO 45 0 min 0 min 0,000 mm 0,0 UV-I 0 W/m 7,1 C 12,9 C 4,8 km/h (1 Bft) 100,00 %
02.06.2020 01:12 12,9 C 68 % 0,0 l/m 4,8 km/h (1 Bft) NO 45 0 min 0 min 0,000 mm 0,0 UV-I 0 W/m 7,1 C 12,9 C 8,0 km/h (2 Bft) 100,00 %
02.06.2020 01:11 13,0 C 68 % 0,0 l/m 4,8 km/h (1 Bft) O-NO 67 0 min 0 min 0,000 mm 0,0 UV-I 0 W/m 7,2 C 13,0 C 6,4 km/h (2 Bft) 100,00 %
02.06.2020 01:10 13,0 C 68 % 0,0 l/m 4,8 km/h (1 Bft) O-NO 67 0 min 0 min 0,000 mm 0,0 UV-I 0 W/m 7,2 C 13,0 C 6,4 km/h (2 Bft) 100,00 %
02.06.2020 01:09 13,0 C 68 % 0,0 l/m 3,2 km/h (1 Bft) NO 45 0 min 0 min 0,000 mm 0,0 UV-I 0 W/m 7,2 C 13,0 C 6,4 km/h (2 Bft) 95,65 %
02.06.2020 01:08 13,1 C 67 % 0,0 l/m 3,2 km/h (1 Bft) NO 45 0 min 0 min 0,000 mm 0,0 UV-I 0 W/m 7,1 C 13,1 C 6,4 km/h (2 Bft) 100,00 %
02.06.2020 01:07 13,1 C 67 % 0,0 l/m 3,2 km/h (1 Bft) NO 45 0 min 0 min 0,000 mm 0,0 UV-I 0 W/m 7,1 C 13,1 C 4,8 km/h (1 Bft) 100,00 %
02.06.2020 01:06 13,1 C 67 % 0,0 l/m 4,8 km/h (1 Bft) NO 45 0 min 0 min 0,000 mm 0,0 UV-I 0 W/m 7,1 C 13,1 C 6,4 km/h (2 Bft) 100,00 %
02.06.2020 01:05 13,1 C 67 % 0,0 l/m 3,2 km/h (1 Bft) NO 45 0 min 0 min 0,000 mm 0,0 UV-I 0 W/m 7,1 C 13,1 C 4,8 km/h (1 Bft) 100,00 %
02.06.2020 01:04 13,1 C 67 % 0,0 l/m 3,2 km/h (1 Bft) N-NO 22 0 min 0 min 0,000 mm 0,0 UV-I 0 W/m 7,1 C 13,1 C 4,8 km/h (1 Bft) 100,00 %
02.06.2020 01:03 13,2 C 67 % 0,0 l/m 3,2 km/h (1 Bft) NO 45 0 min 0 min 0,000 mm 0,0 UV-I 0 W/m 7,2 C 13,2 C 4,8 km/h (1 Bft) 100,00 %
02.06.2020 01:02 13,2 C 67 % 0,0 l/m 3,2 km/h (1 Bft) O-NO 67 0 min 0 min 0,000 mm 0,0 UV-I 0 W/m 7,2 C 13,2 C 4,8 km/h (1 Bft) 95,65 %
02.06.2020 01:01 13,2 C 67 % 0,0 l/m 1,6 km/h (1 Bft) O-NO 67 0 min 0 min 0,000 mm 0,0 UV-I 0 W/m 7,2 C 13,2 C 3,2 km/h (1 Bft) 100,00 %
02.06.2020 01:00 13,2 C 67 % 0,0 l/m 1,6 km/h (1 Bft) O-NO 67 0 min 0 min 0,025 mm 0,0 UV-I 0 W/m 7,2 C 13,2 C 3,2 km/h (1 Bft) 100,00 %
02.06.2020 00:59 13,2 C 67 % 0,0 l/m 3,2 km/h (1 Bft) O-NO 67 0 min 0 min 0,000 mm 0,0 UV-I 0 W/m 7,2 C 13,2 C 4,8 km/h (1 Bft) 95,65 %
02.06.2020 00:58 13,3 C 67 % 0,0 l/m 3,2 km/h (1 Bft) NO 45 0 min 0 min 0,000 mm 0,0 UV-I 0 W/m 7,3 C 13,3 C 4,8 km/h (1 Bft) 100,00 %
02.06.2020 00:57 13,3 C 67 % 0,0 l/m 3,2 km/h (1 Bft) O 90 0 min 0 min 0,000 mm 0,0 UV-I 0 W/m 7,3 C 13,3 C 4,8 km/h (1 Bft) 95,65 %
02.06.2020 00:56 13,3 C 67 % 0,0 l/m 3,2 km/h (1 Bft) O 90 0 min 0 min 0,000 mm 0,0 UV-I 0 W/m 7,3 C 13,3 C 4,8 km/h (1 Bft) 100,00 %
02.06.2020 00:55 13,3 C 67 % 0,0 l/m 1,6 km/h (1 Bft) O-NO 67 0 min 0 min 0,000 mm 0,0 UV-I 0 W/m 7,3 C 13,3 C 3,2 km/h (1 Bft) 91,30 %
02.06.2020 00:54 13,3 C 66 % 0,0 l/m 3,2 km/h (1 Bft) O-NO 67 0 min 0 min 0,000 mm 0,0 UV-I 0 W/m 7,1 C 13,3 C 4,8 km/h (1 Bft) 95,65 %
02.06.2020 00:53 13,4 C 66 % 0,0 l/m 3,2 km/h (1 Bft) O-NO 67 0 min 0 min 0,000 mm 0,0 UV-I 0 W/m 7,2 C 13,3 C 4,8 km/h (1 Bft) 95,65 %
02.06.2020 00:52 13,4 C 66 % 0,0 l/m 1,6 km/h (1 Bft) NO 45 0 min 0 min 0,000 mm 0,0 UV-I 0 W/m 7,2 C 13,4 C 4,8 km/h (1 Bft) 100,00 %
02.06.2020 00:51 13,4 C 66 % 0,0 l/m 3,2 km/h (1 Bft) NO 45 0 min 0 min 0,000 mm 0,0 UV-I 0 W/m 7,2 C 13,4 C 4,8 km/h (1 Bft) 100,00 %
02.06.2020 00:50 13,4 C 66 % 0,0 l/m 3,2 km/h (1 Bft) NO 45 0 min 0 min 0,000 mm 0,0 UV-I 0 W/m 7,2 C 13,4 C 3,2 km/h (1 Bft) 100,00 %
02.06.2020 00:49 13,4 C 66 % 0,0 l/m 3,2 km/h (1 Bft) NO 45 0 min 0 min 0,000 mm 0,0 UV-I 0 W/m 7,2 C 13,4 C 4,8 km/h (1 Bft) 100,00 %
02.06.2020 00:48 13,5 C 66 % 0,0 l/m 3,2 km/h (1 Bft) NO 45 0 min 0 min 0,000 mm 0,0 UV-I 0 W/m 7,3 C 13,5 C 3,2 km/h (1 Bft) 91,30 %
02.06.2020 00:47 13,5 C 66 % 0,0 l/m 3,2 km/h (1 Bft) NO 45 0 min 0 min 0,000 mm 0,0 UV-I 0 W/m 7,3 C 13,5 C 4,8 km/h (1 Bft) 95,65 %
02.06.2020 00:46 13,5 C 66 % 0,0 l/m 3,2 km/h (1 Bft) NO 45 0 min 0 min 0,000 mm 0,0 UV-I 0 W/m 7,3 C 13,5 C 4,8 km/h (1 Bft) 100,00 %
02.06.2020 00:45 13,6 C 66 % 0,0 l/m 3,2 km/h (1 Bft) NO 45 0 min 0 min 0,000 mm 0,0 UV-I 0 W/m 7,4 C 13,5 C 3,2 km/h (1 Bft) 100,00 %
02.06.2020 00:44 13,6 C 66 % 0,0 l/m 3,2 km/h (1 Bft) NO 45 0 min 0 min 0,000 mm 0,0 UV-I 0 W/m 7,4 C 13,6 C 4,8 km/h (1 Bft) 100,00 %
02.06.2020 00:43 13,6 C 66 % 0,0 l/m 3,2 km/h (1 Bft) O-NO 67 0 min 0 min 0,000 mm 0,0 UV-I 0 W/m 7,4 C 13,6 C 3,2 km/h (1 Bft) 95,65 %
02.06.2020 00:42 13,6 C 66 % 0,0 l/m 3,2 km/h (1 Bft) O-NO 67 0 min 0 min 0,000 mm 0,0 UV-I 0 W/m 7,4 C 13,6 C 3,2 km/h (1 Bft) 100,00 %
02.06.2020 00:41 13,6 C 66 % 0,0 l/m 3,2 km/h (1 Bft) O-NO 67 0 min 0 min 0,000 mm 0,0 UV-I 0 W/m 7,4 C 13,6 C 3,2 km/h (1 Bft) 91,30 %
02.06.2020 00:40 13,6 C 66 % 0,0 l/m 1,6 km/h (1 Bft) O-NO 67 0 min 0 min 0,000 mm 0,0 UV-I 0 W/m 7,4 C 13,6 C 3,2 km/h (1 Bft) 100,00 %
02.06.2020 00:39 13,6 C 66 % 0,0 l/m 3,2 km/h (1 Bft) O-NO 67 0 min 0 min 0,000 mm 0,0 UV-I 0 W/m 7,4 C 13,6 C 4,8 km/h (1 Bft) 95,65 %
02.06.2020 00:38 13,7 C 66 % 0,0 l/m 1,6 km/h (1 Bft) O-NO 67 0 min 0 min 0,000 mm 0,0 UV-I 0 W/m 7,5 C 13,7 C 3,2 km/h (1 Bft) 100,00 %
02.06.2020 00:37 13,7 C 66 % 0,0 l/m 1,6 km/h (1 Bft) O-NO 67 0 min 0 min 0,000 mm 0,0 UV-I 0 W/m 7,5 C 13,7 C 3,2 km/h (1 Bft) 95,65 %
02.06.2020 00:36 13,7 C 66 % 0,0 l/m 3,2 km/h (1 Bft) O-NO 67 0 min 0 min 0,000 mm 0,0 UV-I 0 W/m 7,5 C 13,7 C 3,2 km/h (1 Bft) 95,65 %
02.06.2020 00:35 13,7 C 66 % 0,0 l/m 3,2 km/h (1 Bft) O-NO 67 0 min 0 min 0,000 mm 0,0 UV-I 0 W/m 7,5 C 13,7 C 3,2 km/h (1 Bft) 100,00 %
02.06.2020 00:34 13,7 C 66 % 0,0 l/m 1,6 km/h (1 Bft) O-NO 67 0 min 0 min 0,000 mm 0,0 UV-I 0 W/m 7,5 C 13,7 C 4,8 km/h (1 Bft) 91,30 %
02.06.2020 00:33 13,7 C 66 % 0,0 l/m 1,6 km/h (1 Bft) O-NO 67 0 min 0 min 0,000 mm 0,0 UV-I 0 W/m 7,5 C 13,7 C 3,2 km/h (1 Bft) 91,30 %
02.06.2020 00:32 13,7 C 65 % 0,0 l/m 1,6 km/h (1 Bft) O-NO 67 0 min 0 min 0,000 mm 0,0 UV-I 0 W/m 7,2 C 13,7 C 3,2 km/h (1 Bft) 91,30 %
02.06.2020 00:31 13,8 C 65 % 0,0 l/m 3,2 km/h (1 Bft) O-NO 67 0 min 0 min 0,000 mm 0,0 UV-I 0 W/m 7,3 C 13,8 C 3,2 km/h (1 Bft) 91,30 %
02.06.2020 00:30 13,8 C 65 % 0,0 l/m 3,2 km/h (1 Bft) O-NO 67 0 min 0 min 0,000 mm 0,0 UV-I 0 W/m 7,3 C 13,8 C 3,2 km/h (1 Bft) 95,65 %
02.06.2020 00:29 13,8 C 65 % 0,0 l/m 3,2 km/h (1 Bft) O-NO 67 0 min 0 min 0,000 mm 0,0 UV-I 0 W/m 7,3 C 13,8 C 4,8 km/h (1 Bft) 100,00 %
02.06.2020 00:28 13,8 C 65 % 0,0 l/m 1,6 km/h (1 Bft) O-NO 67 0 min 0 min 0,000 mm 0,0 UV-I 0 W/m 7,3 C 13,8 C 3,2 km/h (1 Bft) 95,65 %
02.06.2020 00:27 13,8 C 65 % 0,0 l/m 1,6 km/h (1 Bft) O-NO 67 0 min 0 min 0,000 mm 0,0 UV-I 0 W/m 7,3 C 13,8 C 3,2 km/h (1 Bft) 95,65 %
02.06.2020 00:26 13,8 C 65 % 0,0 l/m 3,2 km/h (1 Bft) O-NO 67 0 min 0 min 0,000 mm 0,0 UV-I 0 W/m 7,3 C 13,8 C 4,8 km/h (1 Bft) 91,30 %
02.06.2020 00:25 13,8 C 65 % 0,0 l/m 4,8 km/h (1 Bft) NO 45 0 min 0 min 0,000 mm 0,0 UV-I 0 W/m 7,3 C 13,8 C 6,4 km/h (2 Bft) 95,65 %
02.06.2020 00:24 13,9 C 65 % 0,0 l/m 3,2 km/h (1 Bft) O-NO 67 0 min 0 min 0,000 mm 0,0 UV-I 0 W/m 7,4 C 13,8 C 4,8 km/h (1 Bft) 100,00 %
02.06.2020 00:23 13,9 C 65 % 0,0 l/m 4,8 km/h (1 Bft) NO 45 0 min 0 min 0,000 mm 0,0 UV-I 0 W/m 7,4 C 13,9 C 4,8 km/h (1 Bft) 95,65 %
02.06.2020 00:22 13,9 C 65 % 0,0 l/m 3,2 km/h (1 Bft) O-NO 67 0 min 0 min 0,000 mm 0,0 UV-I 0 W/m 7,4 C 13,9 C 6,4 km/h (2 Bft) 100,00 %
02.06.2020 00:21 13,9 C 65 % 0,0 l/m 6,4 km/h (2 Bft) O-NO 67 0 min 0 min 0,000 mm 0,0 UV-I 0 W/m 7,4 C 13,9 C 14,5 km/h (3 Bft) 100,00 %
02.06.2020 00:20 13,9 C 65 % 0,0 l/m 4,8 km/h (1 Bft) O-NO 67 0 min 0 min 0,000 mm 0,0 UV-I 0 W/m 7,4 C 13,9 C 14,5 km/h (3 Bft) 100,00 %
02.06.2020 00:19 14,0 C 65 % 0,0 l/m 3,2 km/h (1 Bft) O-NO 67 0 min 0 min 0,000 mm 0,0 UV-I 0 W/m 7,5 C 13,9 C 4,8 km/h (1 Bft) 95,65 %
02.06.2020 00:18 14,0 C 65 % 0,0 l/m 3,2 km/h (1 Bft) O-NO 67 0 min 0 min 0,000 mm 0,0 UV-I 0 W/m 7,5 C 14,0 C 6,4 km/h (2 Bft) 100,00 %
02.06.2020 00:17 14,0 C 65 % 0,0 l/m 6,4 km/h (2 Bft) NO 45 0 min 0 min 0,000 mm 0,0 UV-I 0 W/m 7,5 C 14,0 C 8,0 km/h (2 Bft) 100,00 %
02.06.2020 00:16 14,1 C 65 % 0,0 l/m 4,8 km/h (1 Bft) O-NO 67 0 min 0 min 0,000 mm 0,0 UV-I 0 W/m 7,6 C 14,0 C 8,0 km/h (2 Bft) 100,00 %
02.06.2020 00:15 14,1 C 65 % 0,0 l/m 4,8 km/h (1 Bft) O-NO 67 0 min 0 min 0,000 mm 0,0 UV-I 0 W/m 7,6 C 14,1 C 12,9 km/h (3 Bft) 100,00 %
02.06.2020 00:14 14,1 C 64 % 0,0 l/m 4,8 km/h (1 Bft) O-NO 67 0 min 0 min 0,000 mm 0,0 UV-I 0 W/m 7,4 C 14,1 C 12,9 km/h (3 Bft) 100,00 %
02.06.2020 00:13 14,1 C 64 % 0,0 l/m 3,2 km/h (1 Bft) O-NO 67 0 min 0 min 0,000 mm 0,0 UV-I 0 W/m 7,4 C 14,1 C 4,8 km/h (1 Bft) 100,00 %
02.06.2020 00:12 14,1 C 64 % 0,0 l/m 3,2 km/h (1 Bft) O-NO 67 0 min 0 min 0,000 mm 0,0 UV-I 0 W/m 7,4 C 14,1 C 6,4 km/h (2 Bft) 95,65 %
02.06.2020 00:11 14,1 C 64 % 0,0 l/m 3,2 km/h (1 Bft) O-NO 67 0 min 0 min 0,000 mm 0,0 UV-I 0 W/m 7,4 C 14,1 C 4,8 km/h (1 Bft) 100,00 %
02.06.2020 00:10 14,2 C 64 % 0,0 l/m 3,2 km/h (1 Bft) O-NO 67 0 min 0 min 0,000 mm 0,0 UV-I 0 W/m 7,5 C 14,2 C 4,8 km/h (1 Bft) 95,65 %
02.06.2020 00:09 14,2 C 64 % 0,0 l/m 3,2 km/h (1 Bft) O 90 0 min 0 min 0,000 mm 0,0 UV-I 0 W/m 7,5 C 14,2 C 6,4 km/h (2 Bft) 100,00 %
02.06.2020 00:08 14,2 C 64 % 0,0 l/m 4,8 km/h (1 Bft) O 90 0 min 0 min 0,000 mm 0,0 UV-I 0 W/m 7,5 C 14,2 C 6,4 km/h (2 Bft) 95,65 %
02.06.2020 00:07 14,2 C 64 % 0,0 l/m 4,8 km/h (1 Bft) NO 45 0 min 0 min 0,000 mm 0,0 UV-I 0 W/m 7,5 C 14,2 C 4,8 km/h (1 Bft) 100,00 %
02.06.2020 00:06 14,3 C 64 % 0,0 l/m 3,2 km/h (1 Bft) O-NO 67 0 min 0 min 0,000 mm 0,0 UV-I 0 W/m 7,6 C 14,2 C 4,8 km/h (1 Bft) 95,65 %
02.06.2020 00:05 14,3 C 63 % 0,0 l/m 3,2 km/h (1 Bft) NO 45 0 min 0 min 0,000 mm 0,0 UV-I 0 W/m 7,4 C 14,3 C 4,8 km/h (1 Bft) 95,65 %
02.06.2020 00:04 14,3 C 63 % 0,0 l/m 4,8 km/h (1 Bft) O-NO 67 0 min 0 min 0,000 mm 0,0 UV-I 0 W/m 7,4 C 14,3 C 4,8 km/h (1 Bft) 95,65 %
02.06.2020 00:03 14,3 C 63 % 0,0 l/m 3,2 km/h (1 Bft) O-NO 67 0 min 0 min 0,000 mm 0,0 UV-I 0 W/m 7,4 C 14,3 C 4,8 km/h (1 Bft) 100,00 %
02.06.2020 00:02 14,3 C 63 % 0,0 l/m 4,8 km/h (1 Bft) NO 45 0 min 0 min 0,000 mm 0,0 UV-I 0 W/m 7,4 C 14,3 C 8,0 km/h (2 Bft) 100,00 %
02.06.2020 00:01 14,4 C 63 % 0,0 l/m 4,8 km/h (1 Bft) O 90 0 min 0 min 0,000 mm 0,0 UV-I 0 W/m 7,4 C 14,3 C 6,4 km/h (2 Bft) 91,30 %
02.06.2020 00:00 14,4 C 63 % 0,0 l/m 3,2 km/h (1 Bft) NO 45 0 min 0 min 0,051 mm 0,0 UV-I 0 W/m 7,4 C 14,4 C 4,8 km/h (1 Bft) 100,00 %
01.06.2020 23:59 14,4 C 63 % 0,0 l/m 3,2 km/h (1 Bft) NO 45 0 min 0 min 0,000 mm 0,0 UV-I 0 W/m 7,4 C 14,4 C 4,8 km/h (1 Bft) 100,00 %
01.06.2020 23:58 14,4 C 63 % 0,0 l/m 3,2 km/h (1 Bft) NO 45 0 min 0 min 0,000 mm 0,0 UV-I 0 W/m 7,4 C 14,4 C 4,8 km/h (1 Bft) 95,65 %
01.06.2020 23:57 14,4 C 63 % 0,0 l/m 3,2 km/h (1 Bft) NO 45 0 min 0 min 0,000 mm 0,0 UV-I 0 W/m 7,4 C 14,4 C 4,8 km/h (1 Bft) 100,00 %
01.06.2020 23:56 14,5 C 63 % 0,0 l/m 4,8 km/h (1 Bft) NO 45 0 min 0 min 0,000 mm 0,0 UV-I 0 W/m 7,5 C 14,5 C 4,8 km/h (1 Bft) 95,65 %
01.06.2020 23:55 14,5 C 63 % 0,0 l/m 4,8 km/h (1 Bft) NO 45 0 min 0 min 0,000 mm 0,0 UV-I 0 W/m 7,5 C 14,5 C 4,8 km/h (1 Bft) 100,00 %
01.06.2020 23:54 14,6 C 62 % 0,0 l/m 4,8 km/h (1 Bft) NO 45 0 min 0 min 0,000 mm 0,0 UV-I 0 W/m 7,4 C 14,6 C 6,4 km/h (2 Bft) 100,00 %
01.06.2020 23:53 14,6 C 62 % 0,0 l/m 1,6 km/h (1 Bft) O-NO 67 0 min 0 min 0,000 mm 0,0 UV-I 0 W/m 7,4 C 14,6 C 3,2 km/h (1 Bft) 100,00 %
01.06.2020 23:52 14,6 C 62 % 0,0 l/m 3,2 km/h (1 Bft) O-NO 67 0 min 0 min 0,000 mm 0,0 UV-I 0 W/m 7,4 C 14,6 C 4,8 km/h (1 Bft) 100,00 %
01.06.2020 23:51 14,6 C 62 % 0,0 l/m 3,2 km/h (1 Bft) O-NO 67 0 min 0 min 0,000 mm 0,0 UV-I 0 W/m 7,4 C 14,6 C 6,4 km/h (2 Bft) 100,00 %
01.06.2020 23:50 14,6 C 62 % 0,0 l/m 3,2 km/h (1 Bft) O-NO 67 0 min 0 min 0,000 mm 0,0 UV-I 0 W/m 7,4 C 14,6 C 4,8 km/h (1 Bft) 100,00 %
01.06.2020 23:49 14,6 C 62 % 0,0 l/m 3,2 km/h (1 Bft) O-NO 67 0 min 0 min 0,000 mm 0,0 UV-I 0 W/m 7,4 C 14,6 C 6,4 km/h (2 Bft) 100,00 %
01.06.2020 23:48 14,7 C 62 % 0,0 l/m 3,2 km/h (1 Bft) NO 45 0 min 0 min 0,000 mm 0,0 UV-I 0 W/m 7,5 C 14,7 C 4,8 km/h (1 Bft) 95,65 %
01.06.2020 23:47 14,7 C 62 % 0,0 l/m 4,8 km/h (1 Bft) NO 45 0 min 0 min 0,000 mm 0,0 UV-I 0 W/m 7,5 C 14,7 C 6,4 km/h (2 Bft) 95,65 %
01.06.2020 23:46 14,7 C 62 % 0,0 l/m 3,2 km/h (1 Bft) NO 45 0 min 0 min 0,000 mm 0,0 UV-I 0 W/m 7,5 C 14,7 C 4,8 km/h (1 Bft) 95,65 %
01.06.2020 23:45 14,7 C 62 % 0,0 l/m 4,8 km/h (1 Bft) NO 45 0 min 0 min 0,000 mm 0,0 UV-I 0 W/m 7,5 C 14,7 C 6,4 km/h (2 Bft) 100,00 %
01.06.2020 23:44 14,7 C 62 % 0,0 l/m 4,8 km/h (1 Bft) NO 45 0 min 0 min 0,000 mm 0,0 UV-I 0 W/m 7,5 C 14,7 C 8,0 km/h (2 Bft) 95,65 %
01.06.2020 23:43 14,8 C 62 % 0,0 l/m 4,8 km/h (1 Bft) NO 45 0 min 0 min 0,000 mm 0,0 UV-I 0 W/m 7,6 C 14,8 C 6,4 km/h (2 Bft) 100,00 %
01.06.2020 23:42 14,8 C 62 % 0,0 l/m 4,8 km/h (1 Bft) NO 45 0 min 0 min 0,000 mm 0,0 UV-I 0 W/m 7,6 C 14,8 C 6,4 km/h (2 Bft) 100,00 %
01.06.2020 23:41 14,8 C 62 % 0,0 l/m 4,8 km/h (1 Bft) NO 45 0 min 0 min 0,000 mm 0,0 UV-I 0 W/m 7,6 C 14,8 C 6,4 km/h (2 Bft) 95,65 %
01.06.2020 23:40 14,8 C 62 % 0,0 l/m 4,8 km/h (1 Bft) NO 45 0 min 0 min 0,000 mm 0,0 UV-I 0 W/m 7,6 C 14,8 C 8,0 km/h (2 Bft) 100,00 %
01.06.2020 23:39 14,8 C 61 % 0,0 l/m 4,8 km/h (1 Bft) NO 45 0 min 0 min 0,000 mm 0,0 UV-I 0 W/m 7,4 C 14,8 C 8,0 km/h (2 Bft) 100,00 %
01.06.2020 23:38 14,9 C 61 % 0,0 l/m 4,8 km/h (1 Bft) NO 45 0 min 0 min 0,000 mm 0,0 UV-I 0 W/m 7,4 C 14,9 C 6,4 km/h (2 Bft) 100,00 %
01.06.2020 23:37 14,9 C 61 % 0,0 l/m 3,2 km/h (1 Bft) N-NO 22 0 min 0 min 0,000 mm 0,0 UV-I 0 W/m 7,4 C 14,9 C 4,8 km/h (1 Bft) 100,00 %
01.06.2020 23:36 14,9 C 61 % 0,0 l/m 3,2 km/h (1 Bft) NO 45 0 min 0 min 0,000 mm 0,0 UV-I 0 W/m 7,4 C 14,9 C 4,8 km/h (1 Bft) 95,65 %
01.06.2020 23:35 14,9 C 61 % 0,0 l/m 4,8 km/h (1 Bft) NO 45 0 min 0 min 0,000 mm 0,0 UV-I 0 W/m 7,4 C 14,9 C 4,8 km/h (1 Bft) 100,00 %
01.06.2020 23:34 15,0 C 61 % 0,0 l/m 3,2 km/h (1 Bft) O-NO 67 0 min 0 min 0,000 mm 0,0 UV-I 0 W/m 7,5 C 14,9 C 4,8 km/h (1 Bft) 95,65 %
01.06.2020 23:33 15,0 C 61 % 0,0 l/m 3,2 km/h (1 Bft) NO 45 0 min 0 min 0,000 mm 0,0 UV-I 0 W/m 7,5 C 15,0 C 4,8 km/h (1 Bft) 100,00 %
01.06.2020 23:32 15,0 C 61 % 0,0 l/m 3,2 km/h (1 Bft) NO 45 0 min 0 min 0,000 mm 0,0 UV-I 0 W/m 7,5 C 15,0 C 4,8 km/h (1 Bft) 100,00 %
01.06.2020 23:31 15,0 C 61 % 0,0 l/m 1,6 km/h (1 Bft) NO 45 0 min 0 min 0,000 mm 0,0 UV-I 0 W/m 7,5 C 15,0 C 3,2 km/h (1 Bft) 95,65 %
01.06.2020 23:30 15,1 C 61 % 0,0 l/m 3,2 km/h (1 Bft) NO 45 0 min 0 min 0,000 mm 0,0 UV-I 0 W/m 7,6 C 15,0 C 3,2 km/h (1 Bft) 100,00 %
01.06.2020 23:29 15,1 C 61 % 0,0 l/m 4,8 km/h (1 Bft) NO 45 0 min 0 min 0,000 mm 0,0 UV-I 0 W/m 7,6 C 15,1 C 6,4 km/h (2 Bft) 95,65 %
01.06.2020 23:28 15,1 C 61 % 0,0 l/m 3,2 km/h (1 Bft) NO 45 0 min 0 min 0,000 mm 0,0 UV-I 0 W/m 7,6 C 15,1 C 6,4 km/h (2 Bft) 95,65 %
01.06.2020 23:27 15,1 C 61 % 0,0 l/m 3,2 km/h (1 Bft) O-NO 67 0 min 0 min 0,000 mm 0,0 UV-I 0 W/m 7,6 C 15,1 C 4,8 km/h (1 Bft) 91,30 %
01.06.2020 23:26 15,1 C 61 % 0,0 l/m 3,2 km/h (1 Bft) O 90 0 min 0 min 0,000 mm 0,0 UV-I 0 W/m 7,6 C 15,1 C 4,8 km/h (1 Bft) 100,00 %
01.06.2020 23:25 15,1 C 61 % 0,0 l/m 3,2 km/h (1 Bft) O 90 0 min 0 min 0,000 mm 0,0 UV-I 0 W/m 7,6 C 15,1 C 4,8 km/h (1 Bft) 95,65 %
01.06.2020 23:24 15,1 C 61 % 0,0 l/m 3,2 km/h (1 Bft) O 90 0 min 0 min 0,000 mm 0,0 UV-I 0 W/m 7,6 C 15,1 C 4,8 km/h (1 Bft) 95,65 %
01.06.2020 23:23 15,2 C 61 % 0,0 l/m 3,2 km/h (1 Bft) O 90 0 min 0 min 0,000 mm 0,0 UV-I 0 W/m 7,7 C 15,1 C 4,8 km/h (1 Bft) 95,65 %
01.06.2020 23:22 15,2 C 60 % 0,0 l/m 3,2 km/h (1 Bft) O 90 0 min 0 min 0,000 mm 0,0 UV-I 0 W/m 7,5 C 15,1 C 4,8 km/h (1 Bft) 95,65 %
01.06.2020 23:21 15,2 C 60 % 0,0 l/m 3,2 km/h (1 Bft) NO 45 0 min 0 min 0,000 mm 0,0 UV-I 0 W/m 7,5 C 15,2 C 4,8 km/h (1 Bft) 95,65 %
01.06.2020 23:20 15,2 C 60 % 0,0 l/m 3,2 km/h (1 Bft) N-NO 22 0 min 0 min 0,000 mm 0,0 UV-I 0 W/m 7,5 C 15,2 C 4,8 km/h (1 Bft) 91,30 %
01.06.2020 23:19 15,2 C 60 % 0,0 l/m 3,2 km/h (1 Bft) NO 45 0 min 0 min 0,000 mm 0,0 UV-I 0 W/m 7,5 C 15,2 C 6,4 km/h (2 Bft) 95,65 %
01.06.2020 23:18 15,2 C 60 % 0,0 l/m 3,2 km/h (1 Bft) O-NO 67 0 min 0 min 0,000 mm 0,0 UV-I 0 W/m 7,5 C 15,2 C 4,8 km/h (1 Bft) 95,65 %
01.06.2020 23:17 15,2 C 60 % 0,0 l/m 3,2 km/h (1 Bft) O-NO 67 0 min 0 min 0,000 mm 0,0 UV-I 0 W/m 7,5 C 15,2 C 6,4 km/h (2 Bft) 91,30 %
01.06.2020 23:16 15,2 C 60 % 0,0 l/m 3,2 km/h (1 Bft) NO 45 0 min 0 min 0,000 mm 0,0 UV-I 0 W/m 7,5 C 15,2 C 4,8 km/h (1 Bft) 100,00 %
01.06.2020 23:15 15,3 C 60 % 0,0 l/m 3,2 km/h (1 Bft) NO 45 0 min 0 min 0,000 mm 0,0 UV-I 0 W/m 7,6 C 15,3 C 4,8 km/h (1 Bft) 95,65 %
01.06.2020 23:14 15,3 C 60 % 0,0 l/m 4,8 km/h (1 Bft) O 90 0 min 0 min 0,000 mm 0,0 UV-I 0 W/m 7,6 C 15,3 C 6,4 km/h (2 Bft) 100,00 %
01.06.2020 23:13 15,3 C 60 % 0,0 l/m 3,2 km/h (1 Bft) O 90 0 min 0 min 0,000 mm 0,0 UV-I 0 W/m 7,6 C 15,3 C 4,8 km/h (1 Bft) 91,30 %
01.06.2020 23:12 15,3 C 60 % 0,0 l/m 3,2 km/h (1 Bft) O 90 0 min 0 min 0,000 mm 0,0 UV-I 0 W/m 7,6 C 15,3 C 4,8 km/h (1 Bft) 100,00 %
01.06.2020 23:11 15,3 C 60 % 0,0 l/m 3,2 km/h (1 Bft) O-NO 67 0 min 0 min 0,000 mm 0,0 UV-I 0 W/m 7,6 C 15,3 C 4,8 km/h (1 Bft) 95,65 %
01.06.2020 23:10 15,3 C 60 % 0,0 l/m 4,8 km/h (1 Bft) O-NO 67 0 min 0 min 0,000 mm 0,0 UV-I 0 W/m 7,6 C 15,3 C 8,0 km/h (2 Bft) 100,00 %
01.06.2020 23:09 15,4 C 60 % 0,0 l/m 1,6 km/h (1 Bft) O 90 0 min 0 min 0,000 mm 0,0 UV-I 0 W/m 7,7 C 15,4 C 3,2 km/h (1 Bft) 100,00 %
01.06.2020 23:08 15,4 C 60 % 0,0 l/m 3,2 km/h (1 Bft) O 90 0 min 0 min 0,000 mm 0,0 UV-I 0 W/m 7,7 C 15,4 C 9,7 km/h (2 Bft) 100,00 %
01.06.2020 23:07 15,4 C 59 % 0,0 l/m 6,4 km/h (2 Bft) O 90 0 min 0 min 0,000 mm 0,0 UV-I 0 W/m 7,4 C 15,4 C 9,7 km/h (2 Bft) 100,00 %
01.06.2020 23:06 15,4 C 59 % 0,0 l/m 3,2 km/h (1 Bft) O-NO 67 0 min 0 min 0,000 mm 0,0 UV-I 0 W/m 7,4 C 15,4 C 6,4 km/h (2 Bft) 95,65 %
01.06.2020 23:05 15,4 C 59 % 0,0 l/m 4,8 km/h (1 Bft) O-NO 67 0 min 0 min 0,000 mm 0,0 UV-I 0 W/m 7,4 C 15,4 C 8,0 km/h (2 Bft) 95,65 %
01.06.2020 23:04 15,5 C 59 % 0,0 l/m 4,8 km/h (1 Bft) O-NO 67 0 min 0 min 0,000 mm 0,0 UV-I 0 W/m 7,5 C 15,4 C 11,3 km/h (2 Bft) 100,00 %
01.06.2020 23:03 15,5 C 59 % 0,0 l/m 3,2 km/h (1 Bft) O-NO 67 0 min 0 min 0,000 mm 0,0 UV-I 0 W/m 7,5 C 15,5 C 6,4 km/h (2 Bft) 100,00 %
01.06.2020 23:02 15,5 C 59 % 0,0 l/m 4,8 km/h (1 Bft) NO 45 0 min 0 min 0,000 mm 0,0 UV-I 0 W/m 7,5 C 15,5 C 6,4 km/h (2 Bft) 100,00 %
01.06.2020 23:01 15,6 C 59 % 0,0 l/m 3,2 km/h (1 Bft) O-NO 67 0 min 0 min 0,000 mm 0,0 UV-I 0 W/m 7,6 C 15,6 C 4,8 km/h (1 Bft) 100,00 %
01.06.2020 23:00 15,6 C 59 % 0,0 l/m 3,2 km/h (1 Bft) O-NO 67 0 min 0 min 0,051 mm 0,0 UV-I 0 W/m 7,6 C 15,6 C 4,8 km/h (1 Bft) 95,65 %
01.06.2020 22:59 15,6 C 59 % 0,0 l/m 3,2 km/h (1 Bft) O 90 0 min 0 min 0,000 mm 0,0 UV-I 0 W/m 7,6 C 15,6 C 4,8 km/h (1 Bft) 91,30 %
01.06.2020 22:58 15,6 C 59 % 0,0 l/m 4,8 km/h (1 Bft) O 90 0 min 0 min 0,000 mm 0,0 UV-I 0 W/m 7,6 C 15,6 C 11,3 km/h (2 Bft) 100,00 %
01.06.2020 22:57 15,6 C 59 % 0,0 l/m 3,2 km/h (1 Bft) O-NO 67 0 min 0 min 0,000 mm 0,0 UV-I 0 W/m 7,6 C 15,6 C 4,8 km/h (1 Bft) 95,65 %
01.06.2020 22:56 15,6 C 59 % 0,0 l/m 3,2 km/h (1 Bft) O-NO 67 0 min 0 min 0,000 mm 0,0 UV-I 0 W/m 7,6 C 15,6 C 4,8 km/h (1 Bft) 100,00 %
01.06.2020 22:55 15,7 C 59 % 0,0 l/m 4,8 km/h (1 Bft) NO 45 0 min 0 min 0,000 mm 0,0 UV-I 0 W/m 7,7 C 15,7 C 12,9 km/h (3 Bft) 100,00 %
01.06.2020 22:54 15,7 C 59 % 0,0 l/m 3,2 km/h (1 Bft) NO 45 0 min 0 min 0,000 mm 0,0 UV-I 0 W/m 7,7 C 15,7 C 4,8 km/h (1 Bft) 100,00 %
01.06.2020 22:53 15,7 C 59 % 0,0 l/m 3,2 km/h (1 Bft) O-NO 67 0 min 0 min 0,000 mm 0,0 UV-I 0 W/m 7,7 C 15,7 C 4,8 km/h (1 Bft) 95,65 %
01.06.2020 22:52 15,7 C 59 % 0,0 l/m 3,2 km/h (1 Bft) O-NO 67 0 min 0 min 0,000 mm 0,0 UV-I 0 W/m 7,7 C 15,7 C 6,4 km/h (2 Bft) 95,65 %
01.06.2020 22:51 15,7 C 59 % 0,0 l/m 4,8 km/h (1 Bft) O-NO 67 0 min 0 min 0,000 mm 0,0 UV-I 0 W/m 7,7 C 15,7 C 6,4 km/h (2 Bft) 100,00 %
01.06.2020 22:50 15,8 C 58 % 0,0 l/m 4,8 km/h (1 Bft) O-NO 67 0 min 0 min 0,000 mm 0,0 UV-I 0 W/m 7,6 C 15,7 C 9,7 km/h (2 Bft) 100,00 %
01.06.2020 22:49 15,8 C 58 % 0,0 l/m 1,6 km/h (1 Bft) NO 45 0 min 0 min 0,000 mm 0,0 UV-I 0 W/m 7,6 C 15,8 C 4,8 km/h (1 Bft) 100,00 %
01.06.2020 22:48 15,8 C 58 % 0,0 l/m 3,2 km/h (1 Bft) O 90 0 min 0 min 0,000 mm 0,0 UV-I 0 W/m 7,6 C 15,8 C 4,8 km/h (1 Bft) 100,00 %
01.06.2020 22:47 15,8 C 58 % 0,0 l/m 4,8 km/h (1 Bft) O 90 0 min 0 min 0,000 mm 0,0 UV-I 0 W/m 7,6 C 15,8 C 6,4 km/h (2 Bft) 100,00 %
01.06.2020 22:46 15,8 C 58 % 0,0 l/m 3,2 km/h (1 Bft) O-NO 67 0 min 0 min 0,000 mm 0,0 UV-I 0 W/m 7,6 C 15,8 C 6,4 km/h (2 Bft) 100,00 %
01.06.2020 22:45 15,8 C 58 % 0,0 l/m 1,6 km/h (1 Bft) O 90 0 min 0 min 0,000 mm 0,0 UV-I 0 W/m 7,6 C 15,8 C 3,2 km/h (1 Bft) 95,65 %
01.06.2020 22:44 15,9 C 58 % 0,0 l/m 3,2 km/h (1 Bft) O 90 0 min 0 min 0,000 mm 0,0 UV-I 0 W/m 7,6 C 15,9 C 4,8 km/h (1 Bft) 100,00 %
01.06.2020 22:43 15,9 C 58 % 0,0 l/m 3,2 km/h (1 Bft) O 90 0 min 0 min 0,000 mm 0,0 UV-I 0 W/m 7,6 C 15,9 C 6,4 km/h (2 Bft) 100,00 %
01.06.2020 22:42 15,9 C 58 % 0,0 l/m 3,2 km/h (1 Bft) O 90 0 min 0 min 0,000 mm 0,0 UV-I 0 W/m 7,6 C 15,9 C 6,4 km/h (2 Bft) 100,00 %
01.06.2020 22:41 15,9 C 58 % 0,0 l/m 6,4 km/h (2 Bft) NO 45 0 min 0 min 0,000 mm 0,0 UV-I 0 W/m 7,6 C 15,9 C 16,1 km/h (3 Bft) 100,00 %
01.06.2020 22:40 15,9 C 58 % 0,0 l/m 1,6 km/h (1 Bft) O-SO 112 0 min 0 min 0,000 mm 0,0 UV-I 0 W/m 7,6 C 15,9 C 3,2 km/h (1 Bft) 100,00 %
01.06.2020 22:39 16,0 C 58 % 0,0 l/m 3,2 km/h (1 Bft) O-SO 112 0 min 0 min 0,000 mm 0,0 UV-I 0 W/m 7,7 C 15,9 C 4,8 km/h (1 Bft) 100,00 %
01.06.2020 22:38 16,0 C 58 % 0,0 l/m 1,6 km/h (1 Bft) O-SO 112 0 min 0 min 0,000 mm 0,0 UV-I 0 W/m 7,7 C 16,0 C 3,2 km/h (1 Bft) 91,30 %
01.06.2020 22:37 16,0 C 58 % 0,0 l/m 3,2 km/h (1 Bft) O-SO 112 0 min 0 min 0,000 mm 0,0 UV-I 0 W/m 7,7 C 16,0 C 3,2 km/h (1 Bft) 100,00 %
01.06.2020 22:36 16,1 C 58 % 0,0 l/m 3,2 km/h (1 Bft) O-SO 112 0 min 0 min 0,000 mm 0,0 UV-I 0 W/m 7,8 C 16,0 C 6,4 km/h (2 Bft) 95,65 %
01.06.2020 22:35 16,1 C 57 % 0,0 l/m 3,2 km/h (1 Bft) NO 45 0 min 0 min 0,000 mm 0,0 UV-I 0 W/m 7,6 C 16,1 C 4,8 km/h (1 Bft) 100,00 %
01.06.2020 22:34 16,1 C 57 % 0,0 l/m 4,8 km/h (1 Bft) O 90 0 min 0 min 0,000 mm 0,0 UV-I 0 W/m 7,6 C 16,1 C 6,4 km/h (2 Bft) 95,65 %
01.06.2020 22:33 16,1 C 57 % 0,0 l/m 4,8 km/h (1 Bft) NO 45 0 min 0 min 0,000 mm 0,0 UV-I 0 W/m 7,6 C 16,1 C 9,7 km/h (2 Bft) 100,00 %
01.06.2020 22:32 16,1 C 57 % 0,0 l/m 4,8 km/h (1 Bft) NO 45 0 min 0 min 0,000 mm 0,0 UV-I 0 W/m 7,6 C 16,1 C 12,9 km/h (3 Bft) 95,65 %
01.06.2020 22:31 16,2 C 57 % 0,0 l/m 3,2 km/h (1 Bft) O 90 0 min 0 min 0,000 mm 0,0 UV-I 0 W/m 7,7 C 16,2 C 4,8 km/h (1 Bft) 95,65 %
01.06.2020 22:30 16,2 C 57 % 0,0 l/m 4,3 km/h (1 Bft) O 80 0 min 0 min 0,000 mm 0,0 UV-I 0 W/m 7,7 C 16,2 C 6,4 km/h (2 Bft) 96,15 %
01.06.2020 22:29 16,2 C 57 % 0,0 l/m 4,0 km/h (1 Bft) O 80 0 min 0 min 0,000 mm 0,0 UV-I 0 W/m 7,7 C 16,2 C 8,0 km/h (2 Bft) 100,00 %
01.06.2020 22:28 16,2 C 57 % 0,0 l/m 5,5 km/h (2 Bft) O 81 0 min 0 min 0,000 mm 0,0 UV-I 0 W/m 7,7 C 16,2 C 11,3 km/h (2 Bft) 95,65 %
01.06.2020 22:27 16,2 C 57 % 0,0 l/m 4,1 km/h (1 Bft) O 92 0 min 0 min 0,000 mm 0,0 UV-I 0 W/m 7,7 C 16,2 C 6,4 km/h (2 Bft) 95,83 %
01.06.2020 22:26 16,3 C 56 % 0,0 l/m 6,5 km/h (2 Bft) O 93 0 min 0 min 0,000 mm 0,0 UV-I 0 W/m 7,5 C 16,3 C 11,3 km/h (2 Bft) 100,00 %
01.06.2020 22:25 16,3 C 56 % 0,0 l/m 4,3 km/h (1 Bft) O 80 0 min 0 min 0,000 mm 0,0 UV-I 0 W/m 7,5 C 16,3 C 8,0 km/h (2 Bft) 91,30 %
01.06.2020 22:24 16,3 C 56 % 0,0 l/m 3,6 km/h (1 Bft) O 83 0 min 0 min 0,000 mm 0,0 UV-I 0 W/m 7,5 C 16,3 C 4,8 km/h (1 Bft) 100,00 %
01.06.2020 22:23 16,4 C 56 % 0,0 l/m 3,0 km/h (1 Bft) O-NO 74 0 min 0 min 0,000 mm 0,0 UV-I 0 W/m 7,6 C 16,4 C 6,4 km/h (2 Bft) 95,65 %
01.06.2020 22:22 16,4 C 56 % 0,0 l/m 3,8 km/h (1 Bft) O-NO 61 0 min 0 min 0,000 mm 0,0 UV-I 0 W/m 7,6 C 16,4 C 6,4 km/h (2 Bft) 97,37 %
01.06.2020 22:20 16,4 C 56 % 0,0 l/m 4,2 km/h (1 Bft) O 79 0 min 0 min 0,000 mm 0,0 UV-I 0 W/m 7,6 C 16,4 C 6,4 km/h (2 Bft) 100,00 %
01.06.2020 22:19 16,4 C 56 % 0,0 l/m 4,4 km/h (1 Bft) O-NO 63 0 min 0 min 0,000 mm 0,0 UV-I 0 W/m 7,6 C 16,4 C 6,4 km/h (2 Bft) 100,00 %
01.06.2020 22:18 16,5 C 56 % 0,0 l/m 6,0 km/h (2 Bft) NO 53 0 min 0 min 0,000 mm 0,0 UV-I 0 W/m 7,7 C 16,5 C 12,9 km/h (3 Bft) 100,00 %
01.06.2020 22:17 16,5 C 56 % 0,0 l/m 6,3 km/h (2 Bft) O 79 0 min 0 min 0,000 mm 0,0 UV-I 0 W/m 7,7 C 16,5 C 9,7 km/h (2 Bft) 100,00 %
01.06.2020 22:16 16,6 C 55 % 0,0 l/m 3,1 km/h (1 Bft) O 88 0 min 0 min 0,000 mm 0,0 UV-I 0 W/m 7,5 C 16,6 C 4,8 km/h (1 Bft) 95,65 %
01.06.2020 22:15 16,6 C 55 % 0,0 l/m 6,6 km/h (2 Bft) O 90 0 min 0 min 0,000 mm 0,0 UV-I 0 W/m 7,5 C 16,6 C 11,3 km/h (2 Bft) 100,00 %
01.06.2020 22:14 16,6 C 55 % 0,0 l/m 4,0 km/h (1 Bft) NO 41 0 min 0 min 0,000 mm 0,0 UV-I 0 W/m 7,5 C 16,6 C 4,8 km/h (1 Bft) 95,65 %
01.06.2020 22:13 16,6 C 55 % 0,0 l/m 4,1 km/h (1 Bft) O-NO 78 0 min 0 min 0,000 mm 0,0 UV-I 0 W/m 7,5 C 16,6 C 6,4 km/h (2 Bft) 100,00 %
01.06.2020 22:12 16,7 C 55 % 0,0 l/m 3,8 km/h (1 Bft) O-NO 58 0 min 0 min 0,000 mm 0,0 UV-I 0 W/m 7,6 C 16,7 C 8,0 km/h (2 Bft) 97,14 %
01.06.2020 22:10 16,7 C 55 % 0,0 l/m 4,1 km/h (1 Bft) O 86 0 min 0 min 0,000 mm 0,0 UV-I 0 W/m 7,6 C 16,7 C 6,4 km/h (2 Bft) 95,83 %
01.06.2020 22:09 16,7 C 54 % 0,0 l/m 5,0 km/h (1 Bft) O-NO 61 0 min 0 min 0,000 mm 0,0 UV-I 0 W/m 7,3 C 16,7 C 8,0 km/h (2 Bft) 100,00 %
01.06.2020 22:08 16,8 C 54 % 0,0 l/m 5,4 km/h (2 Bft) N-NO 30 0 min 0 min 0,000 mm 0,0 UV-I 0 W/m 7,4 C 16,8 C 6,4 km/h (2 Bft) 96,30 %
01.06.2020 22:07 16,8 C 55 % 0,0 l/m 4,6 km/h (1 Bft) NO 49 0 min 0 min 0,000 mm 0,0 UV-I 0 W/m 7,7 C 16,8 C 6,4 km/h (2 Bft) 100,00 %
01.06.2020 22:06 16,8 C 54 % 0,0 l/m 6,2 km/h (2 Bft) NO 42 0 min 0 min 0,000 mm 0,0 UV-I 0 W/m 7,4 C 16,8 C 8,0 km/h (2 Bft) 100,00 %
01.06.2020 22:05 16,9 C 54 % 0,0 l/m 6,1 km/h (2 Bft) O-NO 57 0 min 0 min 0,000 mm 0,0 UV-I 0 W/m 7,5 C 16,9 C 12,9 km/h (3 Bft) 100,00 %
01.06.2020 22:04 16,9 C 54 % 0,0 l/m 4,3 km/h (1 Bft) O 88 0 min 0 min 0,000 mm 0,0 UV-I 0 W/m 7,5 C 16,9 C 12,9 km/h (3 Bft) 100,00 %
01.06.2020 22:02 17,0 C 54 % 0,0 l/m 5,7 km/h (2 Bft) O 81 0 min 0 min 0,051 mm 0,0 UV-I 0 W/m 7,6 C 17,0 C 8,0 km/h (2 Bft) 97,87 %
01.06.2020 22:00 17,1 C 54 % 0,0 l/m 4,7 km/h (1 Bft) NO 53 0 min 0 min 0,000 mm 0,0 UV-I 0 W/m 7,7 C 17,1 C 8,0 km/h (2 Bft) 100,00 %
01.06.2020 21:59 17,1 C 54 % 0,0 l/m 6,1 km/h (2 Bft) O-NO 67 0 min 0 min 0,000 mm 0,0 UV-I 0 W/m 7,7 C 17,1 C 11,3 km/h (2 Bft) 100,00 %
01.06.2020 21:58 17,2 C 53 % 0,0 l/m 7,0 km/h (2 Bft) O-NO 75 0 min 0 min 0,000 mm 0,0 UV-I 0 W/m 7,5 C 17,2 C 14,5 km/h (3 Bft) 100,00 %
01.06.2020 21:57 17,2 C 53 % 0,0 l/m 4,7 km/h (1 Bft) O-NO 75 0 min 0 min 0,000 mm 0,0 UV-I 0 W/m 7,5 C 17,2 C 6,4 km/h (2 Bft) 100,00 %
01.06.2020 21:56 17,3 C 53 % 0,0 l/m 6,4 km/h (2 Bft) O 84 0 min 0 min 0,000 mm 0,0 UV-I 0 W/m 7,6 C 17,3 C 9,7 km/h (2 Bft) 100,00 %
01.06.2020 21:55 17,3 C 53 % 0,0 l/m 4,4 km/h (1 Bft) O-NO 64 0 min 0 min 0,000 mm 0,0 UV-I 0 W/m 7,6 C 17,3 C 8,0 km/h (2 Bft) 100,00 %
01.06.2020 21:54 17,3 C 53 % 0,0 l/m 4,7 km/h (1 Bft) O-NO 59 0 min 0 min 0,000 mm 0,0 UV-I 0 W/m 7,6 C 17,3 C 8,0 km/h (2 Bft) 100,00 %
01.06.2020 21:53 17,4 C 52 % 0,0 l/m 3,8 km/h (1 Bft) NO 48 0 min 0 min 0,000 mm 0,0 UV-I 0 W/m 7,4 C 17,4 C 4,8 km/h (1 Bft) 98,16 %
01.06.2020 21:52 17,4 C 52 % 0,0 l/m 4,4 km/h (1 Bft) O 81 0 min 0 min 0,000 mm 0,0 UV-I 0 W/m 7,4 C 17,4 C 8,0 km/h (2 Bft) 100,00 %
01.06.2020 21:50 17,5 C 52 % 0,0 l/m 4,5 km/h (1 Bft) O-NO 57 0 min 0 min 0,000 mm 0,0 UV-I 0 W/m 7,5 C 17,5 C 6,4 km/h (2 Bft) 100,00 %
01.06.2020 21:49 17,6 C 52 % 0,0 l/m 4,0 km/h (1 Bft) O-NO 75 0 min 0 min 0,000 mm 0,0 UV-I 0 W/m 7,6 C 17,6 C 4,8 km/h (1 Bft) 100,00 %
01.06.2020 21:48 17,6 C 52 % 0,0 l/m 5,3 km/h (1 Bft) O 80 0 min 0 min 0,000 mm 0,0 UV-I 0 W/m 7,6 C 17,6 C 9,7 km/h (2 Bft) 100,00 %
01.06.2020 21:47 17,6 C 51 % 0,0 l/m 3,9 km/h (1 Bft) O 80 0 min 0 min 0,000 mm 0,0 UV-I 0 W/m 7,3 C 17,6 C 6,4 km/h (2 Bft) 100,00 %
01.06.2020 21:46 17,7 C 52 % 0,0 l/m 5,2 km/h (1 Bft) O-NO 64 0 min 0 min 0,000 mm 0,0 UV-I 0 W/m 7,7 C 17,7 C 8,0 km/h (2 Bft) 100,00 %
01.06.2020 21:45 17,7 C 52 % 0,0 l/m 5,3 km/h (1 Bft) O-NO 60 0 min 0 min 0,000 mm 0,0 UV-I 0 W/m 7,7 C 17,7 C 8,0 km/h (2 Bft) 95,65 %
01.06.2020 21:44 17,7 C 51 % 0,0 l/m 5,2 km/h (1 Bft) O-NO 78 0 min 0 min 0,000 mm 0,0 UV-I 0 W/m 7,4 C 17,7 C 8,0 km/h (2 Bft) 100,00 %
01.06.2020 21:43 17,8 C 51 % 0,0 l/m 4,2 km/h (1 Bft) O-NO 61 0 min 0 min 0,000 mm 0,0 UV-I 0 W/m 7,5 C 17,8 C 8,0 km/h (2 Bft) 100,00 %
01.06.2020 21:42 17,8 C 51 % 0,0 l/m 5,5 km/h (2 Bft) NO 36 0 min 0 min 0,000 mm 0,0 UV-I 0 W/m 7,5 C 17,8 C 8,0 km/h (2 Bft) 95,45 %
01.06.2020 21:40 17,9 C 51 % 0,0 l/m 7,2 km/h (2 Bft) O-NO 78 0 min 0 min 0,000 mm 0,0 UV-I 0 W/m 7,6 C 17,9 C 14,5 km/h (3 Bft) 97,30 %
01.06.2020 21:39 17,9 C 51 % 0,0 l/m 5,6 km/h (2 Bft) NO 48 0 min 0 min 0,000 mm 0,0 UV-I 0 W/m 7,6 C 17,9 C 8,0 km/h (2 Bft) 100,00 %
01.06.2020 21:38 18,0 C 51 % 0,0 l/m 7,2 km/h (2 Bft) NO 49 0 min 0 min 0,000 mm 0,0 UV-I 0 W/m 7,7 C 18,0 C 12,9 km/h (3 Bft) 96,15 %
01.06.2020 21:37 18,1 C 51 % 0,0 l/m 5,2 km/h (1 Bft) NO 53 0 min 0 min 0,000 mm 0,0 UV-I 0 W/m 7,8 C 18,1 C 8,0 km/h (2 Bft) 100,00 %
01.06.2020 21:36 18,1 C 50 % 0,0 l/m 5,6 km/h (2 Bft) O-NO 63 0 min 0 min 0,000 mm 0,0 UV-I 0 W/m 7,5 C 18,1 C 9,7 km/h (2 Bft) 95,65 %
01.06.2020 21:35 18,1 C 50 % 0,0 l/m 5,8 km/h (2 Bft) O-NO 64 0 min 0 min 0,000 mm 0,0 UV-I 0 W/m 7,5 C 18,1 C 9,7 km/h (2 Bft) 100,00 %
01.06.2020 21:34 18,2 C 50 % 0,0 l/m 4,9 km/h (1 Bft) O-NO 70 0 min 0 min 0,000 mm 0,0 UV-I 0 W/m 7,6 C 18,2 C 9,7 km/h (2 Bft) 92,31 %
01.06.2020 21:33 18,2 C 50 % 0,0 l/m 2,9 km/h (1 Bft) NO 53 0 min 0 min 0,000 mm 0,0 UV-I 0 W/m 7,6 C 18,2 C 4,8 km/h (1 Bft) 100,00 %
01.06.2020 21:32 18,3 C 50 % 0,0 l/m 4,8 km/h (1 Bft) O-NO 76 0 min 0 min 0,000 mm 0,0 UV-I 0 W/m 7,7 C 18,3 C 9,7 km/h (2 Bft) 100,00 %
01.06.2020 21:30 18,4 C 50 % 0,0 l/m 5,9 km/h (2 Bft) O-NO 68 0 min 0 min 0,000 mm 0,0 UV-I 0 W/m 7,8 C 18,4 C 11,3 km/h (2 Bft) 100,00 %
01.06.2020 21:29 18,4 C 49 % 0,0 l/m 6,6 km/h (2 Bft) NO 34 0 min 0 min 0,000 mm 0,0 UV-I 0 W/m 7,5 C 18,4 C 8,0 km/h (2 Bft) 100,00 %
01.06.2020 21:28 18,5 C 49 % 0,0 l/m 7,4 km/h (2 Bft) O-NO 57 0 min 0 min 0,000 mm 0,0 UV-I 0 W/m 7,6 C 18,5 C 12,9 km/h (3 Bft) 100,00 %
01.06.2020 21:27 18,6 C 49 % 0,0 l/m 7,2 km/h (2 Bft) O-NO 59 0 min 0 min 0,000 mm 0,0 UV-I 0 W/m 7,7 C 18,6 C 11,3 km/h (2 Bft) 100,00 %
01.06.2020 21:26 18,6 C 49 % 0,0 l/m 5,2 km/h (1 Bft) NO 48 0 min 0 min 0,000 mm 0,0 UV-I 0 W/m 7,7 C 18,6 C 8,0 km/h (2 Bft) 96,55 %
01.06.2020 21:25 18,7 C 49 % 0,0 l/m 5,9 km/h (2 Bft) NO 55 0 min 0 min 0,000 mm 0,0 UV-I 0 W/m 7,8 C 18,7 C 14,5 km/h (3 Bft) 100,00 %
01.06.2020 21:24 18,7 C 48 % 0,0 l/m 3,4 km/h (1 Bft) O-NO 70 0 min 0 min 0,000 mm 0,0 UV-I 0 W/m 7,5 C 18,7 C 4,8 km/h (1 Bft) 96,15 %
01.06.2020 21:23 18,8 C 48 % 0,0 l/m 6,7 km/h (2 Bft) O-NO 58 0 min 0 min 0,000 mm 0,0 UV-I 2 W/m 7,6 C 18,8 C 11,3 km/h (2 Bft) 100,00 %
01.06.2020 21:22 18,8 C 48 % 0,0 l/m 4,1 km/h (1 Bft) O-NO 67 0 min 0 min 0,000 mm 0,0 UV-I 5 W/m 7,6 C 18,8 C 8,0 km/h (2 Bft) 96,15 %
01.06.2020 21:20 19,0 C 48 % 0,0 l/m 5,7 km/h (2 Bft) NO 54 0 min 0 min 0,000 mm 0,0 UV-I 5 W/m 7,7 C 19,0 C 8,0 km/h (2 Bft) 91,67 %
01.06.2020 21:19 19,1 C 48 % 0,0 l/m 6,1 km/h (2 Bft) O-NO 59 0 min 0 min 0,000 mm 0,0 UV-I 5 W/m 7,8 C 19,1 C 11,3 km/h (2 Bft) 100,00 %
01.06.2020 21:18 19,2 C 47 % 0,0 l/m 5,1 km/h (1 Bft) O-NO 63 0 min 0 min 0,000 mm 0,0 UV-I 5 W/m 7,6 C 19,2 C 8,0 km/h (2 Bft) 95,65 %
01.06.2020 21:17 19,2 C 47 % 0,0 l/m 5,7 km/h (2 Bft) O-NO 72 0 min 0 min 0,000 mm 0,0 UV-I 5 W/m 7,6 C 19,2 C 9,7 km/h (2 Bft) 96,55 %
01.06.2020 21:16 19,3 C 47 % 0,0 l/m 4,3 km/h (1 Bft) NO 55 0 min 0 min 0,000 mm 0,0 UV-I 6 W/m 7,7 C 19,3 C 6,4 km/h (2 Bft) 100,00 %
01.06.2020 21:15 19,3 C 47 % 0,0 l/m 6,4 km/h (2 Bft) NO 35 0 min 0 min 0,000 mm 0,0 UV-I 7 W/m 7,7 C 19,3 C 8,0 km/h (2 Bft) 93,75 %
01.06.2020 21:14 19,4 C 47 % 0,0 l/m 6,0 km/h (2 Bft) O-NO 67 0 min 0 min 0,000 mm 0,0 UV-I 7 W/m 7,8 C 19,4 C 11,3 km/h (2 Bft) 100,00 %
01.06.2020 21:13 19,4 C 47 % 0,0 l/m 4,2 km/h (1 Bft) NO 52 0 min 0 min 0,000 mm 0,0 UV-I 7 W/m 7,8 C 19,4 C 8,0 km/h (2 Bft) 91,67 %
01.06.2020 21:12 19,5 C 47 % 0,0 l/m 4,8 km/h (1 Bft) NO 54 0 min 0 min 0,000 mm 0,0 UV-I 7 W/m 7,9 C 19,5 C 9,7 km/h (2 Bft) 96,43 %
01.06.2020 21:10 19,6 C 46 % 0,0 l/m 7,6 km/h (2 Bft) O 79 0 min 0 min 0,000 mm 0,0 UV-I 9 W/m 7,7 C 19,6 C 14,5 km/h (3 Bft) 92,86 %
01.06.2020 21:09 19,7 C 46 % 0,0 l/m 3,5 km/h (1 Bft) NO 53 0 min 0 min 0,000 mm 0,0 UV-I 9 W/m 7,8 C 19,7 C 6,4 km/h (2 Bft) 95,83 %
01.06.2020 21:08 19,7 C 46 % 0,0 l/m 4,7 km/h (1 Bft) O 80 0 min 0 min 0,000 mm 0,0 UV-I 9 W/m 7,8 C 19,7 C 6,4 km/h (2 Bft) 95,65 %
01.06.2020 21:07 19,8 C 46 % 0,0 l/m 4,3 km/h (1 Bft) NO 42 0 min 0 min 0,000 mm 0,0 UV-I 9 W/m 7,8 C 19,8 C 6,4 km/h (2 Bft) 96,15 %
01.06.2020 21:06 19,8 C 46 % 0,0 l/m 5,9 km/h (2 Bft) NO 49 0 min 0 min 0,000 mm 0,0 UV-I 9 W/m 7,8 C 19,8 C 14,5 km/h (3 Bft) 95,83 %
01.06.2020 21:05 19,9 C 46 % 0,0 l/m 5,8 km/h (2 Bft) NO 40 0 min 0 min 0,000 mm 0,0 UV-I 10 W/m 7,9 C 19,9 C 9,7 km/h (2 Bft) 97,37 %
01.06.2020 21:04 19,9 C 45 % 0,0 l/m 5,6 km/h (2 Bft) NO 36 0 min 0 min 0,000 mm 0,0 UV-I 11 W/m 7,6 C 19,9 C 11,3 km/h (2 Bft) 100,00 %
01.06.2020 21:02 20,1 C 46 % 0,0 l/m 5,8 km/h (2 Bft) NO 42 0 min 0 min 0,101 mm 0,0 UV-I 11 W/m 8,1 C 20,1 C 12,9 km/h (3 Bft) 100,00 %
01.06.2020 21:00 20,1 C 45 % 0,0 l/m 6,4 km/h (2 Bft) O-NO 61 0 min 0 min 0,000 mm 0,0 UV-I 12 W/m 7,8 C 20,1 C 9,7 km/h (2 Bft) 96,15 %
01.06.2020 20:59 20,2 C 45 % 0,0 l/m 5,3 km/h (1 Bft) NO 53 0 min 0 min 0,000 mm 0,0 UV-I 12 W/m 7,9 C 20,2 C 8,0 km/h (2 Bft) 100,00 %
01.06.2020 20:58 20,3 C 45 % 0,0 l/m 7,3 km/h (2 Bft) NO 41 0 min 0 min 0,000 mm 0,0 UV-I 12 W/m 8,0 C 20,3 C 12,9 km/h (3 Bft) 100,00 %
01.06.2020 20:57 20,3 C 45 % 0,0 l/m 9,5 km/h (2 Bft) O-NO 57 0 min 0 min 0,000 mm 0,0 UV-I 14 W/m 8,0 C 20,3 C 14,5 km/h (3 Bft) 100,00 %
01.06.2020 20:56 20,4 C 45 % 0,0 l/m 6,0 km/h (2 Bft) NO 46 0 min 0 min 0,000 mm 0,0 UV-I 14 W/m 8,1 C 20,4 C 9,7 km/h (2 Bft) 96,55 %
01.06.2020 20:55 20,5 C 45 % 0,0 l/m 4,7 km/h (1 Bft) O-NO 65 0 min 0 min 0,000 mm 0,0 UV-I 16 W/m 8,2 C 20,5 C 6,4 km/h (2 Bft) 96,15 %
01.06.2020 20:54 20,5 C 44 % 0,0 l/m 6,3 km/h (2 Bft) NO 42 0 min 0 min 0,000 mm 0,0 UV-I 18 W/m 7,8 C 20,5 C 9,7 km/h (2 Bft) 100,00 %
01.06.2020 20:53 20,6 C 45 % 0,0 l/m 7,2 km/h (2 Bft) NO 38 0 min 0 min 0,000 mm 0,0 UV-I 19 W/m 8,2 C 20,6 C 11,3 km/h (2 Bft) 100,00 %
01.06.2020 20:52 20,6 C 45 % 0,0 l/m 6,3 km/h (2 Bft) O-NO 76 0 min 0 min 0,000 mm 0,0 UV-I 22 W/m 8,2 C 20,6 C 9,7 km/h (2 Bft) 100,00 %
01.06.2020 20:50 20,7 C 44 % 0,0 l/m 4,0 km/h (1 Bft) NO 51 0 min 0 min 0,000 mm 0,0 UV-I 26 W/m 8,0 C 20,7 C 4,8 km/h (1 Bft) 100,00 %
01.06.2020 20:49 20,7 C 44 % 0,0 l/m 3,9 km/h (1 Bft) O-NO 61 0 min 0 min 0,000 mm 0,0 UV-I 29 W/m 8,0 C 20,7 C 6,4 km/h (2 Bft) 100,00 %
01.06.2020 20:48 20,8 C 44 % 0,0 l/m 3,9 km/h (1 Bft) O-NO 74 0 min 0 min 0,000 mm 0,0 UV-I 30 W/m 8,1 C 20,8 C 6,4 km/h (2 Bft) 100,00 %
01.06.2020 20:47 20,8 C 44 % 0,0 l/m 4,4 km/h (1 Bft) NO 53 0 min 0 min 0,000 mm 0,0 UV-I 30 W/m 8,1 C 20,8 C 6,4 km/h (2 Bft) 100,00 %
01.06.2020 20:46 20,8 C 44 % 0,0 l/m 5,4 km/h (2 Bft) O-NO 65 0 min 0 min 0,000 mm 0,0 UV-I 30 W/m 8,1 C 20,8 C 6,4 km/h (2 Bft) 100,00 %
01.06.2020 20:45 20,9 C 44 % 0,0 l/m 5,5 km/h (2 Bft) NO 50 0 min 0 min 0,000 mm 0,0 UV-I 30 W/m 8,2 C 20,9 C 9,7 km/h (2 Bft) 100,00 %
01.06.2020 20:44 20,9 C 44 % 0,0 l/m 5,8 km/h (2 Bft) NO 40 0 min 0 min 0,000 mm 0,0 UV-I 32 W/m 8,2 C 20,9 C 6,4 km/h (2 Bft) 93,33 %
01.06.2020 20:43 21,0 C 44 % 0,0 l/m 5,1 km/h (1 Bft) NO 55 0 min 0 min 0,000 mm 0,0 UV-I 31 W/m 8,3 C 21,0 C 8,0 km/h (2 Bft) 100,00 %
01.06.2020 20:42 21,0 C 43 % 0,0 l/m 5,2 km/h (1 Bft) NO 41 0 min 0 min 0,000 mm 0,0 UV-I 26 W/m 7,9 C 21,0 C 9,7 km/h (2 Bft) 97,96 %
01.06.2020 20:40 21,1 C 43 % 0,0 l/m 9,2 km/h (2 Bft) NO 45 0 min 0 min 0,000 mm 0,0 UV-I 27 W/m 8,0 C 21,1 C 14,5 km/h (3 Bft) 100,00 %
01.06.2020 20:39 21,1 C 43 % 0,0 l/m 4,0 km/h (1 Bft) O-NO 61 0 min 0 min 0,000 mm 0,0 UV-I 32 W/m 8,0 C 21,1 C 6,4 km/h (2 Bft) 95,65 %
01.06.2020 20:38 21,2 C 43 % 0,0 l/m 5,8 km/h (2 Bft) NO 55 0 min 0 min 0,000 mm 0,0 UV-I 41 W/m 8,1 C 21,2 C 8,0 km/h (2 Bft) 95,83 %
01.06.2020 20:37 21,2 C 42 % 0,0 l/m 5,1 km/h (1 Bft) NO 53 0 min 0 min 0,000 mm 0,0 UV-I 45 W/m 7,8 C 21,2 C 8,0 km/h (2 Bft) 100,00 %
01.06.2020 20:36 21,2 C 43 % 0,0 l/m 5,4 km/h (2 Bft) O-NO 59 0 min 0 min 0,000 mm 0,0 UV-I 48 W/m 8,1 C 21,2 C 8,0 km/h (2 Bft) 92,86 %
01.06.2020 20:35 21,3 C 43 % 0,0 l/m 6,7 km/h (2 Bft) O-NO 57 0 min 0 min 0,000 mm 0,0 UV-I 42 W/m 8,2 C 21,3 C 12,9 km/h (3 Bft) 100,00 %
01.06.2020 20:34 21,3 C 42 % 0,0 l/m 4,2 km/h (1 Bft) NO 55 0 min 0 min 0,000 mm 0,0 UV-I 33 W/m 7,9 C 21,3 C 6,4 km/h (2 Bft) 100,00 %
01.06.2020 20:33 21,3 C 42 % 0,0 l/m 6,5 km/h (2 Bft) O-NO 57 0 min 0 min 0,000 mm 0,0 UV-I 32 W/m 7,9 C 21,3 C 11,3 km/h (2 Bft) 100,00 %
01.06.2020 20:32 21,3 C 42 % 0,0 l/m 5,7 km/h (2 Bft) NO 40 0 min 0 min 0,000 mm 0,0 UV-I 44 W/m 7,9 C 21,3 C 14,5 km/h (3 Bft) 100,00 %
01.06.2020 20:30 21,4 C 42 % 0,0 l/m 8,0 km/h (2 Bft) NO 39 0 min 0 min 0,000 mm 0,0 UV-I 56 W/m 8,0 C 21,4 C 14,5 km/h (3 Bft) 100,00 %
01.06.2020 20:29 21,4 C 42 % 0,0 l/m 8,9 km/h (2 Bft) O 90 0 min 0 min 0,000 mm 0,0 UV-I 58 W/m 8,0 C 21,4 C 16,1 km/h (3 Bft) 95,65 %
01.06.2020 20:28 21,5 C 42 % 0,0 l/m 7,8 km/h (2 Bft) NO 43 0 min 0 min 0,000 mm 0,0 UV-I 58 W/m 8,0 C 21,5 C 14,5 km/h (3 Bft) 100,00 %
01.06.2020 20:27 21,5 C 42 % 0,0 l/m 5,5 km/h (2 Bft) NO 42 0 min 0 min 0,000 mm 0,0 UV-I 58 W/m 8,0 C 21,5 C 9,7 km/h (2 Bft) 100,00 %
01.06.2020 20:26 21,6 C 42 % 0,0 l/m 7,1 km/h (2 Bft) O 90 0 min 0 min 0,000 mm 0,0 UV-I 65 W/m 8,1 C 21,6 C 9,7 km/h (2 Bft) 100,00 %
01.06.2020 20:25 21,6 C 42 % 0,0 l/m 6,4 km/h (2 Bft) NO 38 0 min 0 min 0,000 mm 0,0 UV-I 70 W/m 8,1 C 21,6 C 9,7 km/h (2 Bft) 100,00 %
01.06.2020 20:24 21,6 C 42 % 0,0 l/m 6,8 km/h (2 Bft) NO 48 0 min 0 min 0,000 mm 0,0 UV-I 68 W/m 8,1 C 21,6 C 9,7 km/h (2 Bft) 100,00 %
01.06.2020 20:23 21,6 C 42 % 0,0 l/m 7,3 km/h (2 Bft) O-SO 121 0 min 0 min 0,000 mm 0,0 UV-I 71 W/m 8,1 C 21,6 C 9,7 km/h (2 Bft) 100,00 %
01.06.2020 20:22 21,7 C 42 % 0,0 l/m 8,8 km/h (2 Bft) O-NO 66 2 min 0 min 0,000 mm 0,0 UV-I 76 W/m 8,2 C 21,7 C 17,7 km/h (3 Bft) 98,11 %
01.06.2020 20:20 21,7 C 41 % 0,0 l/m 7,4 km/h (2 Bft) NO 47 0 min 0 min 0,000 mm 0,0 UV-I 77 W/m 7,9 C 21,7 C 16,1 km/h (3 Bft) 100,00 %
01.06.2020 20:19 21,8 C 41 % 0,0 l/m 9,1 km/h (2 Bft) NO 44 0 min 0 min 0,000 mm 0,0 UV-I 76 W/m 8,0 C 21,8 C 14,5 km/h (3 Bft) 100,00 %
01.06.2020 20:18 21,8 C 41 % 0,0 l/m 9,4 km/h (2 Bft) O-NO 61 0 min 0 min 0,000 mm 0,0 UV-I 73 W/m 8,0 C 21,8 C 16,1 km/h (3 Bft) 100,00 %
01.06.2020 20:17 21,9 C 40 % 0,0 l/m 5,5 km/h (2 Bft) NO 46 0 min 0 min 0,000 mm 0,0 UV-I 75 W/m 7,7 C 21,9 C 9,7 km/h (2 Bft) 100,00 %
01.06.2020 20:16 21,9 C 41 % 0,0 l/m 7,5 km/h (2 Bft) O-NO 76 1 min 0 min 0,000 mm 0,0 UV-I 83 W/m 8,0 C 21,9 C 12,9 km/h (3 Bft) 100,00 %
01.06.2020 20:15 22,0 C 40 % 0,0 l/m 9,7 km/h (2 Bft) O-NO 76 0 min 0 min 0,000 mm 0,0 UV-I 78 W/m 7,8 C 22,0 C 16,1 km/h (3 Bft) 100,00 %
01.06.2020 20:14 22,0 C 40 % 0,0 l/m 8,2 km/h (2 Bft) NO 47 0 min 0 min 0,000 mm 0,0 UV-I 82 W/m 7,8 C 22,0 C 12,9 km/h (3 Bft) 100,00 %
01.06.2020 20:13 22,1 C 40 % 0,0 l/m 10,6 km/h (2 Bft) O-NO 68 0 min 0 min 0,000 mm 0,0 UV-I 74 W/m 7,9 C 22,1 C 17,7 km/h (3 Bft) 95,65 %
01.06.2020 20:12 22,1 C 40 % 0,0 l/m 6,4 km/h (2 Bft) O 83 0 min 0 min 0,000 mm 0,0 UV-I 68 W/m 7,9 C 22,1 C 11,3 km/h (2 Bft) 96,30 %
01.06.2020 20:10 22,1 C 40 % 0,0 l/m 9,7 km/h (2 Bft) NO 52 0 min 0 min 0,000 mm 0,0 UV-I 89 W/m 7,9 C 22,1 C 17,7 km/h (3 Bft) 92,86 %
01.06.2020 20:09 22,2 C 40 % 0,0 l/m 6,0 km/h (2 Bft) NO 38 1 min 0 min 0,000 mm 0,0 UV-I 107 W/m 8,0 C 22,2 C 9,7 km/h (2 Bft) 96,30 %
01.06.2020 20:08 22,2 C 40 % 0,0 l/m 6,4 km/h (2 Bft) NO 43 1 min 0 min 0,000 mm 0,0 UV-I 115 W/m 8,0 C 22,2 C 8,0 km/h (2 Bft) 95,12 %
01.06.2020 20:07 22,2 C 40 % 0,0 l/m 11,3 km/h (2 Bft) NO 55 1 min 0 min 0,000 mm 0,0 UV-I 121 W/m 8,0 C 22,2 C 17,7 km/h (3 Bft) 83,33 %
01.06.2020 20:06 22,2 C 40 % 0,0 l/m 9,9 km/h (2 Bft) O-NO 71 1 min 0 min 0,000 mm 0,0 UV-I 123 W/m 8,0 C 22,2 C 14,5 km/h (3 Bft) 100,00 %
01.06.2020 20:05 22,3 C 39 % 0,0 l/m 7,8 km/h (2 Bft) O 86 1 min 0 min 0,000 mm 0,0 UV-I 127 W/m 7,7 C 22,3 C 14,5 km/h (3 Bft) 91,67 %
01.06.2020 20:04 22,3 C 39 % 0,0 l/m 8,7 km/h (2 Bft) O-NO 76 2 min 0 min 0,000 mm 0,0 UV-I 131 W/m 7,7 C 22,3 C 17,7 km/h (3 Bft) 97,96 %
01.06.2020 20:02 22,4 C 39 % 0,0 l/m 10,6 km/h (2 Bft) NO 41 2 min 0 min 0,254 mm 0,0 UV-I 136 W/m 7,8 C 22,4 C 16,1 km/h (3 Bft) 98,00 %
01.06.2020 20:00 22,4 C 39 % 0,0 l/m 7,8 km/h (2 Bft) NO 38 1 min 0 min 0,000 mm 0,0 UV-I 141 W/m 7,8 C 22,4 C 19,3 km/h (3 Bft) 100,00 %
01.06.2020 19:59 22,4 C 39 % 0,0 l/m 14,3 km/h (3 Bft) O-NO 60 1 min 0 min 0,000 mm 0,0 UV-I 144 W/m 7,8 C 22,4 C 20,9 km/h (4 Bft) 96,15 %
01.06.2020 19:58 22,4 C 39 % 0,0 l/m 6,9 km/h (2 Bft) NO 39 1 min 0 min 0,000 mm 0,0 UV-I 148 W/m 7,8 C 22,4 C 14,5 km/h (3 Bft) 96,15 %
01.06.2020 19:57 22,5 C 39 % 0,0 l/m 7,6 km/h (2 Bft) O-NO 57 1 min 0 min 0,000 mm 0,0 UV-I 150 W/m 7,8 C 22,5 C 14,5 km/h (3 Bft) 100,00 %
01.06.2020 19:56 22,5 C 39 % 0,0 l/m 6,6 km/h (2 Bft) NO 42 1 min 0 min 0,000 mm 0,0 UV-I 154 W/m 7,8 C 22,5 C 14,5 km/h (3 Bft) 96,15 %
01.06.2020 19:55 22,6 C 38 % 0,0 l/m 6,8 km/h (2 Bft) O 97 1 min 0 min 0,000 mm 0,0 UV-I 156 W/m 7,6 C 22,6 C 12,9 km/h (3 Bft) 100,00 %
01.06.2020 19:54 22,6 C 38 % 0,0 l/m 12,8 km/h (3 Bft) O 84 1 min 0 min 0,000 mm 0,0 UV-I 160 W/m 7,6 C 22,6 C 17,7 km/h (3 Bft) 92,86 %
01.06.2020 19:53 22,7 C 38 % 0,0 l/m 11,1 km/h (2 Bft) NO 41 1 min 0 min 0,000 mm 0,0 UV-I 163 W/m 7,6 C 22,7 C 17,7 km/h (3 Bft) 100,00 %
01.06.2020 19:52 22,7 C 37 % 0,0 l/m 10,8 km/h (2 Bft) NO 36 2 min 0 min 0,000 mm 0,0 UV-I 168 W/m 7,3 C 22,7 C 19,3 km/h (3 Bft) 95,74 %
01.06.2020 19:50 22,8 C 38 % 0,0 l/m 6,6 km/h (2 Bft) NO 46 1 min 0 min 0,000 mm 0,0 UV-I 172 W/m 7,7 C 22,8 C 12,9 km/h (3 Bft) 100,00 %
01.06.2020 19:49 22,8 C 37 % 0,0 l/m 7,6 km/h (2 Bft) O-NO 61 1 min 0 min 0,000 mm 0,0 UV-I 177 W/m 7,3 C 22,8 C 12,9 km/h (3 Bft) 100,00 %
01.06.2020 19:48 22,8 C 37 % 0,0 l/m 14,3 km/h (3 Bft) O-NO 71 1 min 0 min 0,000 mm 0,0 UV-I 180 W/m 7,3 C 22,8 C 19,3 km/h (3 Bft) 100,00 %
01.06.2020 19:47 22,9 C 37 % 0,0 l/m 15,1 km/h (3 Bft) NO 49 1 min 0 min 0,000 mm 0,0 UV-I 184 W/m 7,4 C 22,9 C 24,1 km/h (4 Bft) 100,00 %
01.06.2020 19:46 22,9 C 37 % 0,0 l/m 15,2 km/h (3 Bft) NO 36 1 min 0 min 0,000 mm 0,1 UV-I 188 W/m 7,4 C 22,9 C 20,9 km/h (4 Bft) 100,00 %
01.06.2020 19:45 22,9 C 37 % 0,0 l/m 9,3 km/h (2 Bft) O-NO 57 1 min 0 min 0,000 mm 0,5 UV-I 190 W/m 7,4 C 22,9 C 19,3 km/h (3 Bft) 95,65 %
01.06.2020 19:44 23,0 C 37 % 0,0 l/m 12,5 km/h (2 Bft) O 85 1 min 0 min 0,000 mm 0,5 UV-I 194 W/m 7,5 C 23,0 C 20,9 km/h (4 Bft) 96,88 %
01.06.2020 19:43 23,0 C 37 % 0,0 l/m 13,0 km/h (3 Bft) O-NO 59 1 min 0 min 0,000 mm 0,5 UV-I 199 W/m 7,5 C 23,0 C 17,7 km/h (3 Bft) 93,33 %
01.06.2020 19:42 23,0 C 37 % 0,0 l/m 10,7 km/h (2 Bft) N-NO 30 2 min 0 min 0,000 mm 0,5 UV-I 204 W/m 7,5 C 23,0 C 17,7 km/h (3 Bft) 97,56 %
01.06.2020 19:40 23,1 C 38 % 0,0 l/m 13,8 km/h (3 Bft) NO 44 1 min 0 min 0,000 mm 0,5 UV-I 203 W/m 8,0 C 23,1 C 20,9 km/h (4 Bft) 100,00 %
01.06.2020 19:39 23,1 C 37 % 0,0 l/m 6,7 km/h (2 Bft) NO 43 1 min 0 min 0,000 mm 0,5 UV-I 212 W/m 7,6 C 23,1 C 22,5 km/h (4 Bft) 95,83 %
01.06.2020 19:38 23,1 C 37 % 0,0 l/m 12,6 km/h (3 Bft) O-NO 65 1 min 0 min 0,000 mm 0,5 UV-I 213 W/m 7,6 C 23,1 C 16,1 km/h (3 Bft) 100,00 %
01.06.2020 19:37 23,2 C 37 % 0,0 l/m 9,4 km/h (2 Bft) O 95 1 min 0 min 0,000 mm 0,5 UV-I 216 W/m 7,7 C 23,1 C 17,7 km/h (3 Bft) 100,00 %
01.06.2020 19:36 23,2 C 37 % 0,0 l/m 7,7 km/h (2 Bft) O 87 1 min 0 min 0,000 mm 0,5 UV-I 220 W/m 7,7 C 23,2 C 14,5 km/h (3 Bft) 100,00 %
01.06.2020 19:35 23,2 C 36 % 0,0 l/m 13,9 km/h (3 Bft) O-NO 64 1 min 0 min 0,000 mm 0,5 UV-I 223 W/m 7,3 C 23,2 C 19,3 km/h (3 Bft) 100,00 %
01.06.2020 19:34 23,3 C 37 % 0,0 l/m 11,8 km/h (2 Bft) O-NO 67 1 min 0 min 0,000 mm 0,5 UV-I 228 W/m 7,8 C 23,3 C 19,3 km/h (3 Bft) 100,00 %
01.06.2020 19:33 23,3 C 36 % 0,0 l/m 13,7 km/h (3 Bft) NO 37 1 min 0 min 0,000 mm 0,5 UV-I 230 W/m 7,4 C 23,3 C 19,3 km/h (3 Bft) 100,00 %
01.06.2020 19:32 23,3 C 37 % 0,0 l/m 10,5 km/h (2 Bft) O-NO 65 2 min 0 min 0,000 mm 0,6 UV-I 235 W/m 7,8 C 23,3 C 19,3 km/h (3 Bft) 100,00 %
01.06.2020 19:30 23,4 C 37 % 0,0 l/m 10,0 km/h (2 Bft) NO 42 1 min 0 min 0,000 mm 0,6 UV-I 240 W/m 7,9 C 23,4 C 14,5 km/h (3 Bft) 100,00 %
01.06.2020 19:29 23,4 C 36 % 0,0 l/m 12,4 km/h (2 Bft) O-NO 63 1 min 0 min 0,000 mm 0,6 UV-I 244 W/m 7,5 C 23,4 C 16,1 km/h (3 Bft) 100,00 %
01.06.2020 19:28 23,4 C 36 % 0,0 l/m 11,5 km/h (2 Bft) O 87 1 min 0 min 0,000 mm 0,6 UV-I 247 W/m 7,5 C 23,4 C 22,5 km/h (4 Bft) 100,00 %
01.06.2020 19:27 23,4 C 37 % 0,0 l/m 9,4 km/h (2 Bft) NO 40 1 min 0 min 0,000 mm 0,6 UV-I 250 W/m 7,9 C 23,4 C 19,3 km/h (3 Bft) 100,00 %
01.06.2020 19:26 23,5 C 37 % 0,0 l/m 5,6 km/h (2 Bft) NO 46 1 min 0 min 0,000 mm 0,6 UV-I 253 W/m 8,0 C 23,5 C 8,0 km/h (2 Bft) 100,00 %
01.06.2020 19:25 23,5 C 37 % 0,0 l/m 13,4 km/h (3 Bft) NO 46 1 min 0 min 0,000 mm 0,6 UV-I 256 W/m 8,0 C 23,5 C 17,7 km/h (3 Bft) 96,55 %
01.06.2020 19:24 23,5 C 38 % 0,0 l/m 6,5 km/h (2 Bft) O-NO 57 1 min 0 min 0,000 mm 0,6 UV-I 259 W/m 8,4 C 23,5 C 16,1 km/h (3 Bft) 100,00 %
01.06.2020 19:23 23,5 C 37 % 0,0 l/m 5,3 km/h (1 Bft) NO 56 1 min 0 min 0,000 mm 0,6 UV-I 262 W/m 8,0 C 23,5 C 8,0 km/h (2 Bft) 100,00 %
01.06.2020 19:22 23,5 C 36 % 0,0 l/m 8,5 km/h (2 Bft) NO 55 2 min 0 min 0,000 mm 0,6 UV-I 266 W/m 7,6 C 23,5 C 16,1 km/h (3 Bft) 100,00 %
01.06.2020 19:20 23,6 C 37 % 0,0 l/m 8,7 km/h (2 Bft) NO 37 1 min 0 min 0,000 mm 0,7 UV-I 270 W/m 8,0 C 23,6 C 16,1 km/h (3 Bft) 100,00 %
01.06.2020 19:19 23,6 C 37 % 0,0 l/m 10,1 km/h (2 Bft) O 88 1 min 0 min 0,000 mm 0,7 UV-I 273 W/m 8,0 C 23,6 C 14,5 km/h (3 Bft) 100,00 %
01.06.2020 19:18 23,6 C 37 % 0,0 l/m 11,2 km/h (2 Bft) O-NO 74 1 min 0 min 0,000 mm 0,7 UV-I 275 W/m 8,0 C 23,6 C 14,5 km/h (3 Bft) 94,12 %
01.06.2020 19:17 23,6 C 36 % 0,0 l/m 10,0 km/h (2 Bft) O-NO 69 1 min 0 min 0,000 mm 0,7 UV-I 278 W/m 7,6 C 23,6 C 16,1 km/h (3 Bft) 100,00 %
01.06.2020 19:16 23,7 C 38 % 0,0 l/m 5,6 km/h (2 Bft) SO 136 1 min 0 min 0,000 mm 0,7 UV-I 280 W/m 8,5 C 23,6 C 11,3 km/h (2 Bft) 97,73 %
01.06.2020 19:15 23,6 C 38 % 0,0 l/m 6,0 km/h (2 Bft) NO 52 1 min 0 min 0,000 mm 0,7 UV-I 284 W/m 8,4 C 23,6 C 11,3 km/h (2 Bft) 98,13 %
01.06.2020 19:14 23,7 C 37 % 0,0 l/m 6,2 km/h (2 Bft) NO 49 1 min 0 min 0,000 mm 0,7 UV-I 286 W/m 8,1 C 23,7 C 11,3 km/h (2 Bft) 97,37 %
01.06.2020 19:13 23,7 C 38 % 0,0 l/m 10,6 km/h (2 Bft) NO 46 1 min 0 min 0,000 mm 0,7 UV-I 288 W/m 8,5 C 23,7 C 16,1 km/h (3 Bft) 100,00 %
01.06.2020 19:12 23,7 C 36 % 0,0 l/m 6,5 km/h (2 Bft) O-NO 62 2 min 0 min 0,000 mm 0,7 UV-I 293 W/m 7,7 C 23,7 C 12,9 km/h (3 Bft) 97,56 %
01.06.2020 19:10 23,7 C 38 % 0,0 l/m 8,7 km/h (2 Bft) O 88 1 min 0 min 0,000 mm 0,8 UV-I 297 W/m 8,5 C 23,7 C 17,7 km/h (3 Bft) 87,50 %
01.06.2020 19:09 23,8 C 36 % 0,0 l/m 10,6 km/h (2 Bft) O-NO 78 1 min 0 min 0,000 mm 0,8 UV-I 300 W/m 7,8 C 23,8 C 17,7 km/h (3 Bft) 95,65 %
01.06.2020 19:08 23,8 C 37 % 0,0 l/m 7,5 km/h (2 Bft) NO 53 1 min 0 min 0,000 mm 0,8 UV-I 303 W/m 8,2 C 23,8 C 16,1 km/h (3 Bft) 100,00 %
01.06.2020 19:07 23,8 C 37 % 0,0 l/m 11,1 km/h (2 Bft) NO 54 1 min 0 min 0,000 mm 0,8 UV-I 305 W/m 8,2 C 23,8 C 19,3 km/h (3 Bft) 100,00 %
01.06.2020 19:06 23,8 C 36 % 0,0 l/m 8,4 km/h (2 Bft) O-NO 69 1 min 0 min 0,000 mm 0,8 UV-I 308 W/m 7,8 C 23,8 C 14,5 km/h (3 Bft) 100,00 %
01.06.2020 19:05 23,9 C 36 % 0,0 l/m 11,8 km/h (2 Bft) NO 38 1 min 0 min 0,000 mm 0,8 UV-I 311 W/m 7,9 C 23,9 C 20,9 km/h (4 Bft) 100,00 %
01.06.2020 19:04 23,9 C 36 % 0,0 l/m 16,6 km/h (3 Bft) O 79 1 min 0 min 0,000 mm 0,8 UV-I 314 W/m 7,9 C 23,9 C 24,1 km/h (4 Bft) 100,00 %
01.06.2020 19:03 24,0 C 36 % 0,0 l/m 18,0 km/h (3 Bft) O-NO 66 1 min 0 min 0,000 mm 0,8 UV-I 318 W/m 8,0 C 24,0 C 24,1 km/h (4 Bft) 100,00 %
01.06.2020 19:02 24,1 C 37 % 0,0 l/m 14,1 km/h (3 Bft) N-NO 32 2 min 0 min 0,356 mm 0,8 UV-I 322 W/m 8,5 C 24,1 C 24,1 km/h (4 Bft) 100,00 %
01.06.2020 19:00 24,1 C 37 % 0,0 l/m 8,1 km/h (2 Bft) O-NO 71 1 min 0 min 0,000 mm 0,9 UV-I 327 W/m 8,5 C 24,1 C 16,1 km/h (3 Bft) 96,15 %
01.06.2020 18:59 24,2 C 36 % 0,0 l/m 10,1 km/h (2 Bft) O-NO 65 1 min 0 min 0,000 mm 0,9 UV-I 327 W/m 8,2 C 24,2 C 19,3 km/h (3 Bft) 100,00 %
01.06.2020 18:58 24,2 C 36 % 0,0 l/m 15,4 km/h (3 Bft) O-SO 117 1 min 0 min 0,000 mm 0,9 UV-I 330 W/m 8,2 C 24,2 C 20,9 km/h (4 Bft) 95,83 %
01.06.2020 18:57 24,2 C 36 % 0,0 l/m 13,6 km/h (3 Bft) NO 47 1 min 0 min 0,000 mm 0,9 UV-I 334 W/m 8,2 C 24,2 C 20,9 km/h (4 Bft) 95,65 %
01.06.2020 18:56 24,3 C 36 % 0,0 l/m 12,5 km/h (2 Bft) O-NO 57 1 min 0 min 0,000 mm 0,9 UV-I 338 W/m 8,3 C 24,3 C 17,7 km/h (3 Bft) 100,00 %
01.06.2020 18:55 24,3 C 36 % 0,0 l/m 10,5 km/h (2 Bft) NO 42 1 min 0 min 0,000 mm 0,9 UV-I 340 W/m 8,3 C 24,3 C 16,1 km/h (3 Bft) 95,65 %
01.06.2020 18:54 24,3 C 36 % 0,0 l/m 13,5 km/h (3 Bft) NO 55 1 min 0 min 0,000 mm 0,9 UV-I 343 W/m 8,3 C 24,3 C 22,5 km/h (4 Bft) 100,00 %
01.06.2020 18:53 24,4 C 36 % 0,0 l/m 9,6 km/h (2 Bft) NO 40 1 min 0 min 0,000 mm 1,0 UV-I 346 W/m 8,4 C 24,4 C 19,3 km/h (3 Bft) 95,65 %
01.06.2020 18:52 24,4 C 35 % 0,0 l/m 10,6 km/h (2 Bft) NO 55 2 min 0 min 0,000 mm 1,0 UV-I 351 W/m 7,9 C 24,4 C 17,7 km/h (3 Bft) 98,11 %
01.06.2020 18:50 24,4 C 36 % 0,0 l/m 10,2 km/h (2 Bft) NO 41 1 min 0 min 0,000 mm 1,0 UV-I 354 W/m 8,4 C 24,4 C 19,3 km/h (3 Bft) 100,00 %
01.06.2020 18:49 24,5 C 36 % 0,0 l/m 12,3 km/h (2 Bft) O 89 1 min 0 min 0,000 mm 1,0 UV-I 358 W/m 8,4 C 24,5 C 19,3 km/h (3 Bft) 93,33 %
01.06.2020 18:48 24,5 C 36 % 0,0 l/m 5,3 km/h (1 Bft) NO 40 1 min 0 min 0,000 mm 1,0 UV-I 362 W/m 8,4 C 24,5 C 8,0 km/h (2 Bft) 95,65 %
01.06.2020 18:47 24,5 C 35 % 0,0 l/m 10,0 km/h (2 Bft) O-NO 69 1 min 0 min 0,000 mm 1,0 UV-I 364 W/m 8,0 C 24,5 C 16,1 km/h (3 Bft) 96,30 %
01.06.2020 18:46 24,5 C 35 % 0,0 l/m 10,6 km/h (2 Bft) N-NO 28 1 min 0 min 0,000 mm 1,0 UV-I 366 W/m 8,0 C 24,5 C 20,9 km/h (4 Bft) 92,86 %
01.06.2020 18:45 24,6 C 35 % 0,0 l/m 10,7 km/h (2 Bft) NO 36 1 min 0 min 0,000 mm 1,1 UV-I 368 W/m 8,1 C 24,6 C 20,9 km/h (4 Bft) 96,15 %
01.06.2020 18:44 24,6 C 37 % 0,0 l/m 7,6 km/h (2 Bft) NO 44 1 min 0 min 0,000 mm 1,1 UV-I 371 W/m 8,9 C 24,6 C 12,9 km/h (3 Bft) 95,83 %
01.06.2020 18:43 24,6 C 36 % 0,0 l/m 6,5 km/h (2 Bft) O-SO 105 1 min 0 min 0,000 mm 1,1 UV-I 374 W/m 8,5 C 24,6 C 11,3 km/h (2 Bft) 100,00 %
01.06.2020 18:42 24,6 C 35 % 0,0 l/m 9,3 km/h (2 Bft) O-NO 67 2 min 0 min 0,000 mm 1,1 UV-I 377 W/m 8,1 C 24,6 C 17,7 km/h (3 Bft) 97,87 %
01.06.2020 18:40 24,6 C 35 % 0,0 l/m 19,5 km/h (3 Bft) O-NO 61 1 min 0 min 0,000 mm 1,1 UV-I 382 W/m 8,1 C 24,6 C 25,7 km/h (4 Bft) 95,83 %
01.06.2020 18:39 24,6 C 37 % 0,0 l/m 9,1 km/h (2 Bft) N-NO 28 1 min 0 min 0,000 mm 1,1 UV-I 384 W/m 8,9 C 24,6 C 22,5 km/h (4 Bft) 97,67 %
01.06.2020 18:38 24,6 C 38 % 0,0 l/m 8,9 km/h (2 Bft) O-NO 64 1 min 0 min 0,000 mm 1,1 UV-I 387 W/m 9,3 C 24,6 C 14,5 km/h (3 Bft) 98,16 %
01.06.2020 18:37 24,6 C 36 % 0,0 l/m 6,9 km/h (2 Bft) N-NO 28 1 min 0 min 0,000 mm 1,2 UV-I 389 W/m 8,5 C 24,6 C 11,3 km/h (2 Bft) 100,00 %
01.06.2020 18:36 24,6 C 36 % 0,0 l/m 5,6 km/h (2 Bft) N-NO 19 1 min 0 min 0,000 mm 1,2 UV-I 394 W/m 8,5 C 24,6 C 8,0 km/h (2 Bft) 100,00 %
01.06.2020 18:35 24,6 C 37 % 0,0 l/m 3,6 km/h (1 Bft) NO 38 1 min 0 min 0,000 mm 1,2 UV-I 396 W/m 8,9 C 24,6 C 11,3 km/h (2 Bft) 100,00 %
01.06.2020 18:34 24,6 C 36 % 0,0 l/m 8,3 km/h (2 Bft) O-SO 109 1 min 0 min 0,000 mm 1,2 UV-I 399 W/m 8,5 C 24,6 C 11,3 km/h (2 Bft) 100,00 %
01.06.2020 18:33 24,6 C 35 % 0,0 l/m 13,1 km/h (3 Bft) NO 45 1 min 0 min 0,000 mm 1,2 UV-I 402 W/m 8,1 C 24,6 C 16,1 km/h (3 Bft) 100,00 %
01.06.2020 18:32 24,6 C 36 % 0,0 l/m 13,9 km/h (3 Bft) NO 50 2 min 0 min 0,000 mm 1,2 UV-I 407 W/m 8,5 C 24,6 C 22,5 km/h (4 Bft) 100,00 %
01.06.2020 18:30 24,6 C 37 % 0,0 l/m 11,1 km/h (2 Bft) O-NO 75 1 min 0 min 0,000 mm 1,3 UV-I 411 W/m 8,9 C 24,6 C 17,7 km/h (3 Bft) 100,00 %
01.06.2020 18:29 24,6 C 37 % 0,0 l/m 8,2 km/h (2 Bft) NO 40 1 min 0 min 0,000 mm 1,3 UV-I 412 W/m 8,9 C 24,6 C 16,1 km/h (3 Bft) 100,00 %
01.06.2020 18:28 24,6 C 36 % 0,0 l/m 5,0 km/h (1 Bft) O-NO 57 1 min 0 min 0,000 mm 1,3 UV-I 416 W/m 8,5 C 24,6 C 9,7 km/h (2 Bft) 100,00 %
01.06.2020 18:27 24,6 C 36 % 0,0 l/m 7,8 km/h (2 Bft) NO 50 1 min 0 min 0,000 mm 1,3 UV-I 418 W/m 8,5 C 24,6 C 11,3 km/h (2 Bft) 100,00 %
01.06.2020 18:26 24,6 C 37 % 0,0 l/m 8,7 km/h (2 Bft) NO 46 1 min 0 min 0,000 mm 1,3 UV-I 422 W/m 8,9 C 24,6 C 14,5 km/h (3 Bft) 100,00 %
01.06.2020 18:25 24,6 C 39 % 0,0 l/m 4,9 km/h (1 Bft) NO 53 1 min 0 min 0,000 mm 1,3 UV-I 424 W/m 9,7 C 24,6 C 6,4 km/h (2 Bft) 100,00 %
01.06.2020 18:24 24,6 C 37 % 0,0 l/m 5,1 km/h (1 Bft) O 85 2 min 0 min 0,000 mm 1,3 UV-I 426 W/m 8,9 C 24,6 C 11,3 km/h (2 Bft) 100,00 %
01.06.2020 18:22 24,6 C 36 % 0,0 l/m 7,8 km/h (2 Bft) O 88 2 min 0 min 0,000 mm 1,3 UV-I 433 W/m 8,5 C 24,6 C 14,5 km/h (3 Bft) 97,56 %
01.06.2020 18:20 24,6 C 36 % 0,0 l/m 10,7 km/h (2 Bft) O-NO 64 1 min 0 min 0,000 mm 1,3 UV-I 438 W/m 8,5 C 24,6 C 16,1 km/h (3 Bft) 100,00 %
01.06.2020 18:19 24,6 C 35 % 0,0 l/m 13,1 km/h (3 Bft) NO 42 1 min 0 min 0,000 mm 1,3 UV-I 439 W/m 8,1 C 24,6 C 17,7 km/h (3 Bft) 91,30 %
01.06.2020 18:18 24,7 C 35 % 0,0 l/m 12,3 km/h (2 Bft) N-NO 32 1 min 0 min 0,000 mm 1,3 UV-I 442 W/m 8,2 C 24,7 C 19,3 km/h (3 Bft) 95,83 %
01.06.2020 18:17 24,7 C 36 % 0,0 l/m 11,4 km/h (2 Bft) N-NO 24 1 min 0 min 0,000 mm 1,3 UV-I 446 W/m 8,6 C 24,7 C 17,7 km/h (3 Bft) 95,65 %
01.06.2020 18:16 24,8 C 36 % 0,0 l/m 16,2 km/h (3 Bft) N-NO 22 1 min 0 min 0,000 mm 1,3 UV-I 450 W/m 8,7 C 24,8 C 22,5 km/h (4 Bft) 100,00 %
01.06.2020 18:15 24,8 C 34 % 0,0 l/m 10,1 km/h (2 Bft) NO 54 1 min 0 min 0,000 mm 1,3 UV-I 452 W/m 7,9 C 24,8 C 17,7 km/h (3 Bft) 95,65 %
01.06.2020 18:14 24,8 C 34 % 0,0 l/m 18,4 km/h (3 Bft) O-NO 57 1 min 0 min 0,000 mm 1,3 UV-I 454 W/m 7,9 C 24,8 C 25,7 km/h (4 Bft) 100,00 %
01.06.2020 18:13 24,9 C 35 % 0,0 l/m 16,6 km/h (3 Bft) O-NO 58 1 min 0 min 0,000 mm 1,3 UV-I 457 W/m 8,4 C 24,9 C 20,9 km/h (4 Bft) 96,15 %
01.06.2020 18:12 24,9 C 35 % 0,0 l/m 13,6 km/h (3 Bft) NO 47 2 min 0 min 0,000 mm 1,4 UV-I 462 W/m 8,4 C 24,9 C 25,7 km/h (4 Bft) 100,00 %
01.06.2020 18:10 25,0 C 34 % 0,0 l/m 11,6 km/h (2 Bft) NO 38 1 min 0 min 0,000 mm 1,4 UV-I 466 W/m 8,0 C 25,0 C 20,9 km/h (4 Bft) 100,00 %
01.06.2020 18:09 25,0 C 36 % 0,0 l/m 14,4 km/h (3 Bft) O-NO 61 1 min 0 min 0,000 mm 1,4 UV-I 470 W/m 8,9 C 25,0 C 19,3 km/h (3 Bft) 90,00 %
01.06.2020 18:08 25,0 C 37 % 0,0 l/m 9,1 km/h (2 Bft) N-NO 28 1 min 0 min 0,000 mm 1,4 UV-I 471 W/m 9,3 C 25,0 C 17,7 km/h (3 Bft) 100,00 %
01.06.2020 18:07 25,0 C 35 % 0,0 l/m 6,8 km/h (2 Bft) O-NO 78 1 min 0 min 0,000 mm 1,5 UV-I 473 W/m 8,5 C 25,0 C 12,9 km/h (3 Bft) 100,00 %
01.06.2020 18:06 25,0 C 35 % 0,0 l/m 11,0 km/h (2 Bft) O-NO 74 1 min 0 min 0,000 mm 1,5 UV-I 476 W/m 8,5 C 25,0 C 17,7 km/h (3 Bft) 100,00 %
01.06.2020 18:05 25,0 C 34 % 0,0 l/m 10,5 km/h (2 Bft) N-NO 22 1 min 0 min 0,000 mm 1,6 UV-I 479 W/m 8,0 C 25,0 C 14,5 km/h (3 Bft) 100,00 %
01.06.2020 18:04 25,1 C 35 % 0,0 l/m 11,7 km/h (2 Bft) O-NO 66 1 min 0 min 0,000 mm 1,6 UV-I 482 W/m 8,6 C 25,1 C 17,7 km/h (3 Bft) 100,00 %
01.06.2020 18:03 25,1 C 36 % 0,0 l/m 10,5 km/h (2 Bft) NO 34 1 min 0 min 0,000 mm 1,6 UV-I 482 W/m 9,0 C 25,1 C 14,5 km/h (3 Bft) 95,65 %
01.06.2020 18:02 25,1 C 35 % 0,0 l/m 12,1 km/h (2 Bft) O 85 2 min 0 min 0,482 mm 1,6 UV-I 485 W/m 8,6 C 25,1 C 20,9 km/h (4 Bft) 97,37 %
01.06.2020 18:00 25,1 C 35 % 0,0 l/m 10,8 km/h (2 Bft) O-NO 62 1 min 0 min 0,000 mm 1,7 UV-I 490 W/m 8,6 C 25,1 C 17,7 km/h (3 Bft) 100,00 %
01.06.2020 17:59 25,1 C 35 % 0,0 l/m 18,0 km/h (3 Bft) NO 36 1 min 0 min 0,000 mm 1,7 UV-I 493 W/m 8,6 C 25,1 C 25,7 km/h (4 Bft) 100,00 %
01.06.2020 17:58 25,1 C 35 % 0,0 l/m 9,5 km/h (2 Bft) N-NO 13 1 min 0 min 0,000 mm 1,8 UV-I 495 W/m 8,6 C 25,1 C 25,7 km/h (4 Bft) 94,12 %
01.06.2020 17:57 25,2 C 35 % 0,0 l/m 9,1 km/h (2 Bft) NO 36 1 min 0 min 0,000 mm 1,8 UV-I 498 W/m 8,6 C 25,2 C 16,1 km/h (3 Bft) 100,00 %
01.06.2020 17:56 25,2 C 35 % 0,0 l/m 8,7 km/h (2 Bft) O 90 1 min 0 min 0,000 mm 1,8 UV-I 502 W/m 8,6 C 25,2 C 12,9 km/h (3 Bft) 100,00 %
01.06.2020 17:55 25,2 C 35 % 0,0 l/m 11,9 km/h (2 Bft) O-SO 109 1 min 0 min 0,000 mm 1,8 UV-I 506 W/m 8,6 C 25,2 C 17,7 km/h (3 Bft) 100,00 %
01.06.2020 17:54 25,2 C 34 % 0,0 l/m 10,6 km/h (2 Bft) O-NO 74 1 min 0 min 0,000 mm 1,8 UV-I 508 W/m 8,2 C 25,2 C 17,7 km/h (3 Bft) 100,00 %
01.06.2020 17:53 25,2 C 34 % 0,0 l/m 17,6 km/h (3 Bft) NO 49 1 min 0 min 0,000 mm 1,8 UV-I 509 W/m 8,2 C 25,2 C 25,7 km/h (4 Bft) 96,15 %
01.06.2020 17:52 25,3 C 35 % 0,0 l/m 11,8 km/h (2 Bft) O 79 2 min 0 min 0,000 mm 1,9 UV-I 515 W/m 8,7 C 25,3 C 27,4 km/h (5 Bft) 97,37 %
01.06.2020 17:50 25,3 C 34 % 0,0 l/m 9,5 km/h (2 Bft) NO 44 1 min 0 min 0,000 mm 1,9 UV-I 520 W/m 8,3 C 25,3 C 14,5 km/h (3 Bft) 95,83 %
01.06.2020 17:49 25,4 C 35 % 0,0 l/m 9,9 km/h (2 Bft) O-NO 60 1 min 0 min 0,000 mm 1,9 UV-I 522 W/m 8,8 C 25,4 C 14,5 km/h (3 Bft) 100,00 %
01.06.2020 17:48 25,4 C 33 % 0,0 l/m 12,6 km/h (3 Bft) O-NO 57 1 min 0 min 0,000 mm 1,9 UV-I 526 W/m 7,9 C 25,4 C 17,7 km/h (3 Bft) 96,30 %
01.06.2020 17:47 25,5 C 34 % 0,0 l/m 11,4 km/h (2 Bft) NO 38 1 min 0 min 0,000 mm 1,9 UV-I 529 W/m 8,5 C 25,5 C 19,3 km/h (3 Bft) 92,31 %
01.06.2020 17:46 25,6 C 33 % 0,0 l/m 13,0 km/h (3 Bft) NO 46 1 min 0 min 0,000 mm 1,9 UV-I 531 W/m 8,1 C 25,6 C 19,3 km/h (3 Bft) 100,00 %
01.06.2020 17:45 25,7 C 33 % 0,0 l/m 14,6 km/h (3 Bft) NO 37 1 min 0 min 0,000 mm 1,9 UV-I 534 W/m 8,2 C 25,7 C 24,1 km/h (4 Bft) 93,33 %
01.06.2020 17:44 25,7 C 34 % 0,0 l/m 9,7 km/h (2 Bft) O-NO 63 1 min 0 min 0,000 mm 1,9 UV-I 536 W/m 8,6 C 25,7 C 17,7 km/h (3 Bft) 100,00 %
01.06.2020 17:43 25,7 C 35 % 0,0 l/m 8,6 km/h (2 Bft) O-NO 71 1 min 0 min 0,000 mm 1,9 UV-I 536 W/m 9,1 C 25,7 C 12,9 km/h (3 Bft) 92,59 %
01.06.2020 17:42 25,7 C 34 % 0,0 l/m 6,2 km/h (2 Bft) O-NO 69 2 min 0 min 0,000 mm 1,9 UV-I 542 W/m 8,6 C 25,7 C 16,1 km/h (3 Bft) 97,37 %
01.06.2020 17:40 25,7 C 34 % 0,0 l/m 11,1 km/h (2 Bft) O-NO 59 1 min 0 min 0,000 mm 1,9 UV-I 545 W/m 8,6 C 25,7 C 16,1 km/h (3 Bft) 100,00 %
01.06.2020 17:39 25,7 C 35 % 0,0 l/m 7,1 km/h (2 Bft) NO 40 1 min 0 min 0,000 mm 1,9 UV-I 547 W/m 9,1 C 25,7 C 9,7 km/h (2 Bft) 86,96 %
01.06.2020 17:38 25,7 C 34 % 0,0 l/m 5,9 km/h (2 Bft) O 88 1 min 0 min 0,000 mm 1,9 UV-I 549 W/m 8,6 C 25,7 C 8,0 km/h (2 Bft) 100,00 %
01.06.2020 17:37 25,7 C 34 % 0,0 l/m 6,8 km/h (2 Bft) O-SO 117 1 min 0 min 0,000 mm 1,9 UV-I 552 W/m 8,6 C 25,7 C 14,5 km/h (3 Bft) 95,65 %
01.06.2020 17:36 25,7 C 33 % 0,0 l/m 11,1 km/h (2 Bft) O 80 1 min 0 min 0,000 mm 1,9 UV-I 556 W/m 8,2 C 25,7 C 17,7 km/h (3 Bft) 97,56 %
01.06.2020 17:35 25,8 C 33 % 0,0 l/m 8,4 km/h (2 Bft) O-NO 69 1 min 0 min 0,000 mm 1,9 UV-I 558 W/m 8,3 C 25,8 C 11,3 km/h (2 Bft) 100,00 %
01.06.2020 17:34 25,8 C 34 % 0,0 l/m 9,3 km/h (2 Bft) NO 35 1 min 0 min 0,000 mm 1,9 UV-I 560 W/m 8,7 C 25,8 C 16,1 km/h (3 Bft) 97,73 %
01.06.2020 17:33 25,9 C 34 % 0,0 l/m 10,6 km/h (2 Bft) N-NO 28 1 min 0 min 0,000 mm 1,9 UV-I 563 W/m 8,8 C 25,9 C 16,1 km/h (3 Bft) 98,17 %
01.06.2020 17:32 25,9 C 34 % 0,0 l/m 11,4 km/h (2 Bft) O-NO 57 2 min 0 min 0,000 mm 1,9 UV-I 569 W/m 8,8 C 25,9 C 16,1 km/h (3 Bft) 95,74 %
01.06.2020 17:30 25,9 C 34 % 0,0 l/m 8,3 km/h (2 Bft) NO 52 1 min 0 min 0,000 mm 1,9 UV-I 572 W/m 8,8 C 25,9 C 14,5 km/h (3 Bft) 100,00 %
01.06.2020 17:29 25,9 C 34 % 0,0 l/m 13,1 km/h (3 Bft) O-NO 69 1 min 0 min 0,000 mm 2,0 UV-I 574 W/m 8,8 C 25,9 C 17,7 km/h (3 Bft) 100,00 %
01.06.2020 17:28 25,9 C 34 % 0,0 l/m 11,9 km/h (2 Bft) O 86 1 min 0 min 0,000 mm 2,0 UV-I 575 W/m 8,8 C 25,9 C 19,3 km/h (3 Bft) 95,65 %
01.06.2020 17:27 25,9 C 34 % 0,0 l/m 12,3 km/h (2 Bft) NO 34 1 min 0 min 0,000 mm 2,0 UV-I 578 W/m 8,8 C 25,9 C 20,9 km/h (4 Bft) 96,30 %
01.06.2020 17:26 26,0 C 34 % 0,0 l/m 12,3 km/h (2 Bft) NO 39 1 min 0 min 0,000 mm 2,0 UV-I 581 W/m 8,9 C 26,0 C 22,5 km/h (4 Bft) 100,00 %
01.06.2020 17:25 26,0 C 34 % 0,0 l/m 12,0 km/h (2 Bft) O 87 1 min 0 min 0,000 mm 2,1 UV-I 585 W/m 8,9 C 26,0 C 22,5 km/h (4 Bft) 100,00 %
01.06.2020 17:24 26,0 C 33 % 0,0 l/m 6,2 km/h (2 Bft) NO 47 1 min 0 min 0,000 mm 2,1 UV-I 588 W/m 8,5 C 26,0 C 12,9 km/h (3 Bft) 96,30 %
01.06.2020 17:23 26,0 C 34 % 0,0 l/m 6,9 km/h (2 Bft) N-NO 24 1 min 0 min 0,000 mm 2,1 UV-I 590 W/m 8,9 C 26,0 C 12,9 km/h (3 Bft) 100,00 %
01.06.2020 17:22 26,0 C 34 % 0,0 l/m 9,9 km/h (2 Bft) NO 37 2 min 0 min 0,000 mm 2,2 UV-I 592 W/m 8,9 C 26,0 C 17,7 km/h (3 Bft) 96,00 %
01.06.2020 17:20 26,1 C 34 % 0,0 l/m 12,3 km/h (2 Bft) O-NO 65 1 min 0 min 0,000 mm 2,2 UV-I 596 W/m 9,0 C 26,0 C 19,3 km/h (3 Bft) 96,15 %
01.06.2020 17:19 26,0 C 35 % 0,0 l/m 8,7 km/h (2 Bft) NO 46 1 min 0 min 0,000 mm 2,3 UV-I 599 W/m 9,3 C 26,0 C 14,5 km/h (3 Bft) 100,00 %
01.06.2020 17:18 26,0 C 35 % 0,0 l/m 2,8 km/h (1 Bft) N-NO 32 1 min 0 min 0,000 mm 2,4 UV-I 602 W/m 9,3 C 26,0 C 6,4 km/h (2 Bft) 95,65 %
01.06.2020 17:17 26,0 C 35 % 0,0 l/m 6,3 km/h (2 Bft) O 95 1 min 0 min 0,000 mm 2,4 UV-I 603 W/m 9,3 C 25,9 C 9,7 km/h (2 Bft) 100,00 %
01.06.2020 17:16 25,9 C 34 % 0,0 l/m 10,8 km/h (2 Bft) O 80 1 min 0 min 0,000 mm 2,4 UV-I 605 W/m 8,8 C 25,9 C 20,9 km/h (4 Bft) 97,87 %
01.06.2020 17:15 25,9 C 35 % 0,0 l/m 14,5 km/h (3 Bft) NO 41 1 min 0 min 0,000 mm 2,5 UV-I 605 W/m 9,3 C 25,9 C 20,9 km/h (4 Bft) 98,18 %
01.06.2020 17:14 25,9 C 35 % 0,0 l/m 7,5 km/h (2 Bft) NO 48 1 min 0 min 0,000 mm 2,5 UV-I 610 W/m 9,3 C 25,9 C 11,3 km/h (2 Bft) 100,00 %
01.06.2020 17:13 25,9 C 35 % 0,0 l/m 5,4 km/h (2 Bft) NO 35 1 min 0 min 0,000 mm 2,5 UV-I 612 W/m 9,3 C 25,8 C 11,3 km/h (2 Bft) 100,00 %
01.06.2020 17:12 25,8 C 34 % 0,0 l/m 9,1 km/h (2 Bft) O-SO 115 2 min 0 min 0,000 mm 2,6 UV-I 616 W/m 8,7 C 25,8 C 22,5 km/h (4 Bft) 100,00 %
01.06.2020 17:10 25,8 C 33 % 0,0 l/m 8,2 km/h (2 Bft) O-SO 120 1 min 0 min 0,000 mm 2,7 UV-I 618 W/m 8,3 C 25,8 C 12,9 km/h (3 Bft) 100,00 %
01.06.2020 17:09 25,8 C 35 % 0,0 l/m 10,3 km/h (2 Bft) O 88 1 min 0 min 0,000 mm 2,7 UV-I 621 W/m 9,2 C 25,8 C 14,5 km/h (3 Bft) 100,00 %
01.06.2020 17:08 25,8 C 34 % 0,0 l/m 11,4 km/h (2 Bft) O 89 1 min 0 min 0,000 mm 2,7 UV-I 624 W/m 8,7 C 25,8 C 19,3 km/h (3 Bft) 100,00 %
01.06.2020 17:07 25,8 C 34 % 0,0 l/m 13,5 km/h (3 Bft) O 88 1 min 0 min 0,000 mm 2,7 UV-I 627 W/m 8,7 C 25,8 C 17,7 km/h (3 Bft) 100,00 %
01.06.2020 17:06 25,8 C 33 % 0,0 l/m 15,2 km/h (3 Bft) O 80 1 min 0 min 0,000 mm 2,8 UV-I 630 W/m 8,3 C 25,8 C 24,1 km/h (4 Bft) 100,00 %
01.06.2020 17:05 25,8 C 34 % 0,0 l/m 17,7 km/h (3 Bft) O 83 1 min 0 min 0,000 mm 2,8 UV-I 632 W/m 8,7 C 25,8 C 27,4 km/h (5 Bft) 100,00 %
01.06.2020 17:04 25,8 C 34 % 0,0 l/m 9,8 km/h (2 Bft) N 355 2 min 0 min 0,000 mm 2,8 UV-I 635 W/m 8,7 C 25,8 C 22,5 km/h (4 Bft) 100,00 %
01.06.2020 17:02 25,8 C 32 % 0,0 l/m 12,7 km/h (3 Bft) NO 36 2 min 0 min 0,559 mm 2,9 UV-I 642 W/m 7,8 C 25,8 C 19,3 km/h (3 Bft) 100,00 %
01.06.2020 17:00 25,9 C 34 % 0,0 l/m 8,5 km/h (2 Bft) O-NO 64 1 min 0 min 0,000 mm 2,9 UV-I 644 W/m 8,8 C 25,9 C 12,9 km/h (3 Bft) 100,00 %
01.06.2020 16:59 25,9 C 34 % 0,0 l/m 8,2 km/h (2 Bft) NO 53 1 min 0 min 0,000 mm 2,9 UV-I 644 W/m 8,8 C 25,9 C 14,5 km/h (3 Bft) 100,00 %
01.06.2020 16:58 25,9 C 34 % 0,0 l/m 9,3 km/h (2 Bft) O-NO 61 1 min 0 min 0,000 mm 3,0 UV-I 648 W/m 8,8 C 25,9 C 16,1 km/h (3 Bft) 95,83 %
01.06.2020 16:57 25,9 C 33 % 0,0 l/m 14,8 km/h (3 Bft) NO 53 1 min 0 min 0,000 mm 3,0 UV-I 652 W/m 8,4 C 25,9 C 25,7 km/h (4 Bft) 100,00 %
01.06.2020 16:56 25,9 C 34 % 0,0 l/m 12,1 km/h (2 Bft) NO 38 1 min 0 min 0,000 mm 3,0 UV-I 654 W/m 8,8 C 25,9 C 17,7 km/h (3 Bft) 100,00 %
01.06.2020 16:55 26,0 C 34 % 0,0 l/m 9,9 km/h (2 Bft) O 101 1 min 0 min 0,000 mm 3,0 UV-I 656 W/m 8,9 C 26,0 C 14,5 km/h (3 Bft) 96,55 %
01.06.2020 16:54 26,0 C 34 % 0,0 l/m 8,8 km/h (2 Bft) NO 45 1 min 0 min 0,000 mm 3,0 UV-I 657 W/m 8,9 C 26,0 C 12,9 km/h (3 Bft) 100,00 %
01.06.2020 16:53 26,0 C 35 % 0,0 l/m 12,0 km/h (2 Bft) NO 54 1 min 0 min 0,000 mm 3,1 UV-I 658 W/m 9,3 C 26,0 C 16,1 km/h (3 Bft) 96,15 %
01.06.2020 16:52 26,0 C 35 % 0,0 l/m 8,9 km/h (2 Bft) NO 49 2 min 0 min 0,000 mm 3,1 UV-I 662 W/m 9,3 C 25,9 C 17,7 km/h (3 Bft) 96,55 %
01.06.2020 16:50 25,9 C 36 % 0,0 l/m 4,3 km/h (1 Bft) O 90 1 min 0 min 0,000 mm 3,1 UV-I 665 W/m 9,7 C 25,9 C 6,4 km/h (2 Bft) 91,67 %
01.06.2020 16:49 25,9 C 35 % 0,0 l/m 6,5 km/h (2 Bft) O 92 1 min 0 min 0,000 mm 3,1 UV-I 669 W/m 9,3 C 25,9 C 9,7 km/h (2 Bft) 100,00 %
01.06.2020 16:48 25,9 C 32 % 0,0 l/m 9,7 km/h (2 Bft) O-SO 105 1 min 0 min 0,000 mm 3,2 UV-I 672 W/m 7,9 C 25,9 C 14,5 km/h (3 Bft) 100,00 %
01.06.2020 16:47 25,9 C 34 % 0,0 l/m 11,1 km/h (2 Bft) O 93 1 min 0 min 0,000 mm 3,2 UV-I 676 W/m 8,8 C 25,9 C 16,1 km/h (3 Bft) 100,00 %
01.06.2020 16:46 25,9 C 34 % 0,0 l/m 11,7 km/h (2 Bft) O-SO 109 1 min 0 min 0,000 mm 3,2 UV-I 678 W/m 8,8 C 25,9 C 17,7 km/h (3 Bft) 100,00 %
01.06.2020 16:45 26,0 C 32 % 0,0 l/m 9,9 km/h (2 Bft) O-NO 75 1 min 0 min 0,000 mm 3,2 UV-I 680 W/m 8,0 C 26,0 C 16,1 km/h (3 Bft) 90,91 %
01.06.2020 16:44 26,1 C 33 % 0,0 l/m 14,2 km/h (3 Bft) NO 45 1 min 0 min 0,000 mm 3,3 UV-I 682 W/m 8,6 C 26,1 C 22,5 km/h (4 Bft) 96,30 %
01.06.2020 16:43 26,1 C 33 % 0,0 l/m 10,3 km/h (2 Bft) N-NO 31 1 min 0 min 0,000 mm 3,3 UV-I 683 W/m 8,6 C 26,1 C 17,7 km/h (3 Bft) 100,00 %
01.06.2020 16:42 26,1 C 33 % 0,0 l/m 11,0 km/h (2 Bft) NO 55 2 min 0 min 0,000 mm 3,3 UV-I 684 W/m 8,6 C 26,1 C 22,5 km/h (4 Bft) 98,11 %
01.06.2020 16:40 26,1 C 33 % 0,0 l/m 7,4 km/h (2 Bft) N-NO 12 1 min 0 min 0,000 mm 3,3 UV-I 687 W/m 8,6 C 26,1 C 11,3 km/h (2 Bft) 100,00 %
01.06.2020 16:39 26,1 C 33 % 0,0 l/m 8,4 km/h (2 Bft) NO 53 1 min 0 min 0,000 mm 3,4 UV-I 689 W/m 8,6 C 26,1 C 17,7 km/h (3 Bft) 100,00 %
01.06.2020 16:38 26,1 C 34 % 0,0 l/m 9,2 km/h (2 Bft) NO 55 1 min 0 min 0,000 mm 3,4 UV-I 691 W/m 9,0 C 26,1 C 17,7 km/h (3 Bft) 100,00 %
01.06.2020 16:37 26,1 C 34 % 0,0 l/m 8,4 km/h (2 Bft) O 87 1 min 0 min 0,000 mm 3,4 UV-I 692 W/m 9,0 C 26,1 C 12,9 km/h (3 Bft) 100,00 %
01.06.2020 16:36 26,1 C 35 % 0,0 l/m 9,8 km/h (2 Bft) O-NO 70 1 min 0 min 0,000 mm 3,4 UV-I 694 W/m 9,4 C 26,1 C 16,1 km/h (3 Bft) 100,00 %
01.06.2020 16:35 26,2 C 34 % 0,0 l/m 7,8 km/h (2 Bft) O-NO 76 1 min 0 min 0,000 mm 3,5 UV-I 698 W/m 9,1 C 26,1 C 16,1 km/h (3 Bft) 94,12 %
01.06.2020 16:34 26,2 C 33 % 0,0 l/m 8,0 km/h (2 Bft) O-NO 63 1 min 0 min 0,000 mm 3,5 UV-I 701 W/m 8,6 C 26,2 C 12,9 km/h (3 Bft) 95,24 %
01.06.2020 16:33 26,2 C 34 % 0,0 l/m 10,6 km/h (2 Bft) O-NO 61 1 min 0 min 0,000 mm 3,5 UV-I 701 W/m 9,1 C 26,2 C 16,1 km/h (3 Bft) 95,65 %
01.06.2020 16:32 26,2 C 35 % 0,0 l/m 8,2 km/h (2 Bft) O 85 2 min 0 min 0,000 mm 3,5 UV-I 703 W/m 9,5 C 26,1 C 16,1 km/h (3 Bft) 96,00 %
01.06.2020 16:30 26,1 C 36 % 0,0 l/m 9,5 km/h (2 Bft) O-NO 67 1 min 0 min 0,000 mm 3,6 UV-I 709 W/m 9,8 C 26,1 C 16,1 km/h (3 Bft) 100,00 %
01.06.2020 16:29 26,1 C 35 % 0,0 l/m 7,3 km/h (2 Bft) O 91 1 min 0 min 0,000 mm 3,6 UV-I 711 W/m 9,4 C 26,1 C 14,5 km/h (3 Bft) 96,15 %
01.06.2020 16:28 26,1 C 35 % 0,0 l/m 9,4 km/h (2 Bft) O-NO 78 1 min 0 min 0,000 mm 3,6 UV-I 715 W/m 9,4 C 26,1 C 16,1 km/h (3 Bft) 95,65 %
01.06.2020 16:27 26,1 C 35 % 0,0 l/m 10,9 km/h (2 Bft) O-NO 78 1 min 0 min 0,000 mm 3,6 UV-I 714 W/m 9,4 C 26,1 C 20,9 km/h (4 Bft) 91,67 %
01.06.2020 16:26 26,1 C 35 % 0,0 l/m 6,4 km/h (2 Bft) O 94 1 min 0 min 0,000 mm 3,7 UV-I 719 W/m 9,4 C 26,1 C 11,3 km/h (2 Bft) 96,15 %
01.06.2020 16:25 26,1 C 33 % 0,0 l/m 11,0 km/h (2 Bft) SO 135 1 min 0 min 0,000 mm 3,7 UV-I 720 W/m 8,6 C 26,1 C 16,1 km/h (3 Bft) 93,33 %
01.06.2020 16:24 26,1 C 34 % 0,0 l/m 10,7 km/h (2 Bft) O-NO 74 1 min 0 min 0,000 mm 3,7 UV-I 722 W/m 9,0 C 26,1 C 19,3 km/h (3 Bft) 96,15 %
01.06.2020 16:23 26,1 C 35 % 0,0 l/m 7,7 km/h (2 Bft) NO 34 1 min 0 min 0,000 mm 3,7 UV-I 723 W/m 9,4 C 26,1 C 12,9 km/h (3 Bft) 95,12 %
01.06.2020 16:22 26,1 C 34 % 0,0 l/m 10,3 km/h (2 Bft) O-NO 59 2 min 0 min 0,000 mm 3,7 UV-I 722 W/m 9,0 C 26,1 C 17,7 km/h (3 Bft) 94,29 %
01.06.2020 16:20 26,1 C 34 % 0,0 l/m 10,3 km/h (2 Bft) O 89 1 min 0 min 0,000 mm 3,8 UV-I 725 W/m 9,0 C 26,0 C 19,3 km/h (3 Bft) 95,83 %
01.06.2020 16:19 26,0 C 37 % 0,0 l/m 8,1 km/h (2 Bft) O-SO 103 1 min 0 min 0,000 mm 3,8 UV-I 731 W/m 10,2 C 26,0 C 14,5 km/h (3 Bft) 95,65 %
01.06.2020 16:18 26,0 C 35 % 0,0 l/m 14,3 km/h (3 Bft) O-SO 111 1 min 0 min 0,000 mm 3,8 UV-I 734 W/m 9,3 C 26,0 C 24,1 km/h (4 Bft) 100,00 %
01.06.2020 16:17 26,0 C 35 % 0,0 l/m 6,0 km/h (2 Bft) O-NO 70 1 min 0 min 0,000 mm 3,8 UV-I 732 W/m 9,3 C 26,0 C 11,3 km/h (2 Bft) 95,65 %
01.06.2020 16:16 26,1 C 36 % 0,0 l/m 14,8 km/h (3 Bft) O-NO 73 1 min 0 min 0,000 mm 3,9 UV-I 732 W/m 9,8 C 26,0 C 27,4 km/h (5 Bft) 100,00 %
01.06.2020 16:15 26,0 C 34 % 0,0 l/m 3,0 km/h (1 Bft) NO 48 1 min 0 min 0,000 mm 3,9 UV-I 737 W/m 8,9 C 26,0 C 4,8 km/h (1 Bft) 100,00 %
01.06.2020 16:14 26,0 C 34 % 0,0 l/m 4,4 km/h (1 Bft) NO 53 1 min 0 min 0,000 mm 3,9 UV-I 739 W/m 8,9 C 26,0 C 11,3 km/h (2 Bft) 100,00 %
01.06.2020 16:13 26,0 C 34 % 0,0 l/m 5,3 km/h (1 Bft) O-NO 70 1 min 0 min 0,000 mm 3,9 UV-I 742 W/m 8,9 C 25,9 C 12,9 km/h (3 Bft) 100,00 %
01.06.2020 16:12 25,9 C 33 % 0,0 l/m 4,3 km/h (1 Bft) N-NO 28 2 min 0 min 0,000 mm 4,0 UV-I 744 W/m 8,4 C 25,9 C 9,7 km/h (2 Bft) 100,00 %
01.06.2020 16:10 25,9 C 33 % 0,0 l/m 5,1 km/h (1 Bft) NO 54 1 min 0 min 0,000 mm 4,0 UV-I 747 W/m 8,4 C 25,9 C 6,4 km/h (2 Bft) 100,00 %
01.06.2020 16:09 25,9 C 36 % 0,0 l/m 3,8 km/h (1 Bft) O-SO 117 1 min 0 min 0,000 mm 4,0 UV-I 751 W/m 9,7 C 25,9 C 6,4 km/h (2 Bft) 100,00 %
01.06.2020 16:08 25,9 C 36 % 0,0 l/m 3,9 km/h (1 Bft) O 98 1 min 0 min 0,000 mm 4,0 UV-I 751 W/m 9,7 C 25,8 C 9,7 km/h (2 Bft) 100,00 %
01.06.2020 16:07 25,8 C 34 % 0,0 l/m 11,3 km/h (2 Bft) O-NO 69 1 min 0 min 0,000 mm 4,0 UV-I 752 W/m 8,7 C 25,8 C 16,1 km/h (3 Bft) 100,00 %
01.06.2020 16:06 25,8 C 34 % 0,0 l/m 16,9 km/h (3 Bft) O-NO 78 1 min 0 min 0,000 mm 4,1 UV-I 753 W/m 8,7 C 25,8 C 22,5 km/h (4 Bft) 100,00 %
01.06.2020 16:05 25,8 C 35 % 0,0 l/m 15,4 km/h (3 Bft) O 90 1 min 0 min 0,000 mm 4,1 UV-I 751 W/m 9,2 C 25,7 C 22,5 km/h (4 Bft) 100,00 %
01.06.2020 16:04 25,7 C 35 % 0,0 l/m 11,0 km/h (2 Bft) O-SO 109 1 min 0 min 0,000 mm 4,1 UV-I 759 W/m 9,1 C 25,7 C 14,5 km/h (3 Bft) 100,00 %
01.06.2020 16:03 25,7 C 36 % 0,0 l/m 10,8 km/h (2 Bft) O-SO 103 1 min 0 min 0,000 mm 4,1 UV-I 759 W/m 9,5 C 25,7 C 16,1 km/h (3 Bft) 100,00 %
01.06.2020 16:02 25,7 C 35 % 0,0 l/m 10,4 km/h (2 Bft) O 100 2 min 0 min 0,610 mm 4,2 UV-I 763 W/m 9,1 C 25,7 C 19,3 km/h (3 Bft) 100,00 %
01.06.2020 16:00 25,7 C 35 % 0,0 l/m 14,4 km/h (3 Bft) N-NO 26 1 min 0 min 0,000 mm 4,2 UV-I 765 W/m 9,1 C 25,7 C 24,1 km/h (4 Bft) 100,00 %
01.06.2020 15:59 25,7 C 36 % 0,0 l/m 10,4 km/h (2 Bft) N-NO 32 1 min 0 min 0,000 mm 4,2 UV-I 765 W/m 9,5 C 25,7 C 16,1 km/h (3 Bft) 100,00 %
01.06.2020 15:58 25,7 C 35 % 0,0 l/m 7,3 km/h (2 Bft) NO 47 1 min 0 min 0,000 mm 4,2 UV-I 768 W/m 9,1 C 25,7 C 19,3 km/h (3 Bft) 100,00 %
01.06.2020 15:57 25,7 C 35 % 0,0 l/m 8,7 km/h (2 Bft) NO 46 1 min 0 min 0,000 mm 4,2 UV-I 768 W/m 9,1 C 25,7 C 16,1 km/h (3 Bft) 96,15 %
01.06.2020 15:56 25,7 C 34 % 0,0 l/m 13,3 km/h (3 Bft) N-NO 17 1 min 0 min 0,000 mm 4,3 UV-I 772 W/m 8,6 C 25,7 C 25,7 km/h (4 Bft) 100,00 %
01.06.2020 15:55 25,7 C 35 % 0,0 l/m 16,0 km/h (3 Bft) NO 38 1 min 0 min 0,000 mm 4,3 UV-I 771 W/m 9,1 C 25,7 C 19,3 km/h (3 Bft) 96,55 %
01.06.2020 15:54 25,8 C 35 % 0,0 l/m 10,6 km/h (2 Bft) O-NO 57 1 min 0 min 0,000 mm 4,3 UV-I 774 W/m 9,2 C 25,8 C 19,3 km/h (3 Bft) 100,00 %
01.06.2020 15:53 25,8 C 36 % 0,0 l/m 13,0 km/h (3 Bft) N-NO 19 1 min 0 min 0,000 mm 4,3 UV-I 775 W/m 9,6 C 25,8 C 19,3 km/h (3 Bft) 96,55 %
01.06.2020 15:52 25,8 C 35 % 0,0 l/m 9,0 km/h (2 Bft) N-NO 29 2 min 0 min 0,000 mm 4,4 UV-I 777 W/m 9,2 C 25,8 C 14,5 km/h (3 Bft) 98,00 %
01.06.2020 15:50 25,8 C 34 % 0,0 l/m 7,9 km/h (2 Bft) NO 40 1 min 0 min 0,000 mm 4,4 UV-I 780 W/m 8,7 C 25,8 C 12,9 km/h (3 Bft) 100,00 %
01.06.2020 15:49 25,9 C 33 % 0,0 l/m 7,6 km/h (2 Bft) NO 43 1 min 0 min 0,000 mm 4,4 UV-I 780 W/m 8,4 C 25,9 C 16,1 km/h (3 Bft) 100,00 %
01.06.2020 15:48 25,9 C 33 % 0,0 l/m 8,2 km/h (2 Bft) NO 42 1 min 0 min 0,000 mm 4,4 UV-I 784 W/m 8,4 C 25,9 C 19,3 km/h (3 Bft) 100,00 %
01.06.2020 15:47 25,9 C 34 % 0,0 l/m 9,1 km/h (2 Bft) N-NO 32 1 min 0 min 0,000 mm 4,5 UV-I 788 W/m 8,8 C 25,9 C 16,1 km/h (3 Bft) 100,00 %
01.06.2020 15:46 25,9 C 34 % 0,0 l/m 8,2 km/h (2 Bft) NO 50 1 min 0 min 0,000 mm 4,5 UV-I 789 W/m 8,8 C 25,9 C 16,1 km/h (3 Bft) 100,00 %
01.06.2020 15:45 25,9 C 35 % 0,0 l/m 11,2 km/h (2 Bft) O-NO 66 1 min 0 min 0,000 mm 4,5 UV-I 790 W/m 9,3 C 25,9 C 22,5 km/h (4 Bft) 100,00 %
01.06.2020 15:44 25,9 C 35 % 0,0 l/m 4,6 km/h (1 Bft) O-NO 70 1 min 0 min 0,000 mm 4,6 UV-I 793 W/m 9,3 C 25,9 C 11,3 km/h (2 Bft) 100,00 %
01.06.2020 15:43 25,9 C 35 % 0,0 l/m 14,4 km/h (3 Bft) NO 56 1 min 0 min 0,000 mm 4,6 UV-I 795 W/m 9,3 C 25,9 C 17,7 km/h (3 Bft) 91,67 %
01.06.2020 15:42 25,9 C 34 % 0,0 l/m 11,5 km/h (2 Bft) O-NO 65 2 min 0 min 0,000 mm 4,6 UV-I 796 W/m 8,8 C 25,8 C 19,3 km/h (3 Bft) 97,83 %
01.06.2020 15:40 25,8 C 37 % 0,0 l/m 5,0 km/h (1 Bft) O 90 1 min 0 min 0,000 mm 4,6 UV-I 800 W/m 10,0 C 25,8 C 12,9 km/h (3 Bft) 100,00 %
01.06.2020 15:39 25,8 C 35 % 0,0 l/m 4,6 km/h (1 Bft) O-SO 114 1 min 0 min 0,000 mm 4,7 UV-I 805 W/m 9,2 C 25,7 C 14,5 km/h (3 Bft) 100,00 %
01.06.2020 15:38 25,7 C 35 % 0,0 l/m 9,5 km/h (2 Bft) O-NO 72 1 min 0 min 0,000 mm 4,7 UV-I 805 W/m 9,1 C 25,7 C 12,9 km/h (3 Bft) 100,00 %
01.06.2020 15:37 25,7 C 34 % 0,0 l/m 12,4 km/h (2 Bft) O-NO 78 1 min 0 min 0,000 mm 4,7 UV-I 805 W/m 8,6 C 25,6 C 17,7 km/h (3 Bft) 100,00 %
01.06.2020 15:36 25,6 C 35 % 0,0 l/m 11,3 km/h (2 Bft) O 96 1 min 0 min 0,000 mm 4,7 UV-I 803 W/m 9,0 C 25,5 C 17,7 km/h (3 Bft) 100,00 %
01.06.2020 15:35 25,5 C 35 % 0,0 l/m 9,7 km/h (2 Bft) O 93 1 min 0 min 0,000 mm 4,7 UV-I 809 W/m 8,9 C 25,5 C 17,7 km/h (3 Bft) 100,00 %
01.06.2020 15:34 25,5 C 35 % 0,0 l/m 17,0 km/h (3 Bft) O-NO 67 1 min 0 min 0,000 mm 4,8 UV-I 810 W/m 8,9 C 25,4 C 22,5 km/h (4 Bft) 100,00 %
01.06.2020 15:33 25,4 C 35 % 0,0 l/m 9,4 km/h (2 Bft) O-NO 73 1 min 0 min 0,000 mm 4,8 UV-I 810 W/m 8,8 C 25,4 C 17,7 km/h (3 Bft) 100,00 %
01.06.2020 15:32 25,4 C 35 % 0,0 l/m 9,0 km/h (2 Bft) O 90 2 min 0 min 0,000 mm 4,8 UV-I 810 W/m 8,8 C 25,4 C 16,1 km/h (3 Bft) 100,00 %
01.06.2020 15:30 25,4 C 35 % 0,0 l/m 9,7 km/h (2 Bft) NO 49 1 min 0 min 0,000 mm 4,8 UV-I 813 W/m 8,8 C 25,4 C 17,7 km/h (3 Bft) 100,00 %
01.06.2020 15:29 25,4 C 35 % 0,0 l/m 8,6 km/h (2 Bft) NO 36 1 min 0 min 0,000 mm 4,9 UV-I 812 W/m 8,8 C 25,4 C 12,9 km/h (3 Bft) 100,00 %
01.06.2020 15:28 25,4 C 35 % 0,0 l/m 5,2 km/h (1 Bft) O-NO 67 1 min 0 min 0,000 mm 4,9 UV-I 814 W/m 8,8 C 25,4 C 6,4 km/h (2 Bft) 96,30 %
01.06.2020 15:27 25,4 C 35 % 0,0 l/m 8,0 km/h (2 Bft) N-NW 348 1 min 0 min 0,000 mm 4,9 UV-I 817 W/m 8,8 C 25,4 C 14,5 km/h (3 Bft) 96,15 %
01.06.2020 15:26 25,4 C 35 % 0,0 l/m 6,2 km/h (2 Bft) N-NO 13 1 min 0 min 0,000 mm 4,9 UV-I 819 W/m 8,8 C 25,3 C 16,1 km/h (3 Bft) 95,83 %
01.06.2020 15:25 25,3 C 36 % 0,0 l/m 5,1 km/h (1 Bft) N-NO 32 1 min 0 min 0,000 mm 4,9 UV-I 822 W/m 9,1 C 25,3 C 6,4 km/h (2 Bft) 96,15 %
01.06.2020 15:24 25,3 C 36 % 0,0 l/m 6,6 km/h (2 Bft) O-SO 117 1 min 0 min 0,000 mm 4,9 UV-I 823 W/m 9,1 C 25,3 C 12,9 km/h (3 Bft) 100,00 %
01.06.2020 15:23 25,3 C 35 % 0,0 l/m 6,3 km/h (2 Bft) NO 43 1 min 0 min 0,000 mm 5,0 UV-I 823 W/m 8,7 C 25,3 C 12,9 km/h (3 Bft) 92,31 %
01.06.2020 15:22 25,3 C 34 % 0,0 l/m 12,2 km/h (2 Bft) O-NO 61 2 min 0 min 0,000 mm 5,0 UV-I 826 W/m 8,3 C 25,3 C 24,1 km/h (4 Bft) 98,11 %
01.06.2020 15:20 25,4 C 36 % 0,0 l/m 15,1 km/h (3 Bft) O-NO 76 1 min 0 min 0,000 mm 5,0 UV-I 827 W/m 9,2 C 25,4 C 24,1 km/h (4 Bft) 100,00 %
01.06.2020 15:19 25,4 C 34 % 0,0 l/m 10,5 km/h (2 Bft) O 99 1 min 0 min 0,000 mm 5,0 UV-I 828 W/m 8,4 C 25,4 C 17,7 km/h (3 Bft) 95,83 %
01.06.2020 15:18 25,4 C 35 % 0,0 l/m 13,5 km/h (3 Bft) NO 45 1 min 0 min 0,000 mm 5,0 UV-I 830 W/m 8,8 C 25,4 C 24,1 km/h (4 Bft) 96,55 %
01.06.2020 15:17 25,4 C 34 % 0,0 l/m 8,4 km/h (2 Bft) N-NO 30 1 min 0 min 0,000 mm 5,1 UV-I 833 W/m 8,4 C 25,4 C 16,1 km/h (3 Bft) 95,65 %
01.06.2020 15:16 25,4 C 37 % 0,0 l/m 7,4 km/h (2 Bft) O-NO 59 1 min 0 min 0,000 mm 5,1 UV-I 833 W/m 9,6 C 25,3 C 17,7 km/h (3 Bft) 96,30 %
01.06.2020 15:15 25,3 C 34 % 0,0 l/m 7,4 km/h (2 Bft) N-NO 28 1 min 0 min 0,000 mm 5,1 UV-I 833 W/m 8,3 C 25,2 C 11,3 km/h (2 Bft) 100,00 %
01.06.2020 15:14 25,2 C 34 % 0,0 l/m 6,8 km/h (2 Bft) O-SO 119 1 min 0 min 0,000 mm 5,1 UV-I 835 W/m 8,2 C 25,2 C 9,7 km/h (2 Bft) 96,55 %
01.06.2020 15:13 25,2 C 35 % 0,0 l/m 5,1 km/h (1 Bft) SO 137 1 min 0 min 0,000 mm 5,1 UV-I 837 W/m 8,6 C 25,2 C 8,0 km/h (2 Bft) 93,75 %
01.06.2020 15:12 25,2 C 35 % 0,0 l/m 7,5 km/h (2 Bft) O-SO 115 2 min 0 min 0,000 mm 5,2 UV-I 839 W/m 8,6 C 25,2 C 14,5 km/h (3 Bft) 97,14 %
01.06.2020 15:10 25,2 C 33 % 0,0 l/m 11,9 km/h (2 Bft) O 96 1 min 0 min 0,000 mm 5,2 UV-I 845 W/m 7,8 C 25,2 C 16,1 km/h (3 Bft) 96,55 %
01.06.2020 15:09 25,3 C 34 % 0,0 l/m 8,1 km/h (2 Bft) NO 46 1 min 0 min 0,000 mm 5,2 UV-I 845 W/m 8,3 C 25,3 C 11,3 km/h (2 Bft) 96,30 %
01.06.2020 15:08 25,3 C 32 % 0,0 l/m 4,2 km/h (1 Bft) N 5 1 min 0 min 0,000 mm 5,3 UV-I 846 W/m 7,4 C 25,3 C 8,0 km/h (2 Bft) 100,00 %
01.06.2020 15:07 25,3 C 33 % 0,0 l/m 11,0 km/h (2 Bft) O-NO 72 1 min 0 min 0,000 mm 5,3 UV-I 845 W/m 7,9 C 25,3 C 17,7 km/h (3 Bft) 93,33 %
01.06.2020 15:06 25,4 C 33 % 0,0 l/m 13,2 km/h (3 Bft) N-NO 22 1 min 0 min 0,000 mm 5,3 UV-I 848 W/m 7,9 C 25,3 C 19,3 km/h (3 Bft) 100,00 %
01.06.2020 15:05 25,3 C 36 % 0,0 l/m 11,2 km/h (2 Bft) O-SO 104 1 min 0 min 0,000 mm 5,3 UV-I 851 W/m 9,1 C 25,3 C 17,7 km/h (3 Bft) 93,33 %
01.06.2020 15:04 25,3 C 36 % 0,0 l/m 7,7 km/h (2 Bft) O-NO 63 1 min 0 min 0,000 mm 5,3 UV-I 853 W/m 9,1 C 25,3 C 16,1 km/h (3 Bft) 96,15 %
01.06.2020 15:03 25,3 C 34 % 0,0 l/m 17,0 km/h (3 Bft) O-NO 60 1 min 0 min 0,000 mm 5,3 UV-I 851 W/m 8,3 C 25,3 C 27,4 km/h (5 Bft) 100,00 %
01.06.2020 15:02 25,3 C 34 % 0,0 l/m 6,1 km/h (2 Bft) N 5 2 min 0 min 0,635 mm 5,4 UV-I 855 W/m 8,3 C 25,2 C 14,5 km/h (3 Bft) 100,00 %
01.06.2020 15:00 25,2 C 34 % 0,0 l/m 5,2 km/h (1 Bft) NO 40 1 min 0 min 0,000 mm 5,4 UV-I 856 W/m 8,2 C 25,2 C 11,3 km/h (2 Bft) 92,59 %
01.06.2020 14:59 25,2 C 33 % 0,0 l/m 5,7 km/h (2 Bft) NO 51 1 min 0 min 0,000 mm 5,4 UV-I 854 W/m 7,8 C 25,2 C 9,7 km/h (2 Bft) 100,00 %
01.06.2020 14:58 25,2 C 34 % 0,0 l/m 9,9 km/h (2 Bft) NO 45 1 min 0 min 0,000 mm 5,4 UV-I 856 W/m 8,2 C 25,2 C 14,5 km/h (3 Bft) 95,83 %
01.06.2020 14:57 25,2 C 34 % 0,0 l/m 10,3 km/h (2 Bft) NO 39 1 min 0 min 0,000 mm 5,4 UV-I 860 W/m 8,2 C 25,2 C 17,7 km/h (3 Bft) 96,15 %
01.06.2020 14:56 25,2 C 31 % 0,0 l/m 11,7 km/h (2 Bft) O-NO 59 1 min 0 min 0,000 mm 5,5 UV-I 861 W/m 6,9 C 25,2 C 17,7 km/h (3 Bft) 91,30 %
01.06.2020 14:55 25,2 C 31 % 0,0 l/m 5,0 km/h (1 Bft) NO 56 1 min 0 min 0,000 mm 5,5 UV-I 860 W/m 6,9 C 25,2 C 12,9 km/h (3 Bft) 96,30 %
01.06.2020 14:54 25,2 C 31 % 0,0 l/m 7,6 km/h (2 Bft) NO 51 1 min 0 min 0,000 mm 5,5 UV-I 862 W/m 6,9 C 25,2 C 11,3 km/h (2 Bft) 100,00 %
01.06.2020 14:53 25,2 C 31 % 0,0 l/m 9,7 km/h (2 Bft) O-NO 74 1 min 0 min 0,000 mm 5,5 UV-I 863 W/m 6,9 C 25,2 C 14,5 km/h (3 Bft) 96,30 %
01.06.2020 14:52 25,2 C 32 % 0,0 l/m 12,4 km/h (2 Bft) O 84 2 min 0 min 0,000 mm 5,5 UV-I 862 W/m 7,3 C 25,2 C 17,7 km/h (3 Bft) 97,56 %
01.06.2020 14:50 25,2 C 33 % 0,0 l/m 7,7 km/h (2 Bft) O 83 1 min 0 min 0,000 mm 5,5 UV-I 864 W/m 7,8 C 25,1 C 12,9 km/h (3 Bft) 100,00 %
01.06.2020 14:49 25,1 C 33 % 0,0 l/m 7,8 km/h (2 Bft) SO 142 1 min 0 min 0,000 mm 5,6 UV-I 866 W/m 7,7 C 25,1 C 12,9 km/h (3 Bft) 100,00 %
01.06.2020 14:48 25,1 C 33 % 0,0 l/m 10,5 km/h (2 Bft) O 85 1 min 0 min 0,000 mm 5,6 UV-I 868 W/m 7,7 C 25,1 C 16,1 km/h (3 Bft) 100,00 %
01.06.2020 14:47 25,1 C 31 % 0,0 l/m 11,3 km/h (2 Bft) O-NO 59 1 min 0 min 0,000 mm 5,6 UV-I 870 W/m 6,8 C 25,1 C 17,7 km/h (3 Bft) 100,00 %
01.06.2020 14:46 25,2 C 34 % 0,0 l/m 7,2 km/h (2 Bft) NO 50 1 min 0 min 0,000 mm 5,6 UV-I 871 W/m 8,2 C 25,2 C 12,9 km/h (3 Bft) 100,00 %
01.06.2020 14:45 25,2 C 34 % 0,0 l/m 11,7 km/h (2 Bft) O 86 1 min 0 min 0,000 mm 5,6 UV-I 872 W/m 8,2 C 25,2 C 17,7 km/h (3 Bft) 100,00 %
01.06.2020 14:44 25,2 C 31 % 0,0 l/m 6,8 km/h (2 Bft) N-NO 28 1 min 0 min 0,000 mm 5,7 UV-I 871 W/m 6,9 C 25,2 C 11,3 km/h (2 Bft) 100,00 %
01.06.2020 14:43 25,2 C 33 % 0,0 l/m 12,0 km/h (2 Bft) O-NO 63 1 min 0 min 0,000 mm 5,7 UV-I 873 W/m 7,8 C 25,2 C 17,7 km/h (3 Bft) 100,00 %
01.06.2020 14:42 25,2 C 35 % 0,0 l/m 6,5 km/h (2 Bft) NO 52 2 min 0 min 0,000 mm 5,7 UV-I 872 W/m 8,6 C 25,2 C 16,1 km/h (3 Bft) 100,00 %
01.06.2020 14:40 25,2 C 33 % 0,0 l/m 11,2 km/h (2 Bft) NO 38 1 min 0 min 0,000 mm 5,7 UV-I 874 W/m 7,8 C 25,2 C 17,7 km/h (3 Bft) 100,00 %
01.06.2020 14:39 25,2 C 31 % 0,0 l/m 10,2 km/h (2 Bft) O-NO 71 1 min 0 min 0,000 mm 5,7 UV-I 876 W/m 6,9 C 25,2 C 16,1 km/h (3 Bft) 100,00 %
01.06.2020 14:38 25,2 C 35 % 0,0 l/m 9,2 km/h (2 Bft) O 79 1 min 0 min 0,000 mm 5,7 UV-I 878 W/m 8,6 C 25,2 C 17,7 km/h (3 Bft) 97,50 %
01.06.2020 14:37 25,2 C 34 % 0,0 l/m 7,3 km/h (2 Bft) NO 40 1 min 0 min 0,000 mm 5,7 UV-I 879 W/m 8,2 C 25,1 C 16,1 km/h (3 Bft) 100,00 %
01.06.2020 14:36 25,1 C 34 % 0,0 l/m 10,0 km/h (2 Bft) O-SO 105 1 min 0 min 0,000 mm 5,7 UV-I 877 W/m 8,1 C 25,0 C 17,7 km/h (3 Bft) 100,00 %
01.06.2020 14:35 25,0 C 35 % 0,0 l/m 9,5 km/h (2 Bft) NO 45 1 min 0 min 0,000 mm 5,8 UV-I 874 W/m 8,5 C 24,9 C 16,1 km/h (3 Bft) 100,00 %
01.06.2020 14:34 24,9 C 35 % 0,0 l/m 6,2 km/h (2 Bft) O-NO 60 1 min 0 min 0,000 mm 5,8 UV-I 877 W/m 8,4 C 24,9 C 9,7 km/h (2 Bft) 100,00 %
01.06.2020 14:33 24,9 C 35 % 0,0 l/m 3,5 km/h (1 Bft) O-NO 71 1 min 0 min 0,000 mm 5,8 UV-I 880 W/m 8,4 C 24,9 C 6,4 km/h (2 Bft) 100,00 %
01.06.2020 14:32 24,9 C 35 % 0,0 l/m 9,7 km/h (2 Bft) NO 51 2 min 0 min 0,000 mm 5,8 UV-I 882 W/m 8,4 C 24,9 C 16,1 km/h (3 Bft) 97,56 %
01.06.2020 14:30 25,0 C 33 % 0,0 l/m 14,6 km/h (3 Bft) N-NO 17 1 min 0 min 0,000 mm 5,8 UV-I 886 W/m 7,6 C 25,0 C 20,9 km/h (4 Bft) 96,55 %
01.06.2020 14:29 25,1 C 32 % 0,0 l/m 10,1 km/h (2 Bft) N-NO 28 1 min 0 min 0,000 mm 5,8 UV-I 886 W/m 7,2 C 25,1 C 16,1 km/h (3 Bft) 100,00 %
01.06.2020 14:28 25,1 C 33 % 0,0 l/m 11,1 km/h (2 Bft) N 355 1 min 0 min 0,000 mm 5,8 UV-I 888 W/m 7,7 C 25,1 C 16,1 km/h (3 Bft) 95,00 %
01.06.2020 14:27 25,2 C 33 % 0,0 l/m 14,2 km/h (3 Bft) NO 38 1 min 0 min 0,000 mm 5,8 UV-I 886 W/m 7,8 C 25,2 C 22,5 km/h (4 Bft) 100,00 %
01.06.2020 14:26 25,2 C 34 % 0,0 l/m 7,9 km/h (2 Bft) NO 42 1 min 0 min 0,000 mm 5,8 UV-I 886 W/m 8,2 C 25,2 C 14,5 km/h (3 Bft) 93,33 %
01.06.2020 14:25 25,2 C 34 % 0,0 l/m 8,3 km/h (2 Bft) N-NO 27 1 min 0 min 0,000 mm 5,8 UV-I 886 W/m 8,2 C 25,1 C 16,1 km/h (3 Bft) 100,00 %
01.06.2020 14:24 25,1 C 35 % 0,0 l/m 12,3 km/h (2 Bft) O 86 1 min 0 min 0,000 mm 5,7 UV-I 884 W/m 8,6 C 25,1 C 20,9 km/h (4 Bft) 100,00 %
01.06.2020 14:23 25,1 C 34 % 0,0 l/m 10,7 km/h (2 Bft) O 82 1 min 0 min 0,000 mm 5,6 UV-I 889 W/m 8,1 C 25,1 C 19,3 km/h (3 Bft) 100,00 %
01.06.2020 14:22 25,1 C 34 % 0,0 l/m 9,2 km/h (2 Bft) NO 54 2 min 0 min 0,000 mm 5,3 UV-I 889 W/m 8,1 C 25,0 C 14,5 km/h (3 Bft) 100,00 %
01.06.2020 14:20 25,0 C 33 % 0,0 l/m 9,7 km/h (2 Bft) O-NO 76 1 min 0 min 0,000 mm 5,1 UV-I 890 W/m 7,6 C 25,0 C 16,1 km/h (3 Bft) 95,83 %
01.06.2020 14:19 25,0 C 33 % 0,0 l/m 7,3 km/h (2 Bft) O-NO 76 1 min 0 min 0,000 mm 4,9 UV-I 889 W/m 7,6 C 25,0 C 12,9 km/h (3 Bft) 100,00 %
01.06.2020 14:18 25,0 C 34 % 0,0 l/m 11,0 km/h (2 Bft) O-NO 77 1 min 0 min 0,000 mm 4,8 UV-I 892 W/m 8,0 C 24,9 C 16,1 km/h (3 Bft) 100,00 %
01.06.2020 14:17 24,9 C 33 % 0,0 l/m 7,0 km/h (2 Bft) O 81 1 min 0 min 0,000 mm 4,7 UV-I 896 W/m 7,5 C 24,9 C 14,5 km/h (3 Bft) 100,00 %
01.06.2020 14:16 24,9 C 33 % 0,0 l/m 6,7 km/h (2 Bft) O-NO 63 1 min 0 min 0,000 mm 4,5 UV-I 894 W/m 7,5 C 24,9 C 11,3 km/h (2 Bft) 100,00 %
01.06.2020 14:15 24,9 C 36 % 0,0 l/m 6,8 km/h (2 Bft) O 93 1 min 0 min 0,000 mm 4,5 UV-I 893 W/m 8,8 C 24,8 C 16,1 km/h (3 Bft) 96,67 %
01.06.2020 14:14 24,8 C 33 % 0,0 l/m 7,6 km/h (2 Bft) NO 37 1 min 0 min 0,000 mm 4,5 UV-I 891 W/m 7,4 C 24,8 C 12,9 km/h (3 Bft) 96,15 %
01.06.2020 14:13 24,8 C 34 % 0,0 l/m 7,1 km/h (2 Bft) O 92 1 min 0 min 0,000 mm 4,5 UV-I 893 W/m 7,9 C 24,8 C 14,5 km/h (3 Bft) 96,55 %
01.06.2020 14:12 24,8 C 35 % 0,0 l/m 12,6 km/h (3 Bft) O 87 2 min 0 min 0,000 mm 4,7 UV-I 895 W/m 8,3 C 24,8 C 19,3 km/h (3 Bft) 97,56 %
01.06.2020 14:10 24,8 C 37 % 0,0 l/m 8,2 km/h (2 Bft) O-NO 62 1 min 0 min 0,000 mm 4,9 UV-I 895 W/m 9,1 C 24,7 C 17,7 km/h (3 Bft) 100,00 %
01.06.2020 14:09 24,7 C 38 % 0,0 l/m 7,4 km/h (2 Bft) O 80 1 min 0 min 0,000 mm 5,0 UV-I 894 W/m 9,4 C 24,7 C 12,9 km/h (3 Bft) 95,65 %
01.06.2020 14:08 24,7 C 38 % 0,0 l/m 9,2 km/h (2 Bft) O 79 1 min 0 min 0,000 mm 5,3 UV-I 894 W/m 9,4 C 24,6 C 14,5 km/h (3 Bft) 100,00 %
01.06.2020 14:07 24,6 C 38 % 0,0 l/m 12,0 km/h (2 Bft) O-SO 106 1 min 0 min 0,000 mm 5,4 UV-I 895 W/m 9,3 C 24,6 C 14,5 km/h (3 Bft) 95,65 %
01.06.2020 14:06 24,6 C 35 % 0,0 l/m 10,5 km/h (2 Bft) O-SO 111 1 min 0 min 0,000 mm 5,7 UV-I 896 W/m 8,1 C 24,5 C 16,1 km/h (3 Bft) 95,83 %
01.06.2020 14:05 24,5 C 38 % 0,0 l/m 11,7 km/h (2 Bft) O-SO 109 1 min 0 min 0,000 mm 5,8 UV-I 895 W/m 9,2 C 24,4 C 17,7 km/h (3 Bft) 95,65 %
01.06.2020 14:04 24,5 C 36 % 0,0 l/m 3,9 km/h (1 Bft) O-SO 107 2 min 0 min 0,000 mm 6,0 UV-I 897 W/m 8,4 C 24,4 C 6,4 km/h (2 Bft) 96,00 %
01.06.2020 14:02 24,4 C 38 % 0,0 l/m 5,0 km/h (1 Bft) O-NO 70 2 min 0 min 0,635 mm 6,1 UV-I 899 W/m 9,2 C 24,3 C 9,7 km/h (2 Bft) 93,88 %
01.06.2020 14:00 24,3 C 39 % 0,0 l/m 8,3 km/h (2 Bft) O-SO 105 1 min 0 min 0,000 mm 6,1 UV-I 896 W/m 9,4 C 24,3 C 12,9 km/h (3 Bft) 96,30 %
01.06.2020 13:59 24,3 C 37 % 0,0 l/m 8,9 km/h (2 Bft) O 92 1 min 0 min 0,000 mm 6,1 UV-I 898 W/m 8,7 C 24,3 C 14,5 km/h (3 Bft) 100,00 %
01.06.2020 13:58 24,4 C 37 % 0,0 l/m 11,7 km/h (2 Bft) NO 51 1 min 0 min 0,000 mm 6,1 UV-I 898 W/m 8,8 C 24,4 C 16,1 km/h (3 Bft) 96,15 %
01.06.2020 13:57 24,4 C 36 % 0,0 l/m 5,2 km/h (1 Bft) NO 55 1 min 0 min 0,000 mm 6,1 UV-I 898 W/m 8,4 C 24,4 C 9,7 km/h (2 Bft) 92,31 %
01.06.2020 13:56 24,4 C 33 % 0,0 l/m 7,5 km/h (2 Bft) N 5 1 min 0 min 0,000 mm 6,1 UV-I 898 W/m 7,1 C 24,4 C 12,9 km/h (3 Bft) 96,30 %
01.06.2020 13:55 24,6 C 34 % 0,0 l/m 9,4 km/h (2 Bft) NO 53 1 min 0 min 0,000 mm 6,2 UV-I 898 W/m 7,7 C 24,6 C 12,9 km/h (3 Bft) 92,86 %
01.06.2020 13:54 24,6 C 36 % 0,0 l/m 7,4 km/h (2 Bft) O-SO 121 1 min 0 min 0,000 mm 6,1 UV-I 900 W/m 8,5 C 24,6 C 11,3 km/h (2 Bft) 100,00 %
01.06.2020 13:53 24,6 C 37 % 0,0 l/m 12,9 km/h (3 Bft) O-SO 119 1 min 0 min 0,000 mm 6,2 UV-I 899 W/m 8,9 C 24,5 C 17,7 km/h (3 Bft) 95,65 %
01.06.2020 13:52 24,5 C 36 % 0,0 l/m 12,7 km/h (3 Bft) O-SO 113 2 min 0 min 0,000 mm 6,2 UV-I 902 W/m 8,4 C 24,4 C 17,7 km/h (3 Bft) 100,00 %
01.06.2020 13:50 24,4 C 36 % 0,0 l/m 8,0 km/h (2 Bft) S 169 1 min 0 min 0,000 mm 6,2 UV-I 904 W/m 8,4 C 24,4 C 14,5 km/h (3 Bft) 100,00 %
01.06.2020 13:49 24,4 C 35 % 0,0 l/m 6,4 km/h (2 Bft) O 96 1 min 0 min 0,000 mm 6,2 UV-I 902 W/m 7,9 C 24,3 C 8,0 km/h (2 Bft) 100,00 %
01.06.2020 13:48 24,3 C 37 % 0,0 l/m 5,4 km/h (2 Bft) SO 124 1 min 0 min 0,000 mm 6,2 UV-I 902 W/m 8,7 C 24,3 C 11,3 km/h (2 Bft) 100,00 %
01.06.2020 13:47 24,3 C 37 % 0,0 l/m 2,6 km/h (1 Bft) N-NO 20 1 min 0 min 0,000 mm 6,2 UV-I 902 W/m 8,7 C 24,3 C 3,2 km/h (1 Bft) 100,00 %
01.06.2020 13:46 24,3 C 38 % 0,0 l/m 5,7 km/h (2 Bft) N 5 1 min 0 min 0,000 mm 6,2 UV-I 902 W/m 9,1 C 24,2 C 9,7 km/h (2 Bft) 98,17 %
01.06.2020 13:45 24,2 C 37 % 0,0 l/m 8,1 km/h (2 Bft) NO 36 1 min 0 min 0,000 mm 6,2 UV-I 903 W/m 8,6 C 24,2 C 14,5 km/h (3 Bft) 100,00 %
01.06.2020 13:44 24,2 C 37 % 0,0 l/m 10,9 km/h (2 Bft) N-NO 31 1 min 0 min 0,000 mm 6,2 UV-I 901 W/m 8,6 C 24,2 C 17,7 km/h (3 Bft) 100,00 %
01.06.2020 13:43 24,2 C 39 % 0,0 l/m 8,1 km/h (2 Bft) O-NO 59 1 min 0 min 0,000 mm 6,2 UV-I 902 W/m 9,4 C 24,1 C 16,1 km/h (3 Bft) 100,00 %
01.06.2020 13:42 24,1 C 38 % 0,0 l/m 6,4 km/h (2 Bft) SO 137 2 min 0 min 0,000 mm 6,2 UV-I 900 W/m 8,9 C 24,0 C 12,9 km/h (3 Bft) 100,00 %
01.06.2020 13:40 24,0 C 39 % 0,0 l/m 11,4 km/h (2 Bft) O-NO 73 1 min 0 min 0,000 mm 6,2 UV-I 899 W/m 9,2 C 24,0 C 20,9 km/h (4 Bft) 100,00 %
01.06.2020 13:39 24,0 C 37 % 0,0 l/m 4,9 km/h (1 Bft) O 90 1 min 0 min 0,000 mm 6,2 UV-I 899 W/m 8,4 C 23,9 C 11,3 km/h (2 Bft) 100,00 %
01.06.2020 13:38 23,9 C 39 % 0,0 l/m 5,1 km/h (1 Bft) NO 34 1 min 0 min 0,000 mm 6,2 UV-I 900 W/m 9,1 C 23,9 C 6,4 km/h (2 Bft) 100,00 %
01.06.2020 13:37 23,9 C 38 % 0,0 l/m 9,1 km/h (2 Bft) NO 46 1 min 0 min 0,000 mm 6,2 UV-I 900 W/m 8,7 C 23,9 C 16,1 km/h (3 Bft) 100,00 %
01.06.2020 13:36 23,9 C 38 % 0,0 l/m 11,9 km/h (2 Bft) NO 34 1 min 0 min 0,000 mm 6,3 UV-I 901 W/m 8,7 C 23,9 C 22,5 km/h (4 Bft) 100,00 %
01.06.2020 13:35 23,9 C 36 % 0,0 l/m 5,8 km/h (2 Bft) N-NO 19 1 min 0 min 0,000 mm 6,3 UV-I 900 W/m 7,9 C 23,8 C 11,3 km/h (2 Bft) 100,00 %
01.06.2020 13:34 23,8 C 37 % 0,0 l/m 3,3 km/h (1 Bft) NW 323 1 min 0 min 0,000 mm 6,3 UV-I 899 W/m 8,2 C 23,8 C 8,0 km/h (2 Bft) 100,00 %
01.06.2020 13:33 23,8 C 34 % 0,0 l/m 10,6 km/h (2 Bft) N-NW 329 1 min 0 min 0,000 mm 6,3 UV-I 900 W/m 7,0 C 23,8 C 14,5 km/h (3 Bft) 96,55 %
01.06.2020 13:32 23,9 C 34 % 0,0 l/m 5,5 km/h (2 Bft) N-NO 18 2 min 0 min 0,000 mm 6,3 UV-I 903 W/m 7,1 C 23,9 C 11,3 km/h (2 Bft) 95,12 %
01.06.2020 13:30 23,9 C 36 % 0,0 l/m 8,0 km/h (2 Bft) N-NO 21 1 min 0 min 0,000 mm 6,3 UV-I 903 W/m 7,9 C 23,9 C 12,9 km/h (3 Bft) 100,00 %
01.06.2020 13:29 23,9 C 36 % 0,0 l/m 6,2 km/h (2 Bft) N-NW 346 1 min 0 min 0,000 mm 6,3 UV-I 900 W/m 7,9 C 23,9 C 9,7 km/h (2 Bft) 95,65 %
01.06.2020 13:28 23,9 C 36 % 0,0 l/m 11,5 km/h (2 Bft) N-NO 13 1 min 0 min 0,000 mm 6,3 UV-I 900 W/m 7,9 C 23,9 C 16,1 km/h (3 Bft) 100,00 %
01.06.2020 13:27 23,9 C 37 % 0,0 l/m 16,2 km/h (3 Bft) N 360 1 min 0 min 0,000 mm 6,3 UV-I 900 W/m 8,3 C 23,9 C 20,9 km/h (4 Bft) 95,65 %
01.06.2020 13:26 24,0 C 39 % 0,0 l/m 9,4 km/h (2 Bft) NO 42 1 min 0 min 0,000 mm 6,3 UV-I 902 W/m 9,2 C 23,9 C 22,5 km/h (4 Bft) 95,83 %
01.06.2020 13:25 24,0 C 38 % 0,0 l/m 8,4 km/h (2 Bft) NO 40 1 min 0 min 0,000 mm 6,3 UV-I 898 W/m 8,8 C 24,0 C 14,5 km/h (3 Bft) 96,15 %
01.06.2020 13:24 24,0 C 39 % 0,0 l/m 11,9 km/h (2 Bft) NO 42 1 min 0 min 0,000 mm 6,3 UV-I 900 W/m 9,2 C 24,0 C 17,7 km/h (3 Bft) 100,00 %
01.06.2020 13:23 24,0 C 38 % 0,0 l/m 10,8 km/h (2 Bft) O-NO 61 1 min 0 min 0,000 mm 6,3 UV-I 899 W/m 8,8 C 24,0 C 14,5 km/h (3 Bft) 100,00 %
01.06.2020 13:22 24,1 C 38 % 0,0 l/m 5,6 km/h (2 Bft) O 94 2 min 0 min 0,000 mm 6,3 UV-I 898 W/m 8,9 C 24,1 C 14,5 km/h (3 Bft) 100,00 %
01.06.2020 13:20 24,1 C 38 % 0,0 l/m 3,0 km/h (1 Bft) O-NO 63 1 min 0 min 0,000 mm 6,3 UV-I 898 W/m 8,9 C 24,1 C 4,8 km/h (1 Bft) 100,00 %
01.06.2020 13:19 24,1 C 38 % 0,0 l/m 7,5 km/h (2 Bft) NO 55 1 min 0 min 0,000 mm 6,3 UV-I 900 W/m 8,9 C 24,1 C 11,3 km/h (2 Bft) 100,00 %
01.06.2020 13:18 24,1 C 39 % 0,0 l/m 6,5 km/h (2 Bft) O 94 1 min 0 min 0,000 mm 6,3 UV-I 899 W/m 9,3 C 24,1 C 12,9 km/h (3 Bft) 100,00 %
01.06.2020 13:17 24,1 C 40 % 0,0 l/m 3,6 km/h (1 Bft) S-SO 159 1 min 0 min 0,000 mm 6,3 UV-I 896 W/m 9,6 C 24,1 C 6,4 km/h (2 Bft) 100,00 %
01.06.2020 13:16 24,1 C 41 % 0,0 l/m 4,8 km/h (1 Bft) W-SW 245 1 min 0 min 0,000 mm 6,3 UV-I 898 W/m 10,0 C 24,0 C 8,0 km/h (2 Bft) 100,00 %
01.06.2020 13:15 24,0 C 40 % 0,0 l/m 7,5 km/h (2 Bft) N-NO 30 1 min 0 min 0,000 mm 6,3 UV-I 898 W/m 9,6 C 24,0 C 14,5 km/h (3 Bft) 100,00 %
01.06.2020 13:14 24,0 C 40 % 0,0 l/m 6,9 km/h (2 Bft) NO 39 1 min 0 min 0,000 mm 6,3 UV-I 898 W/m 9,6 C 24,0 C 11,3 km/h (2 Bft) 100,00 %
01.06.2020 13:13 24,0 C 40 % 0,0 l/m 13,1 km/h (3 Bft) N 10 1 min 0 min 0,000 mm 6,2 UV-I 896 W/m 9,6 C 23,9 C 20,9 km/h (4 Bft) 100,00 %
01.06.2020 13:12 23,9 C 43 % 0,0 l/m 5,8 km/h (2 Bft) NO 51 2 min 0 min 0,000 mm 6,3 UV-I 896 W/m 10,5 C 23,8 C 12,9 km/h (3 Bft) 100,00 %
01.06.2020 13:10 23,8 C 41 % 0,0 l/m 5,6 km/h (2 Bft) S-SO 167 1 min 0 min 0,000 mm 6,3 UV-I 895 W/m 9,7 C 23,7 C 12,9 km/h (3 Bft) 100,00 %
01.06.2020 13:09 23,7 C 40 % 0,0 l/m 5,2 km/h (1 Bft) O-SO 116 1 min 0 min 0,000 mm 6,2 UV-I 895 W/m 9,3 C 23,7 C 9,7 km/h (2 Bft) 100,00 %
01.06.2020 13:08 23,7 C 40 % 0,0 l/m 6,8 km/h (2 Bft) SO 131 1 min 0 min 0,000 mm 6,3 UV-I 893 W/m 9,3 C 23,7 C 11,3 km/h (2 Bft) 100,00 %
01.06.2020 13:07 23,7 C 40 % 0,0 l/m 6,5 km/h (2 Bft) O-SO 103 1 min 0 min 0,000 mm 6,2 UV-I 895 W/m 9,3 C 23,7 C 11,3 km/h (2 Bft) 100,00 %
01.06.2020 13:06 23,7 C 40 % 0,0 l/m 15,6 km/h (3 Bft) O-SO 103 1 min 0 min 0,000 mm 6,2 UV-I 892 W/m 9,3 C 23,7 C 19,3 km/h (3 Bft) 100,00 %
01.06.2020 13:05 23,7 C 42 % 0,0 l/m 9,6 km/h (2 Bft) O 83 1 min 0 min 0,000 mm 6,2 UV-I 893 W/m 10,0 C 23,6 C 19,3 km/h (3 Bft) 100,00 %
01.06.2020 13:04 23,6 C 42 % 0,0 l/m 10,3 km/h (2 Bft) O 80 1 min 0 min 0,000 mm 6,2 UV-I 896 W/m 9,9 C 23,6 C 19,3 km/h (3 Bft) 95,83 %
01.06.2020 13:03 23,6 C 42 % 0,0 l/m 3,4 km/h (1 Bft) NO 53 1 min 0 min 0,000 mm 6,2 UV-I 891 W/m 9,9 C 23,4 C 4,8 km/h (1 Bft) 100,00 %
01.06.2020 13:02 23,4 C 43 % 0,0 l/m 5,0 km/h (1 Bft) NO 53 2 min 0 min 0,559 mm 6,2 UV-I 890 W/m 10,1 C 23,3 C 11,3 km/h (2 Bft) 94,00 %
01.06.2020 13:00 23,3 C 41 % 0,0 l/m 13,6 km/h (3 Bft) O-NO 73 1 min 0 min 0,000 mm 6,2 UV-I 890 W/m 9,3 C 23,3 C 17,7 km/h (3 Bft) 95,65 %
_ Min-Zeit 06:33 14:39 - 01:46 - - - - - - - 06:07 06:33 06:12 20:07
Minimum _ 10,3 C 31 % - 0,0 km/h (0 Bft) - - - - - - - 6,1 C 10,3 C 0,0 km/h (0 Bft) 83,33 %
_ Max-Zeit 16:32 06:46 13:00 18:40 - - 13:02 13:00 14:02 13:08 13:50 12:27 16:33 15:03 13:03
Maximum _ 26,2 C 79 % 0,0 l/m 19,5 km/h
O-NO (3 Bft)
- - 2 min 0 min 0,635 mm 6,3 UV-I 904 W/m 10,8 C 26,2 C 27,4 km/h
NO (5 Bft)
100,00 %
Durchschnitt _ 19,0 C 52 % #0,0 l/m 6,8 km/h (2 Bft) O-NO - #4:21 h #0 min. #1,753 mm 3,4 UV-I 380 W/m 8,1 C 18,9 C 11,2 km/h (2 Bft) 97,87 %
Walter Karow